[[{"header":{"parameterUnit":"m.s-1","parameterCategory":1,"la1":30.6,"la2":29.2853,"lo1":-89.7004,"lo2":-87.6739,"dy":0.0162,"dx":0.0183,"nx":112,"ny":82,"refTime":"2024-08-25T06:00:00:Z","depth":0,"parameterNumber":2,"parameterNumberName":"U-component_of_WINDS"},"data":[0.0,0.0,0.0,0.0,0.0,0.0,0.0,0.0,0.0,0.0,0.0,0.0,0.0,0.0,0.0,0.0,0.0,0.0,0.0,0.0,0.0,0.0,0.0,0.0,0.0,0.0,0.0,0.0,0.0,0.0,0.0,0.0,0.0,0.0,0.0,0.0,0.0,0.0,0.0,0.0,0.0,0.0,0.0,0.0,0.0,0.0,0.0,0.0,0.0,0.0,0.0,0.0,0.0,0.0,0.0,0.0,0.0,0.0,0.0,0.0,0.0,0.0,0.0,0.0,0.0,0.0,0.0,0.0,0.0,0.0,0.0,0.0,0.0,0.0,0.0,0.0,0.0,0.0,0.0,0.0,0.0,0.0,0.0,0.0,0.0,0.0,0.0,0.0,0.0,0.0,0.0,-0.7086,-0.907,-1.0108,-0.9589,-0.9244,-0.8128,-0.5971,0.0,0.0,0.0,0.0,0.0,0.0,0.0,0.0,0.0,0.0,0.0,0.0,0.0,0.0,0.0,0.0,0.0,0.0,0.0,0.0,0.0,0.0,0.0,0.0,0.0,0.0,0.0,0.0,0.0,0.0,0.0,0.0,0.0,0.0,0.0,0.0,0.0,0.0,0.0,0.0,0.0,0.0,0.0,0.0,0.0,0.0,0.0,0.0,0.0,0.0,0.0,0.0,0.0,0.0,0.0,0.0,0.0,0.0,0.0,0.0,0.0,0.0,0.0,0.0,0.0,0.0,0.0,0.0,0.0,0.0,0.0,0.0,0.0,0.0,0.0,0.0,0.0,0.0,0.0,0.0,0.0,0.0,0.0,0.0,0.0,0.0,0.0,0.0,0.0,0.0,0.0,0.0,0.0,0.0,0.0,0.0,0.0,0.0,0.0,0.0,0.0,0.0,0.0,0.0,-0.6646,-0.9145,-0.9996,-1.035,-1.0272,-0.933,-0.8107,-0.6554,0.0,0.0,0.0,0.0,0.0,0.0,0.0,0.0,0.0,0.0,0.0,0.0,0.0,0.0,0.0,0.0,0.0,0.0,0.0,0.0,0.0,0.0,0.0,0.0,0.0,0.0,0.0,0.0,0.0,0.0,0.0,0.0,0.0,0.0,0.0,0.0,0.0,0.0,0.0,0.0,0.0,0.0,0.0,0.0,0.0,0.0,0.0,0.0,0.0,0.0,0.0,0.0,0.0,0.0,0.0,0.0,0.0,0.0,0.0,0.0,0.0,0.0,0.0,0.0,0.0,0.0,0.0,0.0,0.0,0.0,0.0,0.0,0.0,0.0,0.0,0.0,0.0,0.0,0.0,0.0,0.0,0.0,0.0,0.0,0.0,0.0,0.0,0.0,0.0,0.0,0.0,0.0,0.0,0.0,0.0,0.0,0.0,0.0,0.0,0.0,0.0,0.0,0.0,-0.6211,-0.7655,-0.9934,-1.0472,-1.0669,-1.0669,-0.9635,-0.8352,-0.6908,-0.5586,0.0,0.0,0.0,0.0,0.0,0.0,0.0,0.0,0.0,0.0,0.0,0.0,0.0,0.0,0.0,0.0,0.0,0.0,0.0,0.0,0.0,0.0,0.0,0.0,0.0,0.0,0.0,0.0,0.0,0.0,0.0,0.0,0.0,0.0,0.0,0.0,0.0,0.0,0.0,0.0,0.0,0.0,0.0,0.0,0.0,0.0,0.0,0.0,0.0,0.0,0.0,0.0,0.0,0.0,0.0,0.0,0.0,0.0,0.0,0.0,0.0,0.0,0.0,0.0,0.0,0.0,0.0,0.0,0.0,0.0,0.0,0.0,0.0,0.0,0.0,0.0,0.0,0.0,0.0,0.0,0.0,0.0,0.0,0.0,0.0,0.0,0.0,0.0,0.0,0.0,0.0,0.0,0.0,0.0,0.0,0.0,0.0,0.0,0.0,0.0,0.0,0.0,-0.7815,-0.8697,-1.0336,-1.0756,-1.0881,-1.0881,-0.9785,-0.849,-0.7071,-0.5613,0.0,0.0,0.0,0.0,0.0,0.0,0.0,0.0,0.0,0.0,0.0,0.0,0.0,0.0,0.0,0.0,0.0,0.0,0.0,0.0,0.0,0.0,0.0,0.0,0.0,0.0,0.0,0.0,0.0,0.0,0.0,0.0,0.0,0.0,0.0,0.0,0.0,0.0,0.0,0.0,0.0,0.0,0.0,0.0,0.0,0.0,0.0,0.0,0.0,0.0,0.0,0.0,0.0,0.0,0.0,0.0,0.0,0.0,0.0,0.0,0.0,0.0,0.0,0.0,0.0,0.0,0.0,0.0,0.0,0.0,0.0,0.0,0.0,0.0,0.0,0.0,0.0,0.0,0.0,0.0,0.0,0.0,0.0,0.0,0.0,0.0,0.0,0.0,0.0,0.0,0.0,0.0,0.0,0.0,0.0,0.0,0.0,0.0,0.0,0.0,0.0,0.0,-0.8396,-0.9556,-1.074,-1.0891,-1.0881,-1.0803,-0.9593,-0.8276,-0.6987,-0.5416,0.0,0.0,0.0,0.0,0.0,0.0,0.0,0.0,0.0,0.0,0.0,0.0,0.0,0.0,0.0,0.0,0.0,0.0,0.0,0.0,0.0,0.0,0.0,0.0,0.0,0.0,0.0,0.0,0.0,0.0,0.0,0.0,0.0,0.0,0.0,0.0,0.0,0.0,0.0,0.0,0.0,0.0,0.0,0.0,0.0,0.0,0.0,0.0,0.0,0.0,0.0,0.0,0.0,0.0,0.0,0.0,0.0,0.0,0.0,0.0,0.0,0.0,0.0,0.0,0.0,0.0,0.0,0.0,0.0,0.0,0.0,0.0,0.0,0.0,0.0,0.0,0.0,0.0,0.0,0.0,0.0,0.0,0.0,0.0,0.0,0.0,0.0,0.0,0.0,0.0,0.0,0.0,0.0,0.0,0.0,0.0,0.0,0.0,0.0,0.0,0.0,0.0,-0.8192,-0.9339,0.0,-1.0881,-1.0881,-1.0862,-0.9836,-0.8581,-0.7178,0.0,0.0,0.0,0.0,0.0,0.0,0.0,0.0,0.0,0.0,0.0,0.0,0.0,0.0,0.0,0.0,0.0,0.0,0.0,0.0,0.0,0.0,0.0,0.0,0.0,0.0,0.0,0.0,0.0,0.0,0.0,0.0,0.0,0.0,0.0,0.0,0.0,0.0,0.0,0.0,0.0,0.0,0.0,0.0,0.0,0.0,0.0,0.0,0.0,0.0,0.0,0.0,0.0,0.0,0.0,0.0,0.0,0.0,0.0,0.0,0.0,0.0,0.0,0.0,0.0,0.0,0.0,0.0,0.0,0.0,0.0,0.0,0.0,0.0,0.0,0.0,0.0,0.0,0.0,0.0,0.0,0.0,0.0,0.0,0.0,0.0,0.0,0.0,0.0,0.0,0.0,0.0,0.0,0.0,0.0,0.0,0.0,0.0,0.0,0.0,0.0,0.0,-0.7391,-0.8491,-0.9655,0.0,-1.1182,-1.1136,-1.0947,-0.995,-0.8696,-0.7193,0.0,0.0,0.0,0.0,0.0,0.0,0.0,0.0,0.0,0.0,0.0,0.0,0.0,0.0,0.0,0.0,0.0,0.0,0.0,0.0,0.0,0.0,0.0,0.0,0.0,0.0,0.0,0.0,0.0,0.0,0.0,0.0,0.0,0.0,0.0,0.0,0.0,0.0,0.0,0.0,0.0,0.0,0.0,0.0,0.0,0.0,0.0,0.0,0.0,0.0,0.0,0.0,0.0,0.0,0.0,0.0,0.0,0.0,0.0,0.0,0.0,0.0,0.0,0.0,0.0,0.0,0.0,0.0,0.0,0.0,0.0,0.0,0.0,0.0,0.0,0.0,0.0,0.0,0.0,0.0,0.0,0.0,0.0,0.0,0.0,0.0,0.0,0.0,0.0,0.0,0.0,0.0,0.0,0.0,0.0,0.0,0.0,0.0,0.0,0.0,0.0,0.0,-0.8174,-0.9524,-1.0693,-1.1691,-1.1854,-1.1671,-1.1057,-0.9899,-0.8546,0.0,0.0,0.0,0.0,0.0,0.0,0.0,0.0,0.0,0.0,0.0,0.0,0.0,0.0,0.0,0.0,0.0,0.0,0.0,0.0,0.0,0.0,0.0,0.0,0.0,0.0,0.0,0.0,0.0,0.0,0.0,0.0,0.0,0.0,0.0,0.0,0.0,0.0,0.0,0.0,0.0,0.0,0.0,0.0,0.0,0.0,0.0,0.0,0.0,0.0,0.0,0.0,0.0,0.0,0.0,0.0,0.0,0.0,0.0,0.0,0.0,0.0,0.0,0.0,0.0,0.0,0.0,0.0,0.0,0.0,0.0,0.0,0.0,0.0,0.0,0.0,0.0,0.0,0.0,0.0,0.0,0.0,0.0,0.0,0.0,0.0,0.0,0.0,0.0,0.0,0.0,0.0,0.0,0.0,0.0,0.0,0.0,0.0,0.0,0.0,0.0,0.0,0.0,-0.8139,-0.9558,-1.082,-1.1771,-1.1891,-1.1836,-1.1653,-1.0564,-0.9238,-0.7642,0.0,0.0,0.0,0.0,0.0,0.0,0.0,0.0,0.0,0.0,0.0,0.0,0.0,0.0,0.0,0.0,0.0,0.0,0.0,0.0,0.0,0.0,0.0,0.0,0.0,0.0,0.0,0.0,0.0,0.0,0.0,0.0,0.0,0.0,0.0,0.0,0.0,0.0,0.0,0.0,0.0,0.0,0.0,0.0,0.0,0.0,0.0,0.0,0.0,0.0,0.0,0.0,0.0,0.0,0.0,0.0,0.0,0.0,0.0,0.0,0.0,0.0,0.0,0.0,0.0,0.0,0.0,0.0,0.0,0.0,0.0,0.0,0.0,0.0,0.0,0.0,0.0,0.0,0.0,0.0,0.0,0.0,0.0,0.0,0.0,0.0,0.0,0.0,0.0,0.0,0.0,0.0,0.0,0.0,0.0,0.0,0.0,0.0,0.0,0.0,0.0,0.0,-0.8423,-0.9867,-1.1127,-1.2159,-1.2282,-1.2216,-1.2036,-1.1069,-0.9762,-0.8105,0.0,0.0,0.0,0.0,0.0,0.0,0.0,0.0,0.0,0.0,0.0,0.0,0.0,0.0,0.0,0.0,0.0,0.0,0.0,0.0,0.0,0.0,0.0,0.0,0.0,0.0,0.0,0.0,0.0,0.0,0.0,0.0,0.0,0.0,0.0,0.0,0.0,0.0,0.0,0.0,0.0,0.0,0.0,0.0,0.0,0.0,0.0,0.0,0.0,0.0,0.0,0.0,0.0,0.0,0.0,0.0,0.0,0.0,0.0,0.0,0.0,0.0,0.0,0.0,0.0,0.0,0.0,0.0,0.0,0.0,0.0,0.0,0.0,0.0,0.0,0.0,0.0,0.0,0.0,0.0,0.0,0.0,0.0,0.0,0.0,0.0,0.0,0.0,0.0,0.0,0.0,0.0,0.0,0.0,0.0,0.0,0.0,0.0,0.0,0.0,0.0,0.0,-0.8912,-1.032,-1.1608,-1.2746,-1.2908,-1.2761,-1.2342,-1.151,-1.0256,-0.8535,0.0,0.0,0.0,0.0,0.0,0.0,0.0,0.0,0.0,0.0,0.0,0.0,0.0,0.0,0.0,0.0,0.0,0.0,0.0,0.0,0.0,0.0,0.0,0.0,0.0,0.0,0.0,0.0,0.0,0.0,0.0,0.0,0.0,0.0,0.0,0.0,0.0,0.0,0.0,0.0,0.0,0.0,0.0,0.0,0.0,0.0,0.0,0.0,0.0,0.0,0.0,0.0,0.0,0.0,0.0,0.0,0.0,0.0,0.0,0.0,-0.6641,0.0,0.0,0.0,0.0,0.0,0.0,0.0,0.0,0.0,0.0,0.0,0.0,0.0,0.0,0.0,0.0,0.0,0.0,0.0,0.0,0.0,0.0,0.0,0.0,0.0,0.0,0.0,0.0,0.0,0.0,0.0,0.0,0.0,0.0,0.0,0.0,0.0,0.0,0.0,0.0,0.0,-0.9038,-1.0673,-1.2095,-1.323,-1.3263,-1.3182,-1.3067,-1.2228,-1.1026,-0.9503,-0.8073,0.0,0.0,0.0,0.0,0.0,0.0,0.0,0.0,0.0,0.0,0.0,0.0,0.0,0.0,0.0,0.0,0.0,0.0,0.0,0.0,0.0,0.0,0.0,0.0,0.0,0.0,0.0,0.0,0.0,0.0,0.0,0.0,0.0,0.0,0.0,0.0,0.0,0.0,0.0,0.0,0.0,0.0,0.0,0.0,0.0,0.0,0.0,0.0,0.0,0.0,0.0,0.0,0.0,0.0,0.0,0.0,0.0,0.0,0.0,-0.9043,-0.784,0.0,0.0,0.0,0.0,0.0,0.0,0.0,0.0,0.0,0.0,0.0,0.0,0.0,0.0,0.0,0.0,0.0,0.0,0.0,0.0,0.0,0.0,0.0,0.0,0.0,0.0,0.0,0.0,0.0,0.0,0.0,0.0,0.0,0.0,0.0,0.0,0.0,0.0,0.0,0.0,-0.9174,-1.0926,-1.2361,-1.3085,-1.3104,-1.3057,-1.3057,-1.2372,-1.1391,-1.0068,-0.8972,0.0,0.0,0.0,0.0,0.0,0.0,0.0,0.0,0.0,0.0,0.0,0.0,0.0,0.0,0.0,0.0,0.0,0.0,0.0,0.0,0.0,0.0,0.0,0.0,0.0,0.0,0.0,0.0,0.0,0.0,0.0,0.0,0.0,0.0,0.0,0.0,0.0,0.0,0.0,0.0,0.0,0.0,0.0,0.0,0.0,0.0,0.0,0.0,0.0,0.0,0.0,0.0,0.0,-1.2724,-1.2671,-1.227,-1.3156,-1.3615,-1.3611,-1.1731,-1.097,-1.0975,-0.9718,0.0,0.0,0.0,0.0,0.0,0.0,0.0,0.0,0.0,0.0,0.0,0.0,0.0,0.0,0.0,0.0,0.0,0.0,0.0,0.0,0.0,0.0,-1.1065,-1.1144,-1.2165,-1.2285,-0.9246,0.0,0.0,0.0,0.0,0.0,0.0,0.0,0.0,0.0,0.0,0.0,-0.9587,-1.137,-1.271,-1.3037,-1.3052,-1.3052,-1.3052,-1.2542,-1.1781,-1.0731,-0.9866,-0.874,0.0,0.0,0.0,0.0,0.0,0.0,0.0,0.0,0.0,0.0,0.0,0.0,0.0,0.0,0.0,0.0,0.0,0.0,0.0,0.0,0.0,0.0,0.0,0.0,0.0,0.0,0.0,0.0,0.0,0.0,0.0,0.0,-0.523,-0.6286,0.0,0.0,0.0,0.0,0.0,0.0,0.0,0.0,0.0,0.0,0.0,0.0,0.0,-1.2621,-1.3115,-1.4683,-1.5347,-1.5182,-1.6374,-1.6596,-1.5988,-1.614,-1.6337,-1.6564,-1.6541,0.0,-1.3655,-1.3058,0.0,0.0,0.0,0.0,0.0,0.0,0.0,0.0,0.0,0.0,0.0,0.0,0.0,0.0,0.0,0.0,0.0,0.0,0.0,0.0,0.0,0.0,-1.4822,-1.4604,-1.4883,-1.5021,-1.4299,-1.2103,-1.0079,-0.9467,-0.9124,-0.8804,0.0,0.0,0.0,0.0,0.0,0.0,-1.0859,-1.2361,-1.3558,-1.4054,-1.4108,-1.4108,-1.4108,-1.3453,-1.2785,-1.2159,-1.0887,-0.9771,-0.8912,-0.7958,0.0,0.0,0.0,0.0,0.0,0.0,0.0,0.0,0.0,0.0,0.0,0.0,0.0,0.0,0.0,0.0,0.0,0.0,0.0,0.0,0.0,0.0,0.0,0.0,0.0,0.0,0.0,0.0,0.0,-0.5369,-0.6509,-0.7359,-0.7417,-0.7325,0.0,0.0,0.0,0.0,0.0,0.0,0.0,0.0,0.0,-1.3516,-1.4422,-1.54,-1.6403,-1.7282,-1.7817,-1.8003,-1.8694,-1.8723,-1.8216,-1.8444,-1.8447,-1.8308,-1.8669,-1.8247,-1.7175,-1.5736,-1.428,-1.2872,0.0,0.0,0.0,0.0,-1.1138,-1.1257,-1.2268,-1.247,-1.2279,-1.2283,0.0,0.0,0.0,0.0,0.0,0.0,0.0,-1.2758,-1.3597,-1.4833,-1.6091,-1.6866,-1.7255,-1.7371,-1.7109,-1.5983,-1.4355,-1.207,-1.1528,-1.107,-0.9928,0.0,0.0,0.0,0.0,-1.2279,-1.2265,-1.3556,-1.4471,-1.453,-1.4196,-1.3964,-1.3964,-1.3501,-1.296,-1.2423,-1.163,-1.0924,-1.0294,-0.913,-0.8198,0.0,0.0,0.0,0.0,0.0,0.0,0.0,0.0,0.0,0.0,0.0,0.0,0.0,0.0,0.0,0.0,0.0,0.0,0.0,0.0,0.0,0.0,0.0,0.0,0.0,0.0,0.0,0.0,-0.7243,-0.8212,-0.8849,-0.9633,-0.9846,0.0,0.0,0.0,0.0,0.0,0.0,-1.3269,-1.4284,-1.5314,-1.6337,-1.7069,-1.8005,-1.9167,-1.9299,-1.9524,-1.9869,-1.9973,-1.9851,-1.9566,-1.9866,-1.978,-1.9424,-1.9726,-1.9815,-1.9636,-1.7765,-1.6338,-1.5275,-1.4507,-1.3799,-1.3258,-1.3635,-1.3646,-1.3646,-1.4864,-1.5094,-1.4818,-1.468,-1.4411,-1.3942,-1.2794,0.0,0.0,0.0,0.0,-1.4311,-1.5649,-1.6459,-1.7255,-1.8541,-1.8936,-1.8989,-1.8865,-1.8794,-1.7809,-1.4683,-1.3985,-1.345,-1.2048,0.0,0.0,0.0,0.0,-1.4392,-1.395,-1.4878,-1.55,-1.5228,-1.477,-1.4399,-1.4223,-1.3894,-1.3492,-1.2926,-1.2438,-1.1979,-1.1588,-1.03,-0.9524,-0.9328,0.0,0.0,0.0,0.0,0.0,0.0,0.0,0.0,0.0,0.0,0.0,0.0,0.0,0.0,0.0,0.0,0.0,0.0,0.0,0.0,0.0,0.0,0.0,0.0,0.0,0.0,0.0,0.0,0.0,-1.1638,-1.3182,0.0,0.0,0.0,0.0,-1.4222,-1.45,-1.5275,-1.6663,-1.7163,-1.7982,-1.9248,-1.9948,-2.0353,-2.0501,-2.0564,-2.0444,-2.0083,-2.0083,-2.0045,-1.997,-1.9988,-1.9988,-1.9955,-1.9988,-1.9988,-1.9909,-1.8976,-1.8203,-1.758,-1.6892,-1.6247,-1.5739,-1.6031,-1.6473,-1.6991,-1.732,-1.7422,-1.7511,-1.8058,-1.7408,-1.6431,-1.6433,-1.5842,0.0,0.0,-1.6507,-1.7598,-1.7813,-1.8553,-1.931,-1.9654,-1.9536,-1.9435,-1.9687,-1.9522,-1.8938,-1.7539,-1.661,-1.6014,-1.5913,0.0,-1.4977,-1.4919,-1.5584,-1.6075,-1.6043,-1.638,-1.6617,-1.66,-1.6572,-1.6288,-1.5655,-1.5281,-1.4836,-1.4238,-1.3351,-1.2849,-1.281,-1.1467,-1.0393,-0.9686,-0.8252,0.0,0.0,0.0,0.0,0.0,0.0,0.0,0.0,0.0,0.0,0.0,0.0,0.0,0.0,0.0,0.0,0.0,0.0,0.0,0.0,0.0,0.0,0.0,0.0,0.0,0.0,0.0,0.0,-1.3941,-1.5023,0.0,-1.4563,-1.5288,-1.5994,-1.6459,-1.7483,-1.8262,-1.8656,-1.9181,-1.9893,-2.0829,-2.1078,-2.1546,-2.2282,-2.2383,-2.2382,-2.2212,-2.2265,-2.2281,-2.2246,-2.1982,-2.1838,-2.1768,-2.1029,-2.0926,-2.1235,-2.0479,-1.9756,-1.9054,-1.8782,-1.8522,-1.8325,-1.8157,-1.8241,-1.8403,-1.8233,-1.8176,-1.8204,-1.843,-1.8185,-1.7838,-1.7899,-1.7799,-1.7687,-1.7827,-1.835,-1.8877,-1.9102,-1.9294,-1.9523,-2.001,-1.9889,-1.9747,-2.0048,-2.0045,-1.9838,-1.9387,-1.8429,-1.7531,-1.7122,-1.6986,-1.6753,-1.6184,-1.7119,-1.7831,-1.7695,-1.778,-1.7856,-1.7856,-1.7323,-1.6701,-1.6074,-1.5521,-1.4941,-1.4341,-1.3375,-1.2842,-1.2842,-1.1646,-1.0867,-1.0608,-0.9267,-0.8202,0.0,0.0,0.0,0.0,0.0,0.0,0.0,0.0,0.0,0.0,0.0,0.0,0.0,0.0,0.0,0.0,0.0,0.0,0.0,0.0,0.0,0.0,0.0,0.0,0.0,0.0,-1.4977,-1.5546,-1.6789,-1.7354,-1.6683,-1.7669,-1.8512,-1.8895,-2.012,-2.0828,-2.0687,-2.1212,-2.1784,-2.2399,-2.2258,-2.2517,-2.3262,-2.3205,-2.3117,-2.3028,-2.3065,-2.3101,-2.3101,-2.2814,-2.2648,-2.2521,-2.1775,-2.1667,-2.1987,-2.1489,-2.0978,-2.053,-2.0441,-2.025,-2.0015,-1.9737,-1.9497,-1.9254,-1.9011,-1.8903,-1.8903,-1.8921,-1.894,-1.8959,-1.9049,-1.9128,-1.9188,-1.9273,-1.9417,-1.9581,-1.9752,-1.9747,-1.9812,-2.02,-2.0133,-2.003,-2.0252,-2.0304,-2.0304,-2.0304,-1.9574,-1.8793,-1.8348,-1.8423,-1.8355,-1.7773,-1.8513,-1.9084,-1.8959,-1.8765,-1.8621,-1.8621,-1.7993,-1.733,-1.6718,-1.6086,-1.5442,-1.4806,-1.3747,-1.3164,-1.3164,-1.1944,-1.1268,-1.1268,-0.9939,-0.8837,-0.8024,0.0,0.0,0.0,0.0,0.0,0.0,0.0,0.0,0.0,0.0,0.0,0.0,0.0,0.0,0.0,0.0,0.0,0.0,0.0,0.0,0.0,0.0,0.0,-1.4098,-1.5412,-1.6428,-1.6506,-1.859,-1.9611,-1.8579,-2.0162,-2.1341,-2.1541,-2.237,-2.2845,-2.2829,-2.326,-2.3653,-2.3984,-2.3583,-2.3376,-2.3479,-2.3052,-2.2686,-2.2442,-2.2442,-2.2442,-2.2442,-2.2404,-2.2332,-2.2202,-2.2148,-2.2148,-2.216,-2.1931,-2.1927,-2.2035,-2.1857,-2.1368,-2.0718,-2.0718,-2.0318,-1.9768,-1.9768,-1.9768,-1.9768,-1.9855,-1.9873,-1.9876,-2.0015,-1.9911,-1.9738,-1.9756,-1.978,-1.9823,-1.9823,-2.0065,-2.0304,-2.0304,-2.0304,-2.0304,-2.0304,-2.0304,-2.0304,-2.0304,-2.0048,-1.9823,-1.9823,-1.9823,-1.9823,-1.9823,-1.9823,0.0,-1.9823,-1.9314,-1.8936,-1.8936,-1.8697,-1.8284,-1.7679,-1.706,-1.641,-1.5747,-1.4555,-1.3882,-1.391,-1.243,-1.1613,-1.16,-1.0243,-0.8904,-0.7585,0.0,0.0,0.0,0.0,0.0,0.0,0.0,0.0,0.0,0.0,0.0,0.0,0.0,0.0,0.0,0.0,0.0,0.0,0.0,0.0,0.0,-1.417,-1.5768,-1.5813,-1.7182,-1.846,-1.9198,-1.9936,-2.0374,-2.0432,-2.1519,-2.2309,-2.2497,-2.3395,-2.3749,-2.3258,-2.3369,-2.3588,-2.3909,-2.4087,-2.4544,-2.5351,-2.5508,-2.556,-2.549,-2.549,-2.549,-2.5456,-2.4883,-2.4604,-2.4515,-2.3429,-2.3222,-2.357,-2.299,-2.2965,-2.3205,-2.2134,-2.1595,-2.1425,-2.1425,-2.1306,-2.1141,-2.1141,-2.1141,-2.1141,-2.116,-2.1195,-2.1199,-2.139,-2.1061,-2.0667,-2.0813,-2.0515,-2.0168,-2.0168,-2.022,-2.0304,-2.0304,-2.0304,-2.0304,-2.0304,-2.0304,-2.0304,-2.0304,-2.022,-2.0168,-2.0168,-2.0168,-2.0168,-2.0168,-2.0168,0.0,-2.0168,-2.0028,-1.9922,-1.9922,-1.9453,-1.8924,-1.8302,-1.7295,-1.641,-1.5747,-1.4148,-1.3431,-1.3882,-1.2606,-1.1794,-1.16,-1.103,-1.0361,0.0,0.0,0.0,0.0,0.0,0.0,0.0,0.0,0.0,0.0,0.0,0.0,0.0,0.0,0.0,0.0,0.0,0.0,0.0,0.0,0.0,0.0,-1.6123,-1.7541,-1.7842,-1.8693,-1.9585,-2.0398,-2.0781,-2.1224,-2.1761,-2.2653,-2.3208,-2.3321,-2.429,-2.4661,-2.4094,-2.451,-2.4873,-2.5071,-2.5141,-2.5462,-2.6087,-2.6158,-2.6342,-2.6658,-2.6658,-2.6658,-2.664,-2.6183,-2.5775,-2.5411,-2.455,-2.4295,-2.4395,-2.3917,-2.383,-2.3885,0.0,0.0,0.0,0.0,-2.1695,-2.1695,-2.1695,-2.1695,-2.1695,-2.1695,-2.1695,-2.1714,-2.1838,-2.1624,-2.1364,-2.1534,-2.1317,-2.1003,-2.078,-2.0718,-2.0641,-2.0366,-2.0304,-2.0304,-2.0304,-2.0304,-2.0304,-2.0304,-2.0304,0.0,-2.0304,-2.0304,-2.0304,-2.0304,-2.0304,-2.0304,-2.0304,-2.0185,-2.0083,-2.0083,-1.9548,-1.9049,-1.8702,-1.768,0.0,0.0,0.0,-1.3685,-1.353,-1.2813,0.0,0.0,0.0,0.0,0.0,0.0,0.0,0.0,-0.9889,-1.0106,0.0,0.0,0.0,0.0,0.0,0.0,0.0,0.0,0.0,0.0,0.0,0.0,0.0,0.0,0.0,0.0,-1.8129,-1.9446,-1.9881,-2.0068,-2.0299,-2.0722,-2.1458,-2.2176,-2.2766,-2.3652,-2.4149,-2.4034,-2.5045,-2.548,-2.5091,0.0,0.0,0.0,0.0,-2.622,-2.622,-2.6012,-2.6222,-2.6876,-2.6737,-2.6665,-2.6649,-2.649,-2.607,-2.5442,-2.54,-2.5195,-2.493,-2.4792,-2.4534,-2.421,-2.3912,-2.3387,-2.2733,-2.2128,-2.1904,-2.1904,-2.1904,0.0,0.0,-2.1904,-2.1904,-2.1919,-2.1924,-2.1944,-2.1967,-2.2081,-2.2121,-2.2018,-2.1547,-2.1411,-2.1242,-2.0564,-2.0412,-2.0397,-2.032,-2.0304,-2.0304,-2.0304,-2.0304,-2.0304,-2.0304,-2.0304,-2.0304,-2.0304,-2.0304,-2.0304,-2.0304,-2.0048,-1.9874,-1.9874,-1.935,0.0,-1.8993,-1.8204,-1.7456,-1.687,-1.5682,-1.4499,-1.3347,-1.3389,-1.3389,-1.3319,-1.3333,-1.322,-1.2951,-1.3873,-1.4047,-1.3478,-1.2378,-1.2303,0.0,0.0,0.0,0.0,0.0,0.0,0.0,0.0,0.0,0.0,0.0,0.0,0.0,0.0,0.0,-1.7244,-1.9475,-2.1042,-2.0877,-2.1641,-2.2124,-2.1851,-2.2833,-2.3556,-2.3589,-2.4628,-2.5145,-2.4812,-2.5543,-2.5836,-2.5422,-2.5607,-2.5596,-2.5256,-2.6391,-2.6982,-2.6982,-2.7871,-2.8385,-2.852,-2.7551,0.0,-2.705,-2.5815,-2.5429,-2.5781,-2.5347,-2.5389,-2.5756,-2.5614,-2.5138,-2.4477,-2.3986,-2.3642,-2.34,-2.3281,-2.3236,-2.3236,-2.3236,-2.3236,-2.3236,-2.3236,-2.3236,-2.3257,-2.3363,-2.3105,0.0,-2.2868,-2.2585,-2.2236,-2.2132,-2.212,-2.1951,-2.1257,-2.1103,-2.0949,-2.0428,-2.0304,-2.0304,-2.0304,-2.0304,-2.0304,-2.0304,-2.0304,-2.0304,-2.0304,-2.0304,-2.0304,-2.0304,-2.0252,-2.0202,-2.0202,-1.9856,-1.9627,-1.9627,-1.8827,-1.8167,-1.7756,-1.6859,-1.5988,-1.52,-1.5693,-1.5738,-1.5186,-1.5382,-1.5362,-1.5091,-1.551,-1.5811,-1.5992,-1.5065,-1.4568,0.0,0.0,0.0,0.0,0.0,0.0,0.0,0.0,0.0,0.0,0.0,-1.4932,-1.6164,0.0,-1.8796,-1.9921,-2.1303,-2.2185,-2.1983,-2.293,-2.3355,-2.2547,-2.3512,-2.4295,-2.4397,-2.5296,-2.5764,-2.5574,-2.5889,-2.6016,-2.5817,-2.6343,-2.6559,-2.6358,-2.7267,-2.7758,-2.7758,-2.8122,-2.8486,-2.8834,-2.8237,-2.7958,-2.7921,-2.7147,-2.6778,-2.6737,-2.6088,-2.5863,-2.5926,-2.5604,-2.5379,-2.5259,-2.4927,-2.4319,-2.3595,-2.3595,-2.3595,-2.3595,-2.3595,-2.3595,-2.3595,-2.3595,-2.3595,-2.3595,-2.3674,-2.3513,-2.332,-2.3409,-2.3264,-2.299,-2.2729,-2.2677,-2.2532,-2.1857,-2.1759,-2.1612,-2.0949,-2.0795,-2.0687,-2.0366,-2.0304,-2.0304,-2.0304,-2.0304,-2.0304,-2.0304,-2.0304,-2.0304,-2.0304,-2.0304,-2.0304,-2.0304,-2.0013,-1.9806,-1.9806,-1.8847,-1.8175,-1.8,-1.7175,-1.6554,-1.6213,-1.6508,-1.6536,-1.6213,-1.6319,-1.6333,-1.6199,-1.6639,-1.6963,-1.7155,-1.7013,-1.669,0.0,0.0,0.0,0.0,0.0,0.0,0.0,0.0,-1.3882,-1.524,-1.6354,-1.7556,-1.9066,-2.0137,-2.1194,-2.2444,-2.2907,-2.3074,-2.3017,-2.3916,-2.4269,-2.3417,-2.4197,-2.4929,-2.5191,-2.5739,-2.6104,-2.6104,-2.6016,-2.6046,-2.616,-2.6974,-2.7501,-2.7633,-2.8119,-2.8379,-2.8379,-2.8131,-2.8343,-2.8898,-2.879,-2.8682,-2.8581,-2.8452,-2.8078,-2.7492,-2.6987,-2.6551,-2.619,-2.5623,-2.569,-2.6083,-2.5861,-2.5047,-2.3969,-2.3849,-2.3789,-2.3789,-2.3655,-2.3595,-2.3595,-2.3595,-2.3595,-2.3595,-2.3595,-2.3616,-2.3674,-2.376,-2.3818,-2.374,-2.3294,-2.3244,-2.3137,-2.243,-2.2394,-2.2301,-2.1624,-2.1362,-2.1134,-2.0613,-2.0397,-2.0304,-2.0304,-2.0304,-2.0304,-2.0304,-2.0304,-2.0304,-2.0304,-2.0304,-2.0304,-2.0304,-2.0065,-1.9909,-1.9909,-1.8951,-1.8353,-1.8353,-1.7584,-1.7118,-1.7118,-1.7078,-1.7042,-1.7042,-1.7042,-1.7042,-1.7042,-1.7534,-1.7773,-1.7801,-1.8259,-1.8231,-1.04,-1.1439,-1.2775,-1.412,-1.4256,-1.4848,0.0,0.0,-1.7645,-1.9806,-2.0632,-2.1257,-2.2144,-2.242,-2.2602,-2.2835,-2.3391,-2.3802,-2.3784,-2.4407,-2.4939,-2.5164,-2.5635,-2.5936,-2.5971,-2.6054,-2.6104,-2.6104,-2.5762,-2.5835,-2.6413,-2.6246,-2.6416,-2.7084,-2.8114,-2.8653,-2.8653,-2.9243,-2.9599,-2.968,-2.9054,-2.8555,-2.8148,-2.755,-2.7278,-2.7249,-2.7533,-2.7552,-2.7359,-2.6699,-2.6456,-2.6471,-2.5863,-2.5525,-2.5315,-2.4709,-2.4485,-2.4395,-2.3819,-2.3595,-2.3595,-2.3595,-2.3595,-2.3595,-2.3595,-2.3674,-2.3782,-2.3797,-2.3882,-2.3967,-2.3912,-2.3981,-2.3891,-2.3102,-2.3055,-2.2974,-2.2187,-2.1645,-2.1273,-2.1196,-2.0703,-2.0304,-2.0304,-2.0304,-2.0304,-2.0304,-2.0304,-2.0304,-2.0304,-2.0304,-2.0304,-2.0304,-2.027,-2.0252,-2.0252,-1.9849,-1.9594,-1.9594,-1.899,-1.8659,-1.8659,-1.8441,-1.8301,-1.8301,-1.8301,-1.8301,-1.8301,-1.8372,-1.84,-1.84,-1.847,-1.8456,-1.4411,-1.4911,0.0,0.0,-1.7182,-1.7739,-1.9131,-1.9549,-2.0005,-2.1311,-2.1951,-2.2462,-2.2956,-2.3258,-2.365,0.0,-2.4442,-2.4652,-2.5104,-2.5215,-2.5244,-2.5224,-2.5535,-2.5762,-2.5762,-2.5762,-2.5762,-2.5762,-2.5738,-2.5954,-2.646,-2.7162,-2.7672,-2.7993,-2.86,-2.8924,-2.8924,-2.897,-2.899,-2.899,-2.8707,-2.8473,-2.8264,-2.7968,-2.7659,-2.7325,-2.7498,-2.7548,-2.7446,-2.7013,-2.7061,-2.7378,-2.693,-2.6752,-2.6632,-2.5561,-2.5173,-2.5128,-2.4866,-2.4522,-2.4171,-2.4171,-2.3924,-2.3595,-2.3595,-2.3653,-2.3674,-2.3674,-2.3717,-2.376,-2.376,-2.3861,-2.3885,-2.3534,-2.3578,-2.3498,-2.2787,-2.2485,-2.2221,-2.1838,-2.128,-2.0872,-2.0872,-2.0549,-2.0304,-2.0304,-2.0304,-2.0304,-2.0304,-2.0304,-2.022,-2.003,-2.0013,-1.9942,-1.9795,-1.9475,-1.9277,-1.9277,-1.8879,-1.8678,-1.8678,-1.8556,-1.8498,-1.8498,-1.8498,-1.8498,-1.8498,-1.838,-1.84,-1.8498,-1.8262,-1.8282,-1.6764,0.0,0.0,-1.8736,-1.9656,-2.0269,-2.0269,-2.0874,-2.1612,-2.2232,-2.2757,-2.3158,-2.3367,-2.3899,-2.454,-2.5144,-2.5128,-2.5313,-2.5998,-2.5762,-2.5438,-2.5322,-2.5415,-2.5503,-2.5503,-2.5408,-2.5451,-2.5759,-2.5847,-2.6186,-2.6892,-2.7822,-2.8435,-2.8604,-2.8798,-2.8998,-2.9163,-2.8852,-2.8781,-2.8965,-2.9049,-2.9024,-2.8901,-2.8642,-2.8241,-2.7767,-2.7559,-2.7444,-2.7444,-2.7252,-2.7442,-2.788,-2.7675,-2.76,-2.748,-2.6497,-2.6033,-2.5854,-2.5674,-2.5277,-2.4874,-2.4874,-2.441,-2.3879,-2.3879,-2.3744,-2.3595,-2.3595,-2.3595,-2.3595,-2.3595,-2.3696,-2.3797,-2.3739,-2.3882,-2.3846,-2.3339,-2.3143,-2.2934,-2.2426,-2.1877,-2.1427,-2.1243,-2.0799,-2.0433,-2.0268,-2.0252,-2.027,-2.0304,-2.0304,-2.0202,-1.9962,-1.9945,-1.9836,-1.9527,-1.9291,-1.9124,-1.9045,-1.8774,-1.86,-1.86,-1.8537,-1.8498,-1.8498,-1.8498,-1.8498,-1.8498,-1.8361,-1.8361,-1.8498,-1.8202,-1.8222,0.0,0.0,-1.9528,-2.0028,-2.1182,-2.2205,-2.2205,-2.224,-2.244,-2.3132,-2.3592,-2.3863,-2.3875,-2.474,-2.5243,-2.4634,-2.5068,-2.5633,-2.6034,-2.5762,-2.5635,-2.6019,-2.5728,-2.5503,-2.5503,-2.5141,-2.5349,-2.6396,-2.6118,-2.6504,-2.7892,-2.7627,-2.7735,-2.8398,-2.842,-2.8744,-2.9366,-2.9381,-2.9694,-3.034,-3.0678,-3.0586,-3.0112,-2.9197,-2.8766,-2.8705,-2.7931,-2.7595,-2.7595,-2.7595,-2.7595,-2.7625,-2.76,-2.76,-2.76,-2.754,-2.7136,-2.6467,-2.5839,-2.56,-2.5561,-2.5561,-2.5113,-2.4575,-2.4575,-2.4133,-2.3595,-2.3595,-2.3595,-2.3595,-2.3595,-2.3696,-2.376,-2.3653,-2.3818,-2.3946,-2.3809,-2.3374,-2.3001,-2.2985,-2.2439,-2.177,-2.1132,-2.0995,-2.0771,-2.019,-2.01,-2.015,-2.0287,-2.0304,-2.0304,-2.0287,-2.0287,-2.015,-1.9821,-1.977,-1.966,-1.9395,-1.9064,-1.8893,-1.8893,-1.8639,-1.8498,-1.8498,-1.8498,-1.8498,-1.8498,-1.8498,-1.8498,-1.8498,-1.8498,-1.8498,0.0,0.0,-2.0236,-2.132,-2.2267,-2.2963,-2.2963,-2.3503,-2.3889,-2.3392,-2.3623,-2.3677,-2.2973,-2.3311,-2.3884,-2.4401,-2.4644,-2.5078,-2.5968,-2.6134,-2.5878,-2.5065,-2.567,0.0,-2.449,0.0,0.0,-2.6045,-2.6172,-2.6634,-2.755,-2.7882,-2.8317,-2.8903,-2.8934,-2.922,-2.979,-2.9805,-2.9911,-3.014,-3.0241,-3.0215,-3.0072,-2.9739,-2.9607,-2.9576,-2.8843,-2.853,-2.85,-2.7946,-2.774,-2.7715,-2.7625,-2.76,-2.76,-2.76,-2.7465,-2.7225,-2.7016,-2.6632,-2.6258,-2.6258,-2.5809,-2.5173,-2.4739,-2.444,-2.4156,-2.3729,-2.3595,-2.3595,-2.3595,-2.3616,-2.3674,-2.3595,-2.3674,-2.3717,-2.3674,-2.3595,-2.3528,-2.3528,-2.3061,-2.2606,-2.2378,-2.1948,-2.1436,-2.0786,-2.0424,-2.0252,-2.0287,-2.0304,-2.0148,-1.9759,-1.9854,-1.9678,-1.8993,-1.9105,-1.9087,-1.8812,-1.8581,-1.8503,-1.862,-1.8288,-1.8163,-1.8301,-1.8163,-1.8103,-1.8103,-1.7915,-1.7915,-1.8089,-1.7774,-1.7794,-1.9718,-2.057,-2.1252,-2.2552,-2.3383,-2.392,-2.4061,-2.4416,-2.4528,-2.3852,-2.3592,-2.3232,-2.23,-2.26,-2.3261,-2.4032,-2.4413,-2.5059,-2.6282,-2.6474,-2.627,-2.5659,-2.6233,-2.6282,0.0,0.0,0.0,-2.5993,-2.6445,-2.7057,-2.7929,-2.8388,-2.8874,-2.948,-2.9485,-2.9779,-3.0357,-3.0357,-3.0452,-3.064,-3.064,-3.0613,-3.0543,-3.0286,-3.0181,-3.0135,-2.9501,-2.9078,-2.8822,-2.8308,-2.7926,-2.7715,-2.7625,-2.76,-2.76,-2.76,-2.76,-2.76,-2.76,-2.7315,-2.6971,-2.6971,-2.6497,-2.5884,-2.5442,-2.4978,-2.4515,-2.4066,-2.3789,-2.3595,-2.3595,-2.3595,-2.3595,-2.3595,-2.3595,-2.3595,-2.3595,-2.3674,-2.3739,-2.3739,-2.345,-2.3151,-2.2939,-2.2354,-2.1784,-2.1345,-2.1069,-2.0737,-2.0297,-2.022,-2.0098,-1.9759,-1.9782,-1.9533,-1.8889,-1.8874,-1.876,-1.842,-1.8282,-1.8242,-1.8282,-1.8043,-1.7963,-1.8083,-1.7963,-1.7902,-1.7902,-1.7727,-1.7727,-1.7882,-1.7584,-1.7604,-1.9864,-2.1108,-2.26,-2.3711,-2.4432,-2.4965,-2.536,-2.4881,-2.4344,-2.4249,-2.3431,-2.2479,-2.1724,0.0,-2.3269,-2.337,-2.4262,-2.5439,-2.6891,-2.6762,-2.6816,0.0,0.0,0.0,0.0,0.0,0.0,-2.6359,0.0,-2.7786,-2.8991,-2.9052,-2.9371,-3.0038,-3.0054,-3.0372,-3.104,-3.1028,-3.1291,-3.1784,-3.1784,-3.167,-3.1481,-3.0823,-3.0552,-3.0522,-2.9909,-2.9307,-2.8697,-2.8667,-2.8248,-2.7645,-2.7645,-2.763,-2.76,-2.76,-2.76,-2.76,-2.76,-2.76,-2.76,-2.76,-2.718,-2.6632,-2.6602,-2.5719,-2.4709,-2.4664,-2.4156,-2.3655,-2.3655,-2.3625,-2.3595,-2.3595,-2.3595,-2.3595,-2.3595,-2.3595,-2.3595,-2.3595,-2.3595,-2.3415,-2.2838,-2.2219,-2.1809,-2.1809,-2.1857,-2.1489,-2.0294,-2.0144,-2.0179,-2.0252,-1.9962,-1.966,-1.9376,-1.9064,-1.8683,-1.8242,-1.8183,-1.8083,-1.7922,-1.7882,-1.7862,-1.7882,-1.7862,-1.7862,-1.7862,-1.7862,-1.7862,-1.7862,-1.7862,-1.7862,-2.2331,-2.2921,-2.3375,-2.4766,-2.4776,-2.4494,-2.4652,-2.4303,-2.3578,-2.2276,-2.1644,-2.0778,-1.8995,0.0,0.0,-2.1921,-2.3227,0.0,-2.6897,-2.6997,0.0,-2.7222,0.0,-2.8122,-2.7531,-2.835,0.0,0.0,-2.8222,-2.8587,-2.9674,-2.9933,-3.0265,-3.0721,-3.0752,-3.1016,-3.1585,-3.1443,-3.1432,-3.1568,-3.1568,-3.1539,-3.1496,-3.1316,-3.1241,-3.1212,-3.0552,-3.0178,-2.9983,-2.952,-2.8936,-2.8338,-2.8338,-2.8049,-2.76,-2.76,-2.76,-2.76,-2.76,-2.76,-2.76,-2.76,-2.748,-2.7255,-2.6761,-2.6363,-2.5989,-2.5495,-2.4859,-2.435,-2.435,-2.3962,-2.3595,-2.3595,-2.3595,-2.3595,-2.3595,-2.3595,-2.3595,-2.3595,-2.3595,-2.355,-2.3385,-2.2528,-2.1869,-2.1869,-2.1173,-2.0683,-2.0766,-2.0771,-2.05,-1.9789,-1.9588,-1.9295,-1.8784,-1.8572,-1.8378,-1.8222,-1.7875,-1.7814,-1.8103,-1.7645,-1.7447,-1.7591,-1.7447,-1.7378,-1.7378,-1.7378,-1.7378,-1.7378,-1.7378,-1.7378,-2.3273,-2.3701,-2.3986,-2.5003,-2.4681,-2.4112,-2.4017,-2.3354,-2.2287,-2.0694,-1.987,0.0,-1.7474,-1.8629,0.0,0.0,0.0,0.0,-2.6566,-2.6935,-2.7411,0.0,-2.8904,0.0,-2.9273,-2.9746,-3.0037,0.0,-2.9444,-2.9469,-3.0319,-3.0418,-3.0667,-3.1209,-3.1212,-3.1364,-3.167,-3.1568,-3.1511,-3.1511,-3.1511,-3.1511,-3.1511,-3.1511,-3.1511,-3.1481,-3.1092,-3.0776,-3.0477,-3.0133,-2.9609,-2.9026,-2.9026,-2.8622,-2.8049,-2.8049,-2.7854,-2.76,-2.76,-2.76,-2.76,-2.76,-2.76,-2.7525,-2.7151,-2.6811,-2.6512,-2.6138,-2.557,-2.4963,-2.4679,-2.4321,-2.3947,-2.367,-2.3595,-2.3595,-2.3595,-2.3595,-2.3595,-2.3595,-2.3595,-2.353,-2.3334,-2.2761,-2.2264,-2.2006,-2.1439,-2.1053,-2.1082,-2.0651,-2.0151,-1.9603,-1.916,-1.8789,-1.8442,-1.824,-1.8055,-1.7895,-1.7652,-1.7591,-1.7754,-1.7406,-1.7261,-1.7372,-1.7261,-1.7199,-1.7199,-1.7199,-1.7199,-1.7199,-1.7199,-1.7342,-2.3458,-2.3896,-2.4405,-2.4863,-2.44,-2.3745,-2.343,-2.2216,-2.077,-1.9306,0.0,-1.7239,-1.6553,-1.7757,-1.9179,-2.0094,0.0,-2.4229,-2.6156,-2.6725,-2.7842,-3.0283,-2.9972,-3.0133,-3.1501,-3.1019,-3.075,-3.1113,-3.0573,-3.0443,-3.0865,-3.0754,-3.0968,-3.1509,-3.1539,-3.1539,-3.1511,-3.1511,-3.1511,-3.1511,-3.1511,-3.1511,-3.1511,-3.1511,-3.1511,-3.1511,-3.1511,-3.1167,-3.0642,-3.0642,-3.0268,-2.9726,-2.9726,-2.925,-2.8607,-2.8607,-2.8173,-2.76,-2.76,-2.76,-2.76,-2.76,-2.76,-2.76,-2.76,-2.7195,-2.6722,-2.6722,-2.6243,-2.5615,-2.5008,-2.4739,-2.4455,-2.3879,-2.367,-2.3595,-2.3595,-2.3595,-2.3595,-2.3595,-2.3595,-2.3443,-2.2979,-2.2844,-2.2603,-2.2095,-2.1941,-2.1727,-2.1204,-2.0315,-1.9708,-1.9677,-1.8949,-1.8434,-1.8351,-1.8078,-1.7787,-1.7529,-1.7475,-1.7393,-1.7261,-1.722,-1.7199,-1.7199,-1.7199,-1.7238,-1.7316,-1.7316,-1.7356,-1.7421,-1.7421,-1.7708,-2.4233,-2.446,-2.4472,-2.5218,-2.44,-2.3257,-2.273,-2.1295,0.0,0.0,-1.6733,-1.583,-1.5098,-1.6148,-1.765,-1.923,0.0,0.0,0.0,0.0,-2.7325,0.0,0.0,0.0,0.0,0.0,0.0,0.0,-3.1611,-3.1454,-3.1389,-3.1617,-3.1734,-3.1756,-3.1756,-3.167,-3.1511,-3.1511,-3.1511,-3.1511,-3.1511,-3.1511,-3.1511,-3.1511,-3.1511,-3.1511,-3.1511,-3.1436,-3.1331,-3.1331,-3.0928,-3.0342,-3.0342,-2.9624,-2.8607,-2.8607,-2.8173,-2.76,-2.76,-2.76,-2.76,-2.76,-2.76,-2.76,-2.76,-2.7525,-2.742,-2.742,-2.6941,-2.6393,-2.6273,-2.5435,-2.4575,-2.4455,-2.4014,-2.3595,-2.3595,-2.3595,-2.3595,-2.3595,-2.3595,-2.3443,-2.2979,-2.2535,-2.2072,-2.1589,-2.1191,-2.0908,-2.0801,-2.0859,-2.0701,-2.0147,-1.9657,-1.9173,-1.8664,-1.8283,-1.7893,-1.7522,-1.7344,-1.7323,-1.7434,-1.7303,-1.7199,-1.7199,-1.7199,-1.7447,-1.7944,-1.7944,-1.8166,-1.861,-1.861,-1.8662,-2.4273,-2.4694,-2.4817,-2.4858,-2.408,-2.2937,-2.161,0.0,0.0,0.0,0.0,-1.4174,-1.343,0.0,0.0,0.0,0.0,0.0,0.0,0.0,0.0,0.0,0.0,0.0,0.0,0.0,0.0,-3.1898,-3.1856,-3.1756,-3.167,-3.1712,-3.1712,-3.167,-3.1641,-3.1597,-3.1511,-3.1511,-3.1511,-3.1511,-3.1511,-3.1511,-3.1511,-3.1511,-3.1511,-3.1511,-3.1511,-3.1511,-3.1511,-3.1511,-3.1316,-3.1017,-3.1017,-3.0447,-2.9549,-2.9235,-2.8682,-2.8079,-2.772,-2.76,-2.76,-2.76,-2.76,-2.76,-2.76,-2.76,-2.76,-2.76,-2.736,-2.7046,-2.6701,-2.6123,-2.5555,-2.5187,-2.4605,-2.4007,-2.3684,-2.3595,-2.3595,-2.3595,-2.3399,-2.3091,-2.2581,-2.2072,-2.1565,-2.1106,-2.0848,-2.0699,-2.0699,-2.0842,-2.0701,-2.0057,-1.9552,-1.911,-1.8817,-1.864,-1.8432,-1.8253,-1.8131,-1.8131,-1.8205,-1.8131,-1.8087,-1.8087,-1.8087,-1.8231,-1.8519,-1.8519,-1.8649,-1.8911,-1.8911,-1.9081,-2.3902,-2.4594,-2.4958,-2.442,-2.3686,-2.2594,-2.0736,-1.8577,0.0,0.0,-1.3544,-1.2856,-1.2403,0.0,0.0,0.0,0.0,0.0,0.0,0.0,0.0,0.0,0.0,0.0,0.0,0.0,0.0,-3.1756,-3.1727,-3.1727,-3.1727,-3.1597,-3.1511,-3.1511,-3.1511,-3.1511,-3.1511,-3.1511,-3.1511,-3.1511,-3.1511,-3.1511,-3.1511,-3.1511,-3.1511,-3.1511,-3.1511,-3.1511,-3.1511,-3.1511,-3.1511,-3.1511,-3.1511,-3.1077,-3.0447,-2.9968,-2.928,-2.8517,-2.8004,-2.772,-2.76,-2.76,-2.76,-2.76,-2.76,-2.76,-2.7575,-2.7433,-2.7408,-2.7303,-2.6758,-2.6505,-2.6238,-2.556,-2.501,-2.4445,-2.3807,-2.3563,-2.3459,-2.3459,-2.3067,-2.2558,-2.2049,-2.1636,-2.1229,-2.0774,-2.0699,-2.0699,-2.0699,-2.0699,-2.0504,-2.0035,-1.9564,-1.9224,-1.9107,-1.9094,-1.9041,-1.8911,-1.8911,-1.8911,-1.8911,-1.8911,-1.8911,-1.8911,-1.8911,-1.8963,-1.9094,-1.9094,-1.9159,-1.9277,-1.9277,-1.9538,-2.3209,-2.3887,-2.4379,-2.4317,-2.3332,-2.2028,-2.061,0.0,0.0,-1.4498,-1.3175,-1.2451,-1.2923,-1.3236,0.0,0.0,0.0,-1.9008,0.0,0.0,0.0,0.0,0.0,0.0,0.0,0.0,0.0,-3.1539,-3.1539,-3.1539,-3.1539,-3.1511,-3.1511,-3.1511,-3.1511,-3.1511,-3.1511,-3.1511,-3.1511,-3.1511,-3.1511,-3.1511,-3.1511,-3.1511,-3.1511,-3.1511,-3.1511,-3.1511,-3.1511,-3.1511,-3.1511,-3.1511,-3.1511,-3.1077,-3.0492,-3.0432,-2.9654,-2.8592,-2.8532,-2.8124,-2.76,-2.76,-2.76,-2.76,-2.76,-2.76,-2.7499,-2.6945,-2.6788,-2.6774,-2.6715,-2.625,-2.5625,-2.4936,-2.4747,-2.4529,-2.3992,-2.3452,-2.3054,-2.3054,-2.2578,-2.2025,-2.1554,-2.1423,-2.1229,-2.0774,-2.0699,-2.0699,-2.0699,-2.0699,-2.0686,-2.0633,-2.0581,-2.0308,-1.976,-1.9721,-1.9486,-1.8937,-1.8911,-1.8911,-1.8911,-1.8911,-1.8911,-1.8911,-1.8911,-1.9172,-1.9721,-1.9721,-1.9982,-2.0517,-2.0517,-2.0543,-2.2902,-2.3794,-2.4189,-2.3764,-2.3262,-2.2332,-2.0095,0.0,-1.5824,-1.4483,-1.3106,-1.2199,-1.2395,-1.2809,-1.3678,-1.5288,-1.6017,-1.7363,-2.021,0.0,0.0,0.0,0.0,0.0,0.0,0.0,-3.1597,-3.1511,-3.1511,-3.1511,-3.1511,-3.1511,-3.1511,-3.1511,-3.1511,-3.1511,-3.1511,-3.1511,-3.1511,-3.1511,-3.1511,-3.1511,-3.1511,-3.1511,-3.1511,-3.1511,-3.1511,-3.1511,-3.1511,-3.1511,-3.1511,-3.1511,-3.1511,-3.1331,-3.1047,-3.0657,-3.0178,-2.9639,-2.8861,-2.8427,-2.8154,-2.7735,-2.76,-2.76,-2.76,-2.76,-2.7549,-2.7306,-2.6997,-2.6709,-2.6709,-2.623,-2.5609,-2.4984,-2.4827,-2.4651,-2.403,-2.3699,-2.3431,-2.3077,-2.2568,-2.2051,-2.1477,-2.118,-2.0923,-2.0724,-2.0699,-2.0699,-2.0699,-2.0699,-2.0699,-2.0699,-2.0699,-2.0607,-2.036,-2.0334,-2.0242,-1.9993,-1.998,-1.998,-1.998,-1.998,-1.998,-1.998,-1.998,-2.0098,-2.0334,-2.0334,-2.0465,-2.0699,-2.0699,-2.0699,-2.2118,-2.3174,-2.3589,-2.3049,-2.2793,-2.1983,0.0,-1.741,-1.5735,-1.4185,-1.293,-1.208,-1.2012,-1.2414,-1.3164,-1.4375,-1.5011,-1.6276,-1.8951,0.0,0.0,0.0,0.0,0.0,0.0,-3.1267,-3.1511,-3.1511,-3.1511,-3.1511,-3.1511,-3.1511,-3.1511,-3.1511,-3.1511,-3.1511,-3.1511,-3.1511,-3.1511,-3.1511,-3.1511,-3.1511,-3.1511,-3.1511,-3.1511,-3.1511,-3.1511,-3.1511,-3.1511,-3.1511,-3.1511,-3.1511,-3.1511,-3.1511,-3.1451,-3.0957,-3.0672,-3.0372,-2.9475,-2.9041,-2.8786,-2.8124,-2.7899,-2.7869,-2.766,-2.7473,-2.7306,-2.7111,-2.6642,-2.619,-2.619,-2.5987,-2.5657,-2.5076,-2.4938,-2.4746,-2.4105,-2.3819,-2.3585,-2.3132,-2.2536,-2.1931,-2.1515,-2.1029,-2.0699,-2.0699,-2.0699,-2.0699,-2.0699,-2.0699,-2.0699,-2.0699,-2.0699,-2.0699,-2.0699,-2.0699,-2.0699,-2.0699,-2.0699,-2.0699,-2.0699,-2.0699,-2.0699,-2.0699,-2.0699,-2.0699,-2.0699,-2.0699,-2.0699,-2.0699,-2.0699,-2.0699,-2.0703,-2.1704,-2.2298,-2.2237,-2.1644,-2.0587,0.0,-1.7014,-1.553,-1.3524,-1.2575,-1.208,-1.2012,-1.2017,-1.2413,-1.3613,-1.4479,-1.5865,-1.8362,0.0,0.0,0.0,0.0,0.0,0.0,-3.036,-3.1511,-3.1511,-3.1511,0.0,-3.1511,-3.1511,-3.1511,-3.1511,-3.1511,-3.1511,-3.1511,-3.1511,-3.1511,-3.1511,-3.1511,-3.1511,-3.1511,-3.1511,-3.1511,-3.1511,-3.1511,-3.1511,-3.1511,-3.1511,-3.1511,-3.1511,-3.1511,-3.1511,-3.1511,-3.1496,-3.1062,-3.0507,-3.0492,-3.0088,-2.9487,-2.8801,-2.8592,-2.8472,-2.7809,-2.7178,-2.659,-2.5987,-2.5425,-2.5033,-2.5033,-2.5398,-2.566,-2.5132,-2.4991,-2.4821,-2.4245,-2.3629,-2.321,-2.3197,-2.2283,-2.1511,-2.1498,-2.1053,-2.0699,-2.0699,-2.0699,-2.0699,-2.0699,-2.0699,-2.0699,-2.0699,-2.0699,-2.0699,-2.0699,-2.0699,-2.0699,-2.0699,-2.0699,-2.0699,-2.0699,-2.0699,-2.0699,-2.0699,-2.0699,-2.0699,-2.0699,-2.0699,-2.0699,-2.0699,-2.0699,-2.0699,-1.8033,-1.8861,-1.9243,-1.8703,-1.878,-1.8445,-1.6364,-1.5646,-1.4964,-1.3359,-1.2506,-1.2012,-1.1933,-1.1923,-1.2494,-1.4212,-1.4743,-1.5644,0.0,0.0,0.0,0.0,0.0,0.0,0.0,0.0,-3.1511,-3.1511,-3.1511,-3.1511,-3.1511,-3.1511,-3.1511,-3.1511,-3.1511,-3.1511,-3.1511,-3.1511,-3.1511,-3.1511,-3.1511,-3.1511,-3.1511,-3.1511,-3.1511,-3.1511,-3.1511,-3.1511,-3.1511,-3.1511,-3.1511,-3.1511,-3.1511,-3.1511,-3.1511,-3.1511,-3.1376,-3.105,-3.0131,-2.968,-2.936,-2.8268,-2.7639,-2.7266,-2.7051,-2.7135,-2.7086,-2.6081,-2.5687,-2.537,-2.4578,-2.452,-2.4607,-2.4419,-2.4361,-2.4345,-2.4141,-2.3939,-2.3678,-2.3274,-2.2923,-2.2557,-2.2192,-2.1969,-2.1852,-2.1851,-2.1511,-2.1237,-2.1237,-2.0923,-2.0699,-2.0699,-2.0699,-2.0699,-2.0699,-2.0699,-2.0699,-2.0699,-2.0699,-2.0699,-2.0699,-2.0699,-2.0699,-2.0699,-2.0699,-2.0699,-2.0699,-2.0699,-2.0699,-2.0699,-2.0699,-2.0699,0.0,-1.6819,-1.703,-1.6622,-1.6879,-1.6728,-1.4893,-1.4567,-1.425,-1.2875,-1.2258,-1.1959,-1.1902,-1.2091,-1.2719,-1.4182,-1.4883,0.0,0.0,0.0,0.0,0.0,0.0,0.0,0.0,-3.1212,-3.1511,-3.1511,-3.1511,-3.1511,-3.1511,-3.1511,-3.1511,-3.1511,-3.1511,-3.1511,-3.1511,-3.1511,-3.1511,-3.1511,-3.1511,-3.1511,-3.1511,-3.1511,-3.1511,-3.1511,-3.1511,-3.1511,0.0,-3.1511,-3.1511,-3.1511,-3.1511,-3.1511,-3.1511,-3.1511,-3.1511,-3.1349,-3.0251,-2.987,-2.9666,-2.8372,-2.7534,-2.6988,-2.6778,-2.6659,-2.6416,-2.5439,-2.5175,-2.5006,-2.4274,-2.4083,-2.4083,-2.4083,-2.4083,-2.4083,-2.4083,-2.4083,-2.3979,-2.36,-2.3367,-2.3106,-2.274,-2.2532,-2.2401,-2.24,-2.2086,-2.1851,-2.1838,-2.1354,-2.1001,-2.1001,-2.0805,-2.0699,-2.0699,-2.0699,-2.0699,-2.0699,-2.0699,-2.0699,-2.0699,-2.0699,-2.0699,-2.0699,-2.0699,-2.0699,-2.0699,-2.0699,-2.0699,-2.0712,-2.0909,-2.1001,0.0,-1.5254,-1.5443,-1.5571,-1.5643,-1.5328,-1.3972,-1.3743,0.0,-1.2162,-1.1891,-1.1921,-1.2026,-1.2449,-1.3074,-1.3944,-1.5125,0.0,0.0,0.0,0.0,0.0,0.0,0.0,-2.9654,-3.0821,-3.1511,-3.1511,-3.1511,-3.1511,-3.1511,-3.1511,-3.1511,-3.1511,-3.1511,-3.1511,-3.1511,-3.1511,-3.1511,-3.1511,-3.1511,-3.1511,-3.1511,-3.1511,-3.1511,-3.1511,-3.1511,-3.1511,-3.1511,-3.1511,-3.1511,-3.1511,-3.1511,-3.1511,-3.1511,-3.1511,-3.1511,-3.1409,-3.0748,-3.0464,-3.0198,-2.8818,-2.7987,-2.7429,-2.6817,-2.5936,-2.4974,-2.4345,-2.4171,-2.4141,-2.4112,-2.4083,-2.4083,-2.4083,-2.4083,-2.4083,-2.4083,-2.4083,-2.4083,-2.4083,-2.3639,-2.3248,-2.3248,-2.2831,-2.2519,-2.2531,-2.2492,-2.2452,-2.2453,-2.1917,-2.1564,-2.1564,-2.1119,-2.083,-2.083,-2.0751,-2.0699,-2.0699,-2.0699,-2.0699,-2.0699,-2.0699,-2.0699,-2.0699,-2.0699,-2.0725,-2.0764,-2.0764,-2.0791,-2.0818,-2.1328,-2.1577,-1.0611,0.0,-1.2594,-1.2721,-1.3142,-1.3307,0.0,-1.2719,-1.2885,0.0,0.0,-1.2196,-1.3175,-1.3044,-1.3673,-1.6353,0.0,0.0,0.0,0.0,0.0,0.0,0.0,-3.0883,-3.1032,-3.1316,-3.1511,-3.1511,-3.1511,-3.1511,-3.1511,-3.1511,-3.1511,-3.1511,-3.1511,-3.1511,-3.1511,-3.1511,-3.1511,-3.1511,-3.1511,-3.1511,-3.1511,-3.1511,-3.1511,-3.1511,-3.1511,-3.1511,-3.1511,-3.1511,-3.1511,-3.1511,-3.1511,-3.1511,-3.1511,-3.1511,-3.1511,-3.1409,-3.0748,-3.0178,-2.9437,-2.7669,-2.7035,-2.6791,-2.6206,-2.6161,-2.609,-2.507,-2.4778,-2.4677,-2.4229,-2.4083,-2.4083,-2.4083,-2.4083,-2.4083,-2.4083,-2.4083,-2.4083,-2.4083,-2.4008,-2.3903,-2.3903,-2.3785,-2.3707,-2.372,-2.33,-2.3027,-2.3014,-2.2545,-2.2192,-2.2192,-2.2087,-2.1982,-2.1995,-2.121,-2.0699,-2.0699,-2.0699,-2.0699,-2.0699,-2.0699,-2.0699,-2.0699,-2.0699,-2.0896,-2.1302,-2.1302,-2.1551,-2.1995,-2.2139,-2.2178,-0.9043,-1.0492,-1.171,-1.2151,-1.2619,-1.2893,-1.2528,0.0,0.0,0.0,0.0,0.0,-1.3615,0.0,0.0,0.0,0.0,0.0,0.0,0.0,0.0,0.0,0.0,-3.1511,0.0,-3.1511,-3.1511,-3.1511,-3.1511,-3.1511,-3.1511,-3.1511,-3.1511,-3.1511,-3.1511,-3.1511,-3.1511,-3.1511,-3.1511,-3.1511,-3.1511,-3.1511,-3.1511,-3.1511,-3.1511,-3.1511,-3.1511,-3.1511,-3.1511,-3.1511,-3.1511,-3.1467,-3.1161,-3.1029,-3.0999,-3.0703,-3.0584,-3.0494,-2.9811,-2.9142,-2.84,-2.7419,-2.7066,-2.6961,-2.6386,-2.6436,-2.6467,-2.5306,-2.4791,-2.4505,-2.4171,-2.4083,-2.4083,-2.4083,-2.4083,-2.4083,-2.4083,-2.4083,-2.4083,-2.4083,-2.4083,-2.4083,-2.4083,-2.4083,-2.4083,-2.4083,-2.3809,-2.36,-2.36,-2.3119,-2.2781,-2.2781,-2.2544,-2.24,-2.2414,-2.1825,-2.1485,-2.1485,-2.1485,-2.1485,-2.1485,-2.1472,-2.1472,-2.1485,-2.1485,-2.1616,-2.1904,-2.1917,-2.2086,-2.2427,-2.2635,-2.2766,-0.8782,-1.0412,-1.1831,-1.2565,-1.3101,-1.3418,-1.3303,0.0,0.0,0.0,0.0,0.0,0.0,0.0,0.0,0.0,0.0,0.0,0.0,0.0,0.0,0.0,-3.1077,0.0,-3.1511,-3.1511,-3.1511,-3.1511,-3.1511,-3.1511,-3.1511,-3.1511,-3.1511,-3.1511,-3.1511,-3.1511,-3.1511,-3.1511,-3.1511,-3.1511,-3.1511,-3.1511,-3.1511,-3.1511,-3.1511,-3.1511,-3.138,-3.1351,-3.1351,-3.1248,-3.119,-3.1161,-3.0584,-3.0359,-3.0269,-2.969,-2.9504,-2.938,-2.8712,-2.8124,-2.7656,-2.7523,-2.749,-2.7411,-2.6948,-2.6771,-2.6497,-2.5528,-2.4753,-2.423,-2.4109,-2.4083,-2.4083,-2.4083,-2.4083,-2.4083,-2.4083,-2.4083,-2.4083,-2.4083,-2.4083,-2.4083,-2.4083,-2.4083,-2.4083,-2.4083,-2.4083,-2.4083,-2.4083,-2.3639,-2.3354,-2.3354,-2.2921,-2.2675,-2.2675,-2.2648,-2.2622,-2.2567,-2.2465,-2.2401,-2.2401,-2.2387,-2.2387,-2.2388,-2.2388,-2.2427,-2.2519,-2.2463,-2.2447,-2.2553,-2.302,-2.3241,-0.9522,-1.1005,-1.2015,-1.2377,-1.351,-1.4403,-1.384,0.0,0.0,0.0,0.0,0.0,0.0,0.0,0.0,0.0,0.0,0.0,0.0,0.0,0.0,-3.0402,0.0,-3.1511,-3.1511,-3.1511,-3.1511,-3.1511,-3.1511,-3.1511,-3.1511,-3.1511,-3.1511,-3.1511,-3.1511,-3.1511,-3.1511,-3.1511,-3.1511,-3.1511,-3.1511,-3.1511,-3.1511,-3.1511,-3.1511,-3.1467,-3.0896,-3.0644,-3.0614,-3.0042,-2.9827,-2.9797,-2.969,-2.9659,-2.9628,-2.9535,-2.9504,-2.938,-2.8712,-2.8417,-2.8254,-2.7689,-2.749,-2.7477,-2.7385,-2.7053,-2.6667,-2.6497,-2.5685,-2.4756,-2.4243,-2.4083,-2.4083,-2.4083,-2.4083,-2.4083,-2.4083,-2.4083,-2.4083,-2.4083,-2.4083,-2.4083,-2.4083,-2.4083,-2.4083,-2.4083,-2.4083,-2.4083,-2.4083,-2.4005,-2.3952,-2.3952,-2.3903,-2.3822,-2.3822,-2.3851,-2.3677,-2.3255,-2.2713,-2.24,-2.24,-2.2414,-2.2388,-2.2388,-2.2388,-2.2624,-2.3093,-2.2686,-2.2754,-2.3255,-2.3314,-2.3382,-0.8917,-1.0606,-1.2116,-1.3032,-1.45,-1.5698,-1.5593,0.0,0.0,0.0,0.0,0.0,0.0,0.0,0.0,0.0,0.0,0.0,-2.8364,-2.9217,-2.9953,0.0,0.0,-3.1511,-3.1511,-3.1511,-3.1511,-3.1511,-3.1511,-3.1511,-3.1511,-3.1511,-3.1511,-3.1511,-3.1511,-3.1511,-3.1511,-3.1511,-3.1511,-3.1511,-3.1511,-3.1511,-3.1511,-3.1117,-3.097,-3.0925,-3.0238,-2.995,-2.995,-2.9628,-2.9504,-2.9473,-2.9111,-2.8967,-2.8935,-2.8551,-2.8422,-2.8371,-2.8059,-2.7973,-2.7908,-2.759,-2.749,-2.749,-2.749,-2.734,-2.7066,-2.6798,-2.5882,-2.4896,-2.4515,-2.4216,-2.3979,-2.3979,-2.3979,-2.4008,-2.4083,-2.4083,-2.4083,-2.4008,-2.3979,-2.3979,-2.3979,-2.3979,-2.4037,-2.4083,-2.4083,-2.4083,-2.4083,-2.4083,-2.4054,-2.4008,-2.3979,-2.3949,-2.3848,-2.3484,-2.3305,-2.3403,-2.2837,-2.2504,-2.2504,-2.2789,-2.2805,-2.2508,-2.3034,-2.3332,-2.3318,-2.3085,-2.3137,-2.3403,-2.3095,-2.2871,-0.8615,-1.0199,-1.1909,-1.3838,0.0,-1.6633,-1.7316,0.0,0.0,0.0,0.0,0.0,0.0,0.0,0.0,0.0,0.0,-2.7066,-2.9292,-2.9849,-3.0417,-3.1391,-3.1511,-3.1511,-3.1511,-3.1511,-3.1511,-3.1511,-3.1511,-3.1511,-3.1511,-3.1511,-3.1511,-3.1511,-3.1511,-3.1511,-3.1511,-3.1511,-3.1511,-3.1511,-3.1511,-3.1511,-3.1467,-3.097,-3.0644,-3.045,-2.9797,-2.9411,-2.9268,-2.9111,-2.9048,-2.8985,-2.8468,-2.8254,-2.8189,-2.7689,-2.749,-2.749,-2.749,-2.749,-2.749,-2.7469,-2.7469,-2.749,-2.7469,-2.7503,-2.7398,-2.7,-2.6151,-2.5266,-2.4957,-2.4456,-2.4025,-2.4025,-2.3922,-2.3861,-2.4037,-2.4067,-2.4037,-2.392,-2.3891,-2.3891,-2.3832,-2.3832,-2.3891,-2.4037,-2.4067,-2.4067,-2.4083,-2.4054,-2.4008,-2.392,-2.3861,-2.376,-2.3628,-2.2889,-2.2616,-2.3017,-2.2525,-2.2255,-2.2347,-2.275,-2.2811,-2.25,-2.3352,-2.3586,-2.3198,-2.3198,-2.318,-2.3047,-2.2616,-2.2267,-0.9582,-1.0298,-1.1176,-1.4392,-1.5762,0.0,-1.824,-1.8551,0.0,-2.0075,0.0,0.0,0.0,0.0,0.0,0.0,-2.7141,-2.8667,-2.9502,0.0,-3.1406,-3.1496,-3.1511,-3.1511,-3.1511,-3.1511,-3.1511,-3.1511,-3.1511,-3.1511,-3.1511,-3.1511,-3.1511,-3.1511,-3.1511,-3.1511,-3.1511,-3.1511,-3.1511,-3.1511,-3.1511,-3.1511,-3.1511,-3.1438,-3.1087,-3.045,-2.9797,-2.9142,-2.85,-2.7908,-2.7656,-2.7656,-2.759,-2.7556,-2.7556,-2.7523,-2.749,-2.749,-2.749,-2.749,-2.7503,-2.7335,-2.7403,-2.7503,-2.7335,-2.7403,-2.749,-2.7438,-2.6895,-2.6181,-2.5593,-2.4913,-2.4367,-2.4367,-2.3983,-2.37,-2.3861,-2.392,-2.392,-2.3891,-2.3891,-2.3832,-2.3658,-2.3628,-2.3688,-2.3891,-2.392,-2.3949,-2.4083,-2.3979,-2.392,-2.3891,-2.373,-2.3628,-2.3599,-2.2598,-2.197,-2.2002,-2.1396,-2.1239,-2.1647,-2.171,-2.1865,-2.2144,-2.264,-2.2834,-2.2665,-2.2665,-2.2421,-2.2002,-2.197,-2.1753,-0.8824,-1.0038,-1.148,-1.409,-1.5423,0.0,0.0,-1.9616,-2.0528,-2.17,-2.2164,0.0,0.0,0.0,0.0,-2.6004,-2.7904,-2.943,-3.0058,-3.0913,-3.1511,-3.1511,-3.1511,-3.1511,-3.1511,-3.1511,-3.1511,-3.1511,-3.1511,-3.1511,-3.1511,-3.1511,-3.1511,-3.1511,-3.1511,-3.1511,-3.1511,-3.1511,-3.1278,-3.0866,-3.0866,-3.0866,-3.0866,-3.045,-2.9903,-2.9251,-2.8998,-2.85,-2.7842,-2.759,-2.749,-2.749,-2.749,-2.749,-2.749,-2.749,-2.749,-2.749,-2.749,-2.7469,-2.7369,-2.7302,-2.7235,-2.718,-2.7113,-2.7146,-2.718,-2.718,-2.6912,-2.6483,-2.6051,-2.5358,-2.4779,-2.4779,-2.4347,-2.4002,-2.4197,-2.4047,-2.3832,-2.3624,-2.3671,-2.3671,-2.3509,-2.348,-2.3522,-2.3688,-2.3717,-2.373,-2.3776,-2.3747,-2.3671,-2.3582,-2.342,-2.2944,-2.2125,-2.1659,-2.106,-2.0226,-2.0323,-2.0484,-2.0666,-2.0985,-2.108,-2.0858,-2.1624,-2.1885,-2.1542,-2.1542,-2.1447,-2.127,-2.0921,-2.0613,-0.8625,-1.0011,-1.1676,-1.3716,0.0,0.0,-1.9066,-2.0549,-2.1808,-2.3306,-2.3631,0.0,0.0,0.0,0.0,0.0,-2.8438,-2.9804,-3.0417,-3.1077,-3.1511,-3.1511,-3.1511,-3.1511,-3.1511,-3.1511,-3.1511,-3.1511,-3.1511,-3.1511,-3.1511,-3.1307,-3.119,-3.119,-3.097,-3.0866,-3.0866,-3.0866,-3.0644,-3.0178,-2.9964,-2.9995,-3.0178,-2.969,-2.9142,-2.8514,-2.8514,-2.8137,-2.749,-2.749,-2.749,-2.749,-2.749,-2.749,-2.749,-2.749,-2.749,-2.749,-2.749,-2.7403,-2.7302,-2.7248,-2.7113,-2.699,-2.6909,-2.6943,-2.699,-2.699,-2.6875,-2.6637,-2.6437,-2.577,-2.5189,-2.5189,-2.4772,-2.4431,-2.4556,-2.4277,-2.391,-2.3699,-2.3577,-2.348,-2.333,-2.33,-2.336,-2.3509,-2.3539,-2.3539,-2.3599,-2.3569,-2.348,-2.333,-2.3168,-2.2628,-2.1502,-2.1219,-2.0613,-1.9495,-1.9649,-1.9781,-1.9781,-2.0128,-2.0226,-1.9944,-2.0762,-2.1005,-2.0634,-2.0826,-2.0826,-2.0634,-2.0258,-1.9911,-0.9329,-1.0349,-1.1646,0.0,0.0,0.0,-1.9851,-2.1348,-2.2688,-2.5103,0.0,-2.5615,-2.5615,0.0,0.0,-2.7375,-2.8723,-2.9804,-3.0417,-3.1062,-3.1511,-3.1511,-3.1511,-3.1511,-3.1511,-3.1511,-3.1511,-3.1511,-3.1511,-3.1511,-3.1467,-3.0866,-3.0494,-3.0494,-2.9858,-2.9504,-2.9504,-2.9504,-2.9504,-2.9473,-2.8807,-2.8839,-2.9473,-2.9473,-2.9111,-2.8481,-2.8514,-2.8137,-2.749,-2.749,-2.749,-2.749,-2.749,-2.749,-2.749,-2.749,-2.749,-2.749,-2.749,-2.7403,-2.7268,-2.7045,-2.699,-2.6943,-2.676,-2.6841,-2.699,-2.699,-2.6841,-2.6679,-2.6679,-2.616,-2.5598,-2.5598,-2.5209,-2.4852,-2.4981,-2.4602,-2.4209,-2.4196,-2.3783,-2.3343,-2.3138,-2.3108,-2.3168,-2.3373,-2.3403,-2.3463,-2.3569,-2.348,-2.333,-2.3108,-2.3108,-2.2811,-2.2144,-2.1491,-2.0805,-2.0128,-1.9452,-1.9108,-1.9108,-1.9108,-1.9274,-1.9572,-2.0053,-2.0204,-2.0107,-2.0634,-2.0602,-2.0107,-2.0107,-1.9911,-0.9423,-1.0926,0.0,0.0,0.0,0.0,0.0,-2.2271,0.0,0.0,-2.6006,-2.6153,-2.5689,0.0,0.0,-2.6811,-2.8423,-2.9666,-2.9846,-3.0821,-3.1511,-3.1511,-3.1511,-3.1511,-3.1511,-3.1511,-3.1307,-3.0837,-3.1219,-3.1087,-3.0133,-3.0359,-3.0269,-2.9827,-2.9597,-2.9504,-2.9504,-2.9504,-2.9268,-2.8776,-2.861,-2.8597,-2.8807,-2.8807,-2.8436,-2.7809,-2.8287,-2.8137,-2.749,-2.749,-2.749,-2.749,-2.749,-2.749,-2.749,-2.749,-2.749,-2.749,-2.749,-2.7302,-2.7079,-2.7024,-2.6841,-2.6636,-2.6602,-2.6589,-2.6636,-2.6636,-2.6602,-2.6555,-2.6555,-2.6395,-2.6235,-2.6235,-2.5774,-2.536,-2.5426,-2.5062,-2.4602,-2.4161,-2.4008,-2.3768,-2.3201,-2.3108,-2.3108,-2.3168,-2.3198,-2.3198,-2.3228,-2.3198,-2.3168,-2.3108,-2.3108,-2.2628,-2.1491,-2.1219,-2.0613,-1.9452,-1.9198,-1.9108,-1.9108,-1.9108,-1.9142,-1.9241,-1.9386,-1.9452,-1.9396,-1.9551,-1.9551,-1.9396,-1.9396,-1.933,-1.0638,0.0,0.0,0.0,0.0,0.0,0.0,0.0,0.0,0.0,0.0,-2.6557,-2.6422,-2.6497,0.0,-2.7305,-2.8397,-2.928,-2.9577,-3.0477,-3.1092,-3.1092,-3.1331,-3.1511,-3.1511,-3.1248,-3.1058,-3.0896,-3.1029,-3.0866,-3.0329,-3.0178,-2.9919,-2.9504,-2.8985,-2.8698,-2.8698,-2.8698,-2.8487,-2.8105,-2.8105,-2.8105,-2.8105,-2.8105,-2.7875,-2.7523,-2.7941,-2.7875,-2.749,-2.749,-2.749,-2.749,-2.749,-2.749,-2.749,-2.749,-2.7469,-2.7436,-2.7436,-2.7167,-2.6875,-2.6875,-2.6705,-2.6499,-2.6499,-2.6499,-2.6499,-2.6499,-2.6499,-2.6499,-2.6499,-2.6499,-2.6499,-2.6499,-2.6223,-2.5971,-2.5971,-2.5577,-2.5118,-2.4695,-2.4343,-2.3971,-2.354,-2.3258,-2.3108,-2.3108,-2.2884,-2.2598,-2.2353,-2.2322,-2.2322,-2.2322,-2.2322,-2.1877,-2.0805,-2.0709,-2.0226,-1.9164,-1.9108,-1.9108,-1.9108,-1.9108,-1.9108,-1.9108,-1.9108,-1.9108,-1.9108,-1.9108,-1.9108,-1.9108,-1.9108,-1.9108,-1.2376,0.0,0.0,0.0,0.0,0.0,0.0,0.0,0.0,-2.739,0.0,-2.6881,-2.748,-2.7106,-2.7081,-2.8308,-2.8562,-2.8801,-2.94,-3.0028,-3.0447,-3.0492,-3.096,-3.1349,-3.1409,-3.0807,-3.0644,-3.1278,-3.0807,-3.0703,-3.119,-3.0133,-2.9442,-2.9317,-2.8143,-2.749,-2.749,-2.749,-2.749,-2.749,-2.749,-2.749,-2.749,-2.749,-2.749,-2.749,-2.749,-2.749,-2.749,-2.749,-2.749,-2.749,-2.749,-2.7503,-2.7503,-2.7469,-2.7369,-2.7268,-2.7268,-2.7032,-2.6679,-2.6679,-2.6624,-2.6499,-2.6499,-2.6499,-2.6499,-2.6499,-2.6499,-2.6499,-2.6499,-2.6499,-2.6499,-2.6499,-2.6499,-2.6499,-2.6499,-2.6084,-2.5661,-2.5598,-2.4743,-2.401,-2.391,-2.3399,-2.2976,-2.2927,-2.2402,-2.1803,-2.1187,-2.1092,-2.1092,-2.1092,-2.1092,-2.0837,-2.0161,-2.014,-1.9856,-1.9142,-1.9139,-1.915,-1.9108,-1.9108,-1.9108,-1.9108,-1.9108,-1.9108,-1.9108,-1.9108,-1.9108,-1.9108,-1.9108,-1.9108,0.0,-1.3722,0.0,0.0,0.0,0.0,0.0,0.0,0.0,-2.6849,-2.7176,-2.742,-2.757,-2.748,-2.748,-2.7764,-2.8248,-2.8652,-2.8786,-2.937,-2.9968,-3.0447,-3.0159,-3.0134,-3.0659,-3.0103,-2.9766,-2.9919,-3.0269,-3.0086,-2.9188,-2.9362,-2.9016,-2.796,-2.7656,-2.749,-2.749,-2.749,-2.749,-2.749,-2.749,-2.749,-2.749,-2.749,-2.749,-2.749,-2.749,-2.749,-2.749,-2.749,-2.749,-2.749,-2.7369,-2.7335,-2.7302,-2.718,-2.7079,-2.7045,-2.7045,-2.6897,-2.6679,-2.6679,-2.6624,-2.6499,-2.6499,-2.6499,-2.6499,-2.6499,-2.6499,-2.6499,-2.6499,-2.6499,-2.6499,-2.6499,-2.6499,-2.6499,-2.6499,-2.6399,-2.6172,-2.5686,-2.4945,-2.4162,-2.3344,-2.2579,-2.1938,-2.1592,-2.1408,-2.125,-2.1135,-2.1092,-2.1092,-2.1092,-2.1092,-2.0837,-2.0161,-2.0456,-2.0211,-1.9162,-1.944,-1.9482,-1.9119,-1.9108,-1.9108,-1.9108,-1.9108,-1.9108,-1.9108,-1.9108,-1.9108,-1.9108,-1.9108,-1.9108,0.0,0.0,0.0,0.0,0.0,0.0,0.0,0.0,0.0,-2.7001,-2.7152,-2.7255,-2.7549,-2.76,-2.76,-2.76,-2.7899,-2.8113,-2.8113,-2.8682,-2.914,-2.9165,-2.9125,-2.9247,-2.9585,-2.9021,-2.89,-2.9459,-2.9518,-2.9376,-2.8998,-2.903,-2.8712,-2.8006,-2.7656,-2.749,-2.749,-2.749,-2.749,-2.749,-2.749,-2.749,-2.749,-2.749,-2.749,-2.749,-2.749,-2.749,-2.749,-2.749,-2.7469,-2.7403,-2.7335,-2.7248,-2.7146,-2.7045,-2.6943,-2.6875,-2.6875,-2.676,-2.6589,-2.6589,-2.6555,-2.6499,-2.6499,-2.6499,-2.6499,-2.6499,-2.6499,-2.6499,-2.6499,-2.6499,-2.6499,-2.6499,-2.6499,-2.6499,-2.6499,-2.6499,-2.6411,-2.6097,-2.5212,-2.435,-2.3818,-2.2645,-2.1604,-2.1049,-2.077,-2.0606,-2.0479,-2.0478,-2.0566,-2.0729,-2.075,-2.0616,-2.0288,-2.0477,-2.0347,-1.9761,-1.9944,-1.9965,-1.9727,-1.9544,-1.9326,-1.9108,-1.9108,-1.9108,-1.9108,-1.9108,-1.9108,-1.9108,-1.9108,-1.9108,0.0,0.0,0.0,0.0,0.0,0.0,0.0,0.0,-2.5945,-2.7175,-2.7129,-2.7023,-2.7524,-2.76,-2.76,-2.76,-2.76,-2.756,-2.7473,-2.7925,-2.8101,-2.761,-2.7935,-2.824,-2.8348,-2.7876,-2.8011,-2.9104,-2.8753,-2.8744,-2.93,-2.8807,-2.8449,-2.832,-2.7776,-2.749,-2.749,-2.749,-2.749,-2.749,-2.749,-2.749,-2.7469,-2.749,-2.749,-2.749,-2.749,-2.749,-2.749,-2.7503,-2.7403,-2.7302,-2.7235,-2.71,-2.6956,-2.6909,-2.6807,-2.6692,-2.6692,-2.6589,-2.6499,-2.6499,-2.6499,-2.6499,-2.6499,-2.6499,-2.6499,-2.6499,-2.6499,-2.6499,-2.6499,-2.6499,-2.6499,-2.6499,-2.6499,-2.6499,-2.6499,-2.6499,-2.6499,-2.6499,-2.5294,-2.4232,-2.3955,-2.2593,-2.1364,-2.0747,-2.0333,-2.0026,-1.9851,-1.9927,-2.0114,-2.0354,-2.0385,-2.0385,-2.0385,-2.0457,-2.0478,-2.0395,-2.0467,-2.0467,-2.0395,-2.0069,-1.9689,-1.9233,-1.9139,-1.9108,-1.9108,-1.9108,-1.9108,-1.9108,-1.9108,-1.9108,0.0,0.0,0.0,0.0,0.0,0.0,0.0,0.0,-2.542,0.0,-2.7121,-2.7484,-2.76,-2.76,-2.76,-2.76,-2.76,-2.7408,-2.6878,-2.6887,-2.6949,-2.6918,-2.6493,-2.6421,-2.7007,-2.6916,-2.7136,-2.7884,-2.8279,-2.8546,-2.8629,-2.8546,-2.8222,-2.7656,-2.7556,-2.749,-2.749,-2.749,-2.749,-2.749,-2.749,-2.7436,-2.7335,-2.7469,-2.749,-2.749,-2.749,-2.749,-2.749,-2.7369,-2.7302,-2.7268,-2.693,-2.6748,-2.6726,-2.6589,-2.6568,-2.6521,-2.6521,-2.6499,-2.6499,-2.6499,-2.6499,-2.6499,-2.6499,-2.6499,-2.6499,-2.6499,-2.6499,-2.6499,-2.6499,-2.6499,-2.6499,-2.6499,-2.6499,-2.6499,-2.6499,-2.6499,-2.6499,-2.6499,-2.489,-2.3116,-2.1788,-2.1028,-2.0491,-2.017,-2.0042,-1.9997,-1.999,-2.041,-2.0648,-2.0441,-2.0385,-2.0385,-2.0385,-2.0757,-2.0819,-2.0416,-2.0767,-2.0808,-2.0405,-2.0333,-2.0131,-1.971,-1.9316,-1.9108,-1.9108,-1.9108,-1.9108,-1.9108,-1.9108,-1.9108,0.0,0.0,0.0,0.0,0.0,0.0,0.0,0.0,-2.462,-2.5463,-2.6125,-2.6745,-2.7475,-2.76,-2.76,-2.76,-2.7306,-2.6982,-2.6736,-2.6404,-2.61,-2.5813,-2.5543,-2.5457,-2.5765,-2.5766,-2.5993,-2.6591,-2.6857,-2.7136,-2.7468,-2.7482,-2.7478,-2.749,-2.749,-2.749,-2.749,-2.749,-2.749,-2.749,-2.7436,-2.7369,-2.7302,-2.7248,-2.7268,-2.7403,-2.7469,-2.749,-2.749,-2.7436,-2.7302,-2.7113,-2.6943,-2.676,-2.6589,-2.6521,-2.6499,-2.6499,-2.6499,-2.6499,-2.6499,-2.6499,-2.6499,-2.6499,-2.6499,-2.6499,-2.6499,-2.6499,-2.6499,-2.6499,-2.6499,-2.6499,-2.6499,-2.6499,-2.6499,-2.6349,-2.5746,-2.606,-2.6383,-2.5921,-2.4732,-2.3464,-2.2342,-2.1408,-2.0736,-2.0638,-2.04,-2.0327,-2.0586,-2.0855,-2.1062,-2.1186,-2.1197,-2.1197,-2.1197,-2.1383,-2.1414,-2.1207,-2.1393,-2.1414,-2.1207,-2.0912,-2.0721,-2.0524,-1.9855,-1.9357,-1.9108,-1.9108,-1.9108,-1.9108,-1.9367,-1.9492,0.0,0.0,0.0,0.0,0.0,0.0,0.0,0.0,-2.3516,0.0,-2.4993,-2.5787,-2.6753,-2.7159,-2.7408,-2.7575,-2.71,-2.6642,-2.6484,-2.596,-2.5398,-2.4835,-2.4778,-2.4751,-2.476,-2.4913,-2.5175,-2.5576,-2.5702,-2.6007,-2.6438,-2.6627,-2.687,-2.7301,-2.7425,-2.749,-2.749,-2.749,-2.749,-2.749,-2.7403,-2.7302,-2.7214,-2.7113,-2.7113,-2.7167,-2.7302,-2.7369,-2.7369,-2.7323,-2.7134,-2.6909,-2.6875,-2.6705,-2.6499,-2.6499,-2.6499,-2.6499,-2.6499,-2.6499,-2.6499,-2.6499,-2.6499,-2.6499,-2.6499,-2.6499,-2.6452,-2.6245,-2.6211,-2.6211,-2.6211,-2.606,-2.5943,-2.6129,-2.606,-2.5734,-2.5123,-2.5476,-2.5652,-2.4874,-2.4215,-2.3585,-2.2841,-2.1929,-2.129,-2.129,-2.1,-2.086,-2.1248,-2.129,-2.1424,-2.1766,-2.1807,-2.1807,-2.1807,-2.1807,-2.1807,-2.1807,-2.1807,-2.1807,-2.1807,-2.1476,-2.1238,-2.1114,-2.0452,-1.9917,-1.9417,-1.9417,-1.9417,-1.9461,-1.9803,-1.9969,0.0,0.0,0.0,0.0,0.0,0.0,0.0,0.0,0.0,-2.2971,-2.4148,-2.4966,-2.5034,-2.5974,-2.693,-2.7524,-2.71,-2.651,-2.5933,-2.537,-2.4806,-2.4229,-2.4141,-2.4154,-2.4164,-2.4648,-2.5005,-2.5044,-2.5511,-2.5806,-2.5845,-2.6386,-2.6719,-2.6745,-2.7249,-2.749,-2.749,-2.749,-2.749,-2.749,-2.749,-2.7302,-2.7024,-2.7214,-2.71,-2.676,-2.6943,-2.7024,-2.7011,-2.6829,-2.6714,-2.6679,-2.6602,-2.6533,-2.6499,-2.6499,-2.6499,-2.6499,-2.6499,-2.6499,-2.6499,-2.6499,-2.6499,-2.6499,-2.6499,-2.6499,-2.6349,-2.5594,-2.5382,-2.5382,-2.5382,-2.4791,-2.4409,-2.5194,-2.4779,-2.4409,-2.5123,-2.4707,-2.4022,-2.325,-2.3113,-2.2804,-2.1997,-2.1825,-2.1766,-2.1766,-2.1745,-2.1745,-2.1766,-2.1766,-2.1776,-2.1807,-2.1807,-2.1807,-2.1807,-2.1807,-2.1807,-2.1807,-2.1807,-2.1807,-2.1807,-2.1787,-2.1559,-2.1124,-2.1073,-2.0814,-2.0323,-2.0323,-2.0323,-2.0323,-2.0379,-2.0354,0.0,0.0,0.0,0.0,0.0,0.0,0.0,-1.9366,-2.0534,-2.1285,-2.232,-2.3145,-2.3276,-2.4526,-2.5748,-2.6279,-2.5616,-2.5105,-2.5259,-2.4778,-2.4345,-2.4112,-2.4083,-2.4083,-2.4083,-2.4308,-2.4426,-2.4426,-2.4609,-2.4883,-2.5262,-2.5502,-2.5777,-2.6112,-2.6674,-2.7157,-2.749,-2.749,-2.7469,-2.7369,-2.7248,-2.7045,-2.6794,-2.6794,-2.6692,-2.6602,-2.6636,-2.6807,-2.6977,-2.6909,-2.6829,-2.6679,-2.6658,-2.6589,-2.6499,-2.6499,-2.6499,-2.6499,-2.6499,-2.6499,-2.6499,-2.6499,-2.6499,-2.6499,-2.6499,-2.6499,-2.643,-2.6129,-2.5699,-2.5312,-2.5312,-2.4707,-2.4192,-2.4445,-2.3548,-2.2857,-2.3644,-2.395,-2.4011,-2.3768,-2.3313,-2.2964,-2.2841,-2.2252,-2.1807,-2.1807,-2.1807,-2.1807,-2.1807,-2.1807,-2.1807,-2.1807,-2.1807,-2.1807,-2.1807,-2.1807,-2.1807,-2.1807,-2.1807,-2.1807,-2.1807,-2.1807,-2.1725,-2.1559,-2.1559,-2.1186,-2.0385,-2.0385,-2.0385,-2.0395,-2.0695,-2.0829,-0.8258,0.0,0.0,0.0,0.0,0.0,-1.6955,0.0,-1.8841,-1.9771,-2.0826,-2.1596,-2.1735,-2.285,-2.403,-2.502,-2.4405,-2.4001,-2.4598,-2.4171,-2.3861,-2.4099,-2.4083,-2.4083,-2.4083,-2.4083,-2.4083,-2.4083,-2.4083,-2.4282,-2.4661,-2.4887,-2.5267,-2.5767,-2.6386,-2.6857,-2.7236,-2.7365,-2.7403,-2.7302,-2.7113,-2.6909,-2.6679,-2.6624,-2.6521,-2.6499,-2.6499,-2.6636,-2.6841,-2.6841,-2.6739,-2.6624,-2.6624,-2.6589,-2.6499,-2.6499,-2.6499,-2.6499,-2.6499,-2.6499,-2.6499,-2.6499,-2.6499,-2.6499,-2.6499,-2.6499,-2.6452,-2.6176,-2.5699,-2.5312,-2.5312,-2.4707,-2.3975,-2.3463,-2.2569,-2.1959,-2.2478,-2.2968,-2.3327,-2.3327,-2.2942,-2.2665,-2.2841,-2.2289,-2.1807,-2.1807,-2.1807,-2.1807,-2.1807,-2.1807,-2.1807,-2.1807,-2.1807,-2.1807,-2.1807,-2.1807,-2.1807,-2.1807,-2.1807,-2.1807,-2.1807,-2.1807,-2.1807,-2.1807,-2.1807,-2.1507,-2.085,-2.085,-2.085,-2.0897,-2.1207,-2.1342,0.0,0.0,0.0,0.0,0.0,0.0,-1.7016,0.0,-1.6794,-1.8479,-1.968,-2.0415,-2.0446,-2.0925,-2.1931,-2.3688,-2.3506,-2.3362,-2.396,-2.3534,-2.3378,-2.3995,-2.4044,-2.4057,-2.4057,-2.4083,-2.4083,-2.4083,-2.4083,-2.4083,-2.4083,-2.4635,-2.521,-2.5741,-2.6334,-2.6634,-2.6674,-2.707,-2.7255,-2.7268,-2.7079,-2.6875,-2.6679,-2.6679,-2.6624,-2.6499,-2.6499,-2.6499,-2.6499,-2.6499,-2.6499,-2.6499,-2.6499,-2.6499,-2.6499,-2.6499,-2.6499,-2.6499,-2.6499,-2.6499,-2.6499,-2.6499,-2.6499,-2.6499,-2.6499,-2.6499,-2.6349,-2.5558,-2.5312,-2.5276,-2.5229,-2.4636,-2.3683,-2.2166,-2.1807,-2.1807,-2.1807,-2.1807,-2.1807,-2.1807,-2.1807,-2.1807,-2.1807,-2.1807,-2.1807,-2.1807,-2.1807,-2.1807,-2.1807,-2.1807,-2.1807,-2.1807,-2.1807,-2.1807,-2.1807,-2.1807,-2.1807,-2.1807,-2.1807,-2.1807,-2.1807,-2.1807,-2.1807,-2.1807,-2.1807,-2.1807,-2.1807,-2.1807,-2.1807,-2.1807,-2.1807,-2.1807,-0.7471,0.0,0.0,0.0,0.0,0.0,0.0,0.0,-1.5021,-1.6728,-1.7598,-1.8316,-1.9171,-1.9808,-2.0355,-2.0898,-2.1542,-2.2168,-2.2789,-2.2732,-2.2688,-2.2859,-2.321,-2.3443,-2.3443,-2.3835,-2.4083,-2.4083,-2.4083,-2.4067,-2.3949,-2.399,-2.4266,-2.4834,-2.5032,-2.551,-2.6329,-2.6464,-2.6647,-2.6863,-2.6794,-2.6692,-2.6555,-2.6555,-2.6521,-2.6499,-2.6499,-2.6499,-2.6499,-2.6499,-2.6499,-2.6499,-2.6499,-2.6499,-2.6499,-2.6499,-2.6499,-2.6499,-2.6499,-2.6499,-2.6499,-2.6499,-2.6499,-2.6499,-2.6499,-2.6499,-2.6452,-2.6245,-2.5734,-2.5052,-2.3948,-2.346,-2.3054,-2.2025,-2.1807,-2.1807,-2.1807,-2.1807,-2.1807,-2.1807,-2.1807,-2.1807,-2.1807,-2.1807,-2.1807,-2.1807,-2.1807,-2.1807,-2.1807,-2.1807,-2.1807,-2.1807,-2.1807,-2.1807,-2.1807,-2.1807,-2.1807,-2.1807,-2.1807,-2.1807,-2.1807,-2.1807,-2.1807,-2.1807,-2.1807,-2.1807,-2.1807,-2.1807,-2.1807,-2.1807,-2.1807,-2.1807,0.0,0.0,0.0,0.0,0.0,0.0,-1.3003,-1.3399,-1.3888,0.0,-1.6612,-1.7357,-1.8053,-1.883,-1.9372,-1.9415,-2.0205,-2.1093,-2.1917,-2.2034,-2.2126,-2.2375,-2.2689,-2.2949,-2.3197,-2.3537,-2.3822,-2.407,-2.4083,-2.4037,-2.392,-2.37,-2.3769,-2.4102,-2.4364,-2.4813,-2.5493,-2.587,-2.6166,-2.6371,-2.6544,-2.6589,-2.6499,-2.6499,-2.6499,-2.6499,-2.6499,-2.6499,-2.6499,-2.6499,-2.6499,-2.6499,-2.6499,-2.6499,-2.6499,-2.6499,-2.6499,-2.6499,-2.6499,-2.6499,-2.6499,-2.6499,-2.6499,-2.6499,-2.6499,-2.6499,-2.6499,-2.6499,-2.6164,-2.5453,-2.3852,-2.3449,-2.3191,-2.2063,-2.1807,-2.1807,-2.1807,-2.1807,-2.1807,-2.1807,-2.1807,-2.1807,-2.1807,-2.1807,-2.1807,-2.1807,-2.1807,-2.1807,-2.1807,-2.1807,-2.1807,-2.1807,-2.1807,-2.1807,-2.1807,-2.1807,-2.1807,-2.1807,-2.1807,-2.1807,-2.1807,-2.1807,-2.1807,-2.1807,-2.1807,-2.1807,-2.1807,-2.1807,-2.1807,-2.1807,-2.1807,-2.1807,0.0,-0.9964,0.0,0.0,-1.1448,0.0,-1.4183,-1.3783,-1.322,0.0,-1.5899,-1.6669,-1.6852,-1.7726,-1.8435,-1.8575,-1.9097,-1.9919,-2.1146,-2.1381,-2.1616,-2.2152,-2.227,-2.2493,-2.2947,-2.3052,-2.3367,-2.3939,-2.4028,-2.3995,-2.3861,-2.3658,-2.3526,-2.3526,-2.4072,-2.4367,-2.443,-2.5268,-2.5762,-2.5856,-2.6227,-2.6436,-2.6499,-2.6499,-2.6499,-2.6499,-2.6499,-2.6499,-2.6499,-2.6499,-2.6499,-2.6499,-2.6499,-2.6499,-2.6499,-2.6499,-2.6499,-2.6499,-2.6499,-2.6499,-2.6499,-2.6499,-2.6499,-2.6499,-2.6499,-2.6499,-2.6499,-2.6499,-2.6499,-2.6129,-2.4516,-2.4108,-2.372,-2.2166,-2.1807,-2.1807,-2.1807,-2.1807,-2.1807,-2.1807,-2.1807,-2.1807,-2.1807,-2.1807,-2.1807,-2.1807,-2.1807,-2.1807,-2.1807,-2.1807,-2.1807,-2.1807,-2.1807,-2.1807,-2.1807,-2.1807,-2.1807,-2.1807,-2.1807,-2.1807,-2.1807,-2.1807,-2.1807,-2.1807,-2.1807,-2.1807,-2.1807,-2.1807,-2.1807,-2.1807,-2.1807,-2.1807,-1.0805,-1.1341,-1.2023,-1.1583,0.0,0.0,-1.1597,-1.2036,-1.2621,0.0,-1.2695,-1.329,-1.4699,-1.5124,-1.5576,-1.6499,-1.7195,-1.8217,-1.9904,-2.0556,-2.0883,-2.1014,-2.1407,-2.1721,-2.1838,-2.2256,-2.2794,-2.3313,-2.3577,-2.3688,-2.3658,-2.3378,-2.3198,-2.3198,-2.3299,-2.3619,-2.4085,-2.4268,-2.4809,-2.5665,-2.5745,-2.6047,-2.6499,-2.6499,-2.6499,-2.6499,-2.6499,-2.6499,-2.6499,-2.6499,-2.6499,-2.6499,-2.6499,-2.6499,-2.6499,-2.6499,-2.6499,-2.6499,-2.6499,-2.6499,-2.6499,-2.6499,-2.6499,-2.6499,-2.6499,-2.6499,-2.6499,-2.6499,-2.6499,-2.6129,-2.4516,-2.4108,-2.372,-2.2166,-2.1807,-2.1807,-2.1807,-2.1807,-2.1807,-2.1807,-2.1807,-2.1807,-2.1807,-2.1807,-2.1807,-2.1807,-2.1807,-2.1807,-2.1807,-2.1807,-2.1807,-2.1807,-2.1807,-2.1807,-2.1807,-2.1807,-2.1807,-2.1807,-2.1807,-2.1807,-2.1807,-2.1807,-2.1807,-2.1807,-2.1807,-2.1807,-2.1807,-2.1807,-2.1807,-2.1807,-2.1807,-2.1807,-1.204,-1.2256,-1.2629,-1.2359,0.0,0.0,0.0,-1.2316,-1.2538,-1.334,-1.3044,-1.3083,-1.4518,-1.4793,-1.5081,-1.5916,-1.6798,-1.7622,-1.8248,-1.9191,-1.981,-1.981,-2.0035,-2.044,-2.1053,-2.1316,-2.1758,-2.2533,-2.2971,-2.3176,-2.3102,-2.3106,-2.3108,-2.3108,-2.3108,-2.3246,-2.3534,-2.3853,-2.4268,-2.4808,-2.5335,-2.5749,-2.6072,-2.6361,-2.6499,-2.6499,-2.6499,-2.6499,-2.6499,-2.6499,-2.6499,-2.6499,-2.6499,-2.6499,-2.6499,-2.6499,-2.6499,-2.6499,-2.6499,-2.6499,-2.6499,-2.6499,-2.6499,-2.6499,-2.6499,-2.6499,-2.6499,-2.6499,-2.6499,-2.6233,-2.5004,-2.4409,-2.3793,-2.2692,-2.2111,-2.1807,-2.1807,-2.1807,-2.1807,-2.1807,-2.1807,-2.1807,-2.1807,-2.1807,-2.1807,-2.1807,-2.1807,-2.1807,-2.1807,-2.1807,-2.1807,-2.1807,-2.1807,-2.1807,-2.1807,-2.1807,-2.1807,-2.1807,-2.1807,-2.1807,-2.1807,-2.1807,-2.1807,-2.1807,-2.1807,-2.1807,-2.1807,-2.1807,-2.1807,-2.1807,-2.1807,-2.1807,0.0,0.0,0.0,0.0,0.0,-1.2734,0.0,0.0,0.0,-1.4374,-1.4027,0.0,0.0,0.0,0.0,-1.5382,0.0,0.0,0.0,-1.7355,0.0,-1.8679,-1.8823,-1.9277,-2.0255,-2.0248,-2.0578,-2.1594,-2.2039,-2.2352,-2.2582,-2.2837,-2.2995,-2.3108,-2.3108,-2.3108,-2.3108,-2.3572,-2.3891,-2.4004,-2.487,-2.5398,-2.5611,-2.6109,-2.6386,-2.6499,-2.6499,-2.6499,-2.6499,-2.6499,-2.6499,-2.6499,-2.6499,-2.6499,-2.6487,-2.6314,-2.628,-2.6245,-2.6094,-2.606,-2.606,-2.606,-2.606,-2.606,-2.606,-2.606,-2.606,-2.606,-2.606,-2.5873,-2.5052,-2.4396,-2.3694,-2.2953,-2.2289,-2.1807,-2.1807,-2.1807,-2.1807,-2.1807,-2.1807,-2.1807,-2.1807,-2.1807,-2.1807,-2.1807,-2.1807,-2.1807,-2.1807,-2.1807,-2.1807,-2.1807,-2.1807,-2.1807,-2.1807,-2.1807,-2.1807,-2.1807,-2.1807,-2.1807,-2.1807,-2.1807,-2.1807,-2.1807,-2.1807,-2.1807,-2.1807,-2.1807,-2.1807,-2.1807,-2.1807,-2.1807,0.0,0.0,0.0,0.0,-1.3637,0.0,0.0,0.0,-1.3795,-1.2987,0.0,0.0,0.0,0.0,0.0,0.0,0.0,0.0,-1.3943,-1.4857,-1.6228,-1.7817,-1.8529,-1.8963,-1.9094,-1.9037,-1.9413,-2.0438,-2.045,-2.106,-2.2518,-2.2472,-2.2606,-2.3083,-2.3108,-2.3108,-2.3108,-2.317,-2.3459,-2.4004,-2.4117,-2.4682,-2.5598,-2.5661,-2.5975,-2.6499,-2.6499,-2.6499,-2.6499,-2.6499,-2.6499,-2.6499,-2.6499,-2.6499,-2.6418,-2.5699,-2.5453,-2.5335,-2.4624,-2.4373,-2.4373,-2.4373,-2.4373,-2.4373,-2.4373,-2.4373,-2.4373,-2.4373,-2.4373,-2.4192,-2.346,-2.3176,-2.2916,-2.2138,-2.1883,-2.1807,-2.1807,-2.1807,-2.1807,-2.1807,-2.1807,-2.1807,-2.1807,-2.1807,-2.1807,-2.1807,-2.1807,-2.1807,-2.1807,-2.1807,-2.1807,-2.1807,-2.1807,-2.1807,-2.1807,-2.1807,-2.1807,-2.1807,-2.1807,-2.1807,-2.1807,-2.1807,-2.1807,-2.1807,-2.1807,-2.1807,-2.1807,-2.1807,-2.1807,-2.1807,-2.1807,-2.1807,0.0,0.0,0.0,0.0,0.0,0.0,-1.2964,0.0,-1.3263,0.0,0.0,0.0,0.0,0.0,0.0,0.0,-1.366,0.0,0.0,0.0,-1.4697,-1.6169,0.0,-1.6648,-1.7534,-1.7668,-1.8077,-1.9014,-1.881,-1.9318,-2.0885,-2.1509,-2.2083,-2.2606,-2.2945,-2.3108,-2.3108,-2.3108,-2.3233,-2.3471,-2.3442,-2.3781,-2.445,-2.4384,-2.4644,-2.5099,-2.5099,-2.5358,-2.5804,-2.5804,-2.606,-2.6499,-2.6499,-2.6499,-2.6452,-2.6129,-2.599,-2.5886,-2.5075,-2.4791,-2.4707,-2.4264,-2.4108,-2.4108,-2.4108,-2.4108,-2.4108,-2.4108,-2.4108,-2.4047,-2.3731,-2.3313,-2.2927,-2.259,-2.2138,-2.1807,-2.1807,-2.1807,-2.1807,-2.1807,-2.1807,-2.1807,-2.1807,-2.1807,-2.1807,-2.1807,-2.1807,-2.1807,-2.1807,-2.1807,-2.1807,-2.1807,-2.1807,-2.1807,-2.1807,-2.1807,-2.1807,-2.1807,-2.1807,-2.1807,-2.1807,-2.1807,-2.1807,-2.1807,-2.1807,-2.1807,-2.1807,-2.1807,-2.1807,-2.1807,-2.1807,-2.1807,-1.3986,0.0,0.0,0.0,0.0,0.0,0.0,0.0,0.0,0.0,0.0,0.0,0.0,0.0,0.0,0.0,0.0,-1.3315,0.0,-1.2737,0.0,0.0,0.0,0.0,-1.6147,-1.6064,-1.6451,-1.7639,-1.7197,-1.7726,-1.9685,-2.0727,-2.1581,-2.2284,-2.2819,-2.3108,-2.3108,-2.3108,-2.3005,-2.2823,-2.2773,-2.2955,-2.3335,-2.327,-2.3547,-2.4108,-2.4108,-2.4409,-2.4969,-2.4969,-2.5335,-2.5838,-2.5838,-2.5838,-2.5873,-2.6094,-2.6176,-2.606,-2.5264,-2.4838,-2.4551,-2.3731,-2.3463,-2.3463,-2.3463,-2.3463,-2.3463,-2.3463,-2.3463,-2.3463,-2.3463,-2.308,-2.2665,-2.2665,-2.2214,-2.1807,-2.1807,-2.1807,-2.1807,-2.1807,-2.1807,-2.1807,-2.1807,-2.1807,-2.1807,-2.1807,-2.1807,-2.1807,-2.1807,-2.1807,-2.1807,-2.1807,-2.1807,-2.1807,-2.1807,-2.1807,-2.1807,-2.1807,-2.1807,-2.1807,-2.1807,-2.1807,-2.1807,-2.1807,-2.1807,-2.1807,-2.1807,-2.1807,-2.1807,-2.1807,-2.1807,-2.1807,0.0,0.0,0.0,-1.2908,0.0,0.0,0.0,0.0,-1.3795,0.0,0.0,0.0,0.0,0.0,0.0,0.0,0.0,0.0,0.0,0.0,0.0,0.0,0.0,0.0,0.0,-1.4154,-1.4366,-1.6409,-1.5588,-1.6392,-1.9623,-2.0402,-2.1219,-2.2284,-2.2819,-2.3108,-2.3108,-2.3108,-2.2781,-2.2144,-2.2125,-2.2328,-2.2627,-2.2616,-2.3167,-2.4108,-2.4108,-2.4108,-2.4145,-2.4145,-2.4145,-2.4192,-2.4192,-2.4192,-2.4264,-2.504,-2.5347,-2.5229,-2.4409,-2.3669,-2.2953,-2.2138,-2.1883,-2.1883,-2.1883,-2.1883,-2.1883,-2.1883,-2.1883,-2.1883,-2.1883,-2.1845,-2.1845,-2.1845,-2.1807,-2.1807,-2.1807,-2.1807,-2.1807,-2.1807,-2.1807,-2.1807,-2.1807,-2.1807,-2.1807,-2.1807,-2.1807,-2.1807,-2.1807,-2.1807,-2.1807,-2.1807,-2.1807,-2.1807,-2.1807,-2.1807,-2.1807,-2.1807,-2.1807,-2.1807,-2.1807,-2.1807,-2.1807,-2.1807,-2.1807,-2.1807,-2.1807,-2.1807,-2.1807,-2.1807,-2.1807,-2.1807,-1.4904,-1.5499,-1.5788,-1.3679,-1.3568,-1.3741,0.0,0.0,0.0,0.0,0.0,0.0,0.0,0.0,0.0,0.0,0.0,0.0,0.0,0.0,0.0,0.0,0.0,0.0,0.0,0.0,-1.3871,-1.5336,-1.479,-1.5475,-1.8077,-1.9083,-2.0087,-2.1219,-2.2121,-2.2732,-2.3108,-2.3108,-2.275,-2.2101,-2.1647,-2.1587,-2.185,-2.1387,-2.1657,-2.2569,-2.2569,-2.2894,-2.3386,-2.3386,-2.3658,-2.4108,-2.4108,-2.4108,-2.412,-2.442,-2.4528,-2.442,-2.3632,-2.2868,-2.2138,-2.1883,-2.1807,-2.1807,-2.1807,-2.1807,-2.1807,-2.1807,-2.1807,-2.1807,-2.1807,-2.1807,-2.1807,-2.1807,-2.1807,-2.1807,-2.1807,-2.1807,-2.1807,-2.1807,-2.1807,-2.1807,-2.1807,-2.1807,-2.1807,-2.1807,-2.1807,-2.1807,-2.1807,-2.1807,-2.1807,-2.1807,-2.1807,-2.1807,-2.1807,-2.1807,-2.1807,-2.1807,-2.1807,-2.1807,-2.1807,-2.1807,-2.1807,-2.1807,-2.1807,-2.1807,-2.1807,-2.1807,-2.1807,-2.1807,-2.1807,-2.1807,-1.569,-1.6168,-1.6328,-1.4356,-1.4148,-1.4211,-1.3338,-1.3276,-1.3543,0.0,0.0,0.0,0.0,0.0,0.0,0.0,0.0,0.0,0.0,-1.0981,0.0,0.0,0.0,0.0,0.0,0.0,-1.2755,-1.4488,-1.3921,-1.4544,-1.6948,-1.8293,-1.9522,-2.0654,-2.1732,-2.2543,-2.3095,-2.3108,-2.2628,-2.1741,-2.1313,-2.1017,-2.0893,-2.0561,-2.0798,-2.1569,-2.1735,-2.2101,-2.259,-2.259,-2.283,-2.3279,-2.3279,-2.3279,-2.3364,-2.3902,-2.4108,-2.3975,-2.325,-2.2665,-2.2176,-2.1883,-2.1807,-2.1807,-2.1807,-2.1807,-2.1807,-2.1807,-2.1807,-2.1807,-2.1807,-2.1807,-2.1807,-2.1807,-2.1807,-2.1807,-2.1807,-2.1807,-2.1807,-2.1807,-2.1807,-2.1807,-2.1807,-2.1807,-2.1807,-2.1807,-2.1807,-2.1807,-2.1807,-2.1807,-2.1807,-2.1807,-2.1807,-2.1807,-2.1807,-2.1807,-2.1807,-2.1807,-2.1807,-2.1807,-2.1807,-2.1807,-2.1807,-2.1807,-2.1807,-2.1807,-2.1807,-2.1807,-2.1807,-2.1807,-2.1807,-2.1807]},{"header":{"parameterUnit":"m.s-1","parameterCategory":1,"la1":30.6,"la2":29.2853,"lo1":-89.7004,"lo2":-87.6739,"dy":0.0162,"dx":0.0183,"nx":112,"ny":82,"refTime":"2024-08-25T06:00:00:Z","depth":0,"parameterNumber":3,"parameterNumberName":"V-component_of_WINDS"},"data":[0.0,0.0,0.0,0.0,0.0,0.0,0.0,0.0,0.0,0.0,0.0,0.0,0.0,0.0,0.0,0.0,0.0,0.0,0.0,0.0,0.0,0.0,0.0,0.0,0.0,0.0,0.0,0.0,0.0,0.0,0.0,0.0,0.0,0.0,0.0,0.0,0.0,0.0,0.0,0.0,0.0,0.0,0.0,0.0,0.0,0.0,0.0,0.0,0.0,0.0,0.0,0.0,0.0,0.0,0.0,0.0,0.0,0.0,0.0,0.0,0.0,0.0,0.0,0.0,0.0,0.0,0.0,0.0,0.0,0.0,0.0,0.0,0.0,0.0,0.0,0.0,0.0,0.0,0.0,0.0,0.0,0.0,0.0,0.0,0.0,0.0,0.0,0.0,0.0,0.0,0.0,1.4057,1.6321,1.7551,1.6993,1.685,1.5696,1.3141,0.0,0.0,0.0,0.0,0.0,0.0,0.0,0.0,0.0,0.0,0.0,0.0,0.0,0.0,0.0,0.0,0.0,0.0,0.0,0.0,0.0,0.0,0.0,0.0,0.0,0.0,0.0,0.0,0.0,0.0,0.0,0.0,0.0,0.0,0.0,0.0,0.0,0.0,0.0,0.0,0.0,0.0,0.0,0.0,0.0,0.0,0.0,0.0,0.0,0.0,0.0,0.0,0.0,0.0,0.0,0.0,0.0,0.0,0.0,0.0,0.0,0.0,0.0,0.0,0.0,0.0,0.0,0.0,0.0,0.0,0.0,0.0,0.0,0.0,0.0,0.0,0.0,0.0,0.0,0.0,0.0,0.0,0.0,0.0,0.0,0.0,0.0,0.0,0.0,0.0,0.0,0.0,0.0,0.0,0.0,0.0,0.0,0.0,0.0,0.0,0.0,0.0,0.0,0.0,1.3665,1.592,1.7097,1.7659,1.7569,1.6533,1.5288,1.3818,0.0,0.0,0.0,0.0,0.0,0.0,0.0,0.0,0.0,0.0,0.0,0.0,0.0,0.0,0.0,0.0,0.0,0.0,0.0,0.0,0.0,0.0,0.0,0.0,0.0,0.0,0.0,0.0,0.0,0.0,0.0,0.0,0.0,0.0,0.0,0.0,0.0,0.0,0.0,0.0,0.0,0.0,0.0,0.0,0.0,0.0,0.0,0.0,0.0,0.0,0.0,0.0,0.0,0.0,0.0,0.0,0.0,0.0,0.0,0.0,0.0,0.0,0.0,0.0,0.0,0.0,0.0,0.0,0.0,0.0,0.0,0.0,0.0,0.0,0.0,0.0,0.0,0.0,0.0,0.0,0.0,0.0,0.0,0.0,0.0,0.0,0.0,0.0,0.0,0.0,0.0,0.0,0.0,0.0,0.0,0.0,0.0,0.0,0.0,0.0,0.0,0.0,0.0,1.2595,1.4135,1.6907,1.7428,1.7582,1.7582,1.6357,1.5067,1.3818,1.2884,0.0,0.0,0.0,0.0,0.0,0.0,0.0,0.0,0.0,0.0,0.0,0.0,0.0,0.0,0.0,0.0,0.0,0.0,0.0,0.0,0.0,0.0,0.0,0.0,0.0,0.0,0.0,0.0,0.0,0.0,0.0,0.0,0.0,0.0,0.0,0.0,0.0,0.0,0.0,0.0,0.0,0.0,0.0,0.0,0.0,0.0,0.0,0.0,0.0,0.0,0.0,0.0,0.0,0.0,0.0,0.0,0.0,0.0,0.0,0.0,0.0,0.0,0.0,0.0,0.0,0.0,0.0,0.0,0.0,0.0,0.0,0.0,0.0,0.0,0.0,0.0,0.0,0.0,0.0,0.0,0.0,0.0,0.0,0.0,0.0,0.0,0.0,0.0,0.0,0.0,0.0,0.0,0.0,0.0,0.0,0.0,0.0,0.0,0.0,0.0,0.0,0.0,1.4136,1.4802,1.7373,1.7552,1.7498,1.7498,1.6086,1.4742,1.3692,1.2037,0.0,0.0,0.0,0.0,0.0,0.0,0.0,0.0,0.0,0.0,0.0,0.0,0.0,0.0,0.0,0.0,0.0,0.0,0.0,0.0,0.0,0.0,0.0,0.0,0.0,0.0,0.0,0.0,0.0,0.0,0.0,0.0,0.0,0.0,0.0,0.0,0.0,0.0,0.0,0.0,0.0,0.0,0.0,0.0,0.0,0.0,0.0,0.0,0.0,0.0,0.0,0.0,0.0,0.0,0.0,0.0,0.0,0.0,0.0,0.0,0.0,0.0,0.0,0.0,0.0,0.0,0.0,0.0,0.0,0.0,0.0,0.0,0.0,0.0,0.0,0.0,0.0,0.0,0.0,0.0,0.0,0.0,0.0,0.0,0.0,0.0,0.0,0.0,0.0,0.0,0.0,0.0,0.0,0.0,0.0,0.0,0.0,0.0,0.0,0.0,0.0,0.0,1.4616,1.5904,1.7356,1.7515,1.7498,1.75,1.5539,1.4121,1.3713,1.0983,0.0,0.0,0.0,0.0,0.0,0.0,0.0,0.0,0.0,0.0,0.0,0.0,0.0,0.0,0.0,0.0,0.0,0.0,0.0,0.0,0.0,0.0,0.0,0.0,0.0,0.0,0.0,0.0,0.0,0.0,0.0,0.0,0.0,0.0,0.0,0.0,0.0,0.0,0.0,0.0,0.0,0.0,0.0,0.0,0.0,0.0,0.0,0.0,0.0,0.0,0.0,0.0,0.0,0.0,0.0,0.0,0.0,0.0,0.0,0.0,0.0,0.0,0.0,0.0,0.0,0.0,0.0,0.0,0.0,0.0,0.0,0.0,0.0,0.0,0.0,0.0,0.0,0.0,0.0,0.0,0.0,0.0,0.0,0.0,0.0,0.0,0.0,0.0,0.0,0.0,0.0,0.0,0.0,0.0,0.0,0.0,0.0,0.0,0.0,0.0,0.0,0.0,1.426,1.5466,0.0,1.7498,1.7498,1.751,1.5894,1.4531,1.368,0.0,0.0,0.0,0.0,0.0,0.0,0.0,0.0,0.0,0.0,0.0,0.0,0.0,0.0,0.0,0.0,0.0,0.0,0.0,0.0,0.0,0.0,0.0,0.0,0.0,0.0,0.0,0.0,0.0,0.0,0.0,0.0,0.0,0.0,0.0,0.0,0.0,0.0,0.0,0.0,0.0,0.0,0.0,0.0,0.0,0.0,0.0,0.0,0.0,0.0,0.0,0.0,0.0,0.0,0.0,0.0,0.0,0.0,0.0,0.0,0.0,0.0,0.0,0.0,0.0,0.0,0.0,0.0,0.0,0.0,0.0,0.0,0.0,0.0,0.0,0.0,0.0,0.0,0.0,0.0,0.0,0.0,0.0,0.0,0.0,0.0,0.0,0.0,0.0,0.0,0.0,0.0,0.0,0.0,0.0,0.0,0.0,0.0,0.0,0.0,0.0,0.0,1.3097,1.3992,1.5155,0.0,1.7261,1.7314,1.7434,1.5846,1.4508,1.3672,0.0,0.0,0.0,0.0,0.0,0.0,0.0,0.0,0.0,0.0,0.0,0.0,0.0,0.0,0.0,0.0,0.0,0.0,0.0,0.0,0.0,0.0,0.0,0.0,0.0,0.0,0.0,0.0,0.0,0.0,0.0,0.0,0.0,0.0,0.0,0.0,0.0,0.0,0.0,0.0,0.0,0.0,0.0,0.0,0.0,0.0,0.0,0.0,0.0,0.0,0.0,0.0,0.0,0.0,0.0,0.0,0.0,0.0,0.0,0.0,0.0,0.0,0.0,0.0,0.0,0.0,0.0,0.0,0.0,0.0,0.0,0.0,0.0,0.0,0.0,0.0,0.0,0.0,0.0,0.0,0.0,0.0,0.0,0.0,0.0,0.0,0.0,0.0,0.0,0.0,0.0,0.0,0.0,0.0,0.0,0.0,0.0,0.0,0.0,0.0,0.0,0.0,1.2647,1.3954,1.5235,1.6658,1.6735,1.6863,1.7272,1.5206,1.3844,0.0,0.0,0.0,0.0,0.0,0.0,0.0,0.0,0.0,0.0,0.0,0.0,0.0,0.0,0.0,0.0,0.0,0.0,0.0,0.0,0.0,0.0,0.0,0.0,0.0,0.0,0.0,0.0,0.0,0.0,0.0,0.0,0.0,0.0,0.0,0.0,0.0,0.0,0.0,0.0,0.0,0.0,0.0,0.0,0.0,0.0,0.0,0.0,0.0,0.0,0.0,0.0,0.0,0.0,0.0,0.0,0.0,0.0,0.0,0.0,0.0,0.0,0.0,0.0,0.0,0.0,0.0,0.0,0.0,0.0,0.0,0.0,0.0,0.0,0.0,0.0,0.0,0.0,0.0,0.0,0.0,0.0,0.0,0.0,0.0,0.0,0.0,0.0,0.0,0.0,0.0,0.0,0.0,0.0,0.0,0.0,0.0,0.0,0.0,0.0,0.0,0.0,0.0,1.2623,1.3907,1.5169,1.6578,1.6709,1.6747,1.6876,1.5443,1.4192,1.3404,0.0,0.0,0.0,0.0,0.0,0.0,0.0,0.0,0.0,0.0,0.0,0.0,0.0,0.0,0.0,0.0,0.0,0.0,0.0,0.0,0.0,0.0,0.0,0.0,0.0,0.0,0.0,0.0,0.0,0.0,0.0,0.0,0.0,0.0,0.0,0.0,0.0,0.0,0.0,0.0,0.0,0.0,0.0,0.0,0.0,0.0,0.0,0.0,0.0,0.0,0.0,0.0,0.0,0.0,0.0,0.0,0.0,0.0,0.0,0.0,0.0,0.0,0.0,0.0,0.0,0.0,0.0,0.0,0.0,0.0,0.0,0.0,0.0,0.0,0.0,0.0,0.0,0.0,0.0,0.0,0.0,0.0,0.0,0.0,0.0,0.0,0.0,0.0,0.0,0.0,0.0,0.0,0.0,0.0,0.0,0.0,0.0,0.0,0.0,0.0,0.0,0.0,1.2459,1.3738,1.497,1.632,1.6448,1.6472,1.6604,1.5375,1.417,1.3129,0.0,0.0,0.0,0.0,0.0,0.0,0.0,0.0,0.0,0.0,0.0,0.0,0.0,0.0,0.0,0.0,0.0,0.0,0.0,0.0,0.0,0.0,0.0,0.0,0.0,0.0,0.0,0.0,0.0,0.0,0.0,0.0,0.0,0.0,0.0,0.0,0.0,0.0,0.0,0.0,0.0,0.0,0.0,0.0,0.0,0.0,0.0,0.0,0.0,0.0,0.0,0.0,0.0,0.0,0.0,0.0,0.0,0.0,0.0,0.0,0.0,0.0,0.0,0.0,0.0,0.0,0.0,0.0,0.0,0.0,0.0,0.0,0.0,0.0,0.0,0.0,0.0,0.0,0.0,0.0,0.0,0.0,0.0,0.0,0.0,0.0,0.0,0.0,0.0,0.0,0.0,0.0,0.0,0.0,0.0,0.0,0.0,0.0,0.0,0.0,0.0,0.0,1.2211,1.345,1.4625,1.5916,1.6011,1.6079,1.6378,1.5171,1.3987,1.3018,0.0,0.0,0.0,0.0,0.0,0.0,0.0,0.0,0.0,0.0,0.0,0.0,0.0,0.0,0.0,0.0,0.0,0.0,0.0,0.0,0.0,0.0,0.0,0.0,0.0,0.0,0.0,0.0,0.0,0.0,0.0,0.0,0.0,0.0,0.0,0.0,0.0,0.0,0.0,0.0,0.0,0.0,0.0,0.0,0.0,0.0,0.0,0.0,0.0,0.0,0.0,0.0,0.0,0.0,0.0,0.0,0.0,0.0,0.0,0.0,1.2263,0.0,0.0,0.0,0.0,0.0,0.0,0.0,0.0,0.0,0.0,0.0,0.0,0.0,0.0,0.0,0.0,0.0,0.0,0.0,0.0,0.0,0.0,0.0,0.0,0.0,0.0,0.0,0.0,0.0,0.0,0.0,0.0,0.0,0.0,0.0,0.0,0.0,0.0,0.0,0.0,0.0,1.2021,1.3121,1.4225,1.549,1.5667,1.571,1.5781,1.5304,1.4533,1.3446,1.1371,0.0,0.0,0.0,0.0,0.0,0.0,0.0,0.0,0.0,0.0,0.0,0.0,0.0,0.0,0.0,0.0,0.0,0.0,0.0,0.0,0.0,0.0,0.0,0.0,0.0,0.0,0.0,0.0,0.0,0.0,0.0,0.0,0.0,0.0,0.0,0.0,0.0,0.0,0.0,0.0,0.0,0.0,0.0,0.0,0.0,0.0,0.0,0.0,0.0,0.0,0.0,0.0,0.0,0.0,0.0,0.0,0.0,0.0,0.0,1.3219,1.2857,0.0,0.0,0.0,0.0,0.0,0.0,0.0,0.0,0.0,0.0,0.0,0.0,0.0,0.0,0.0,0.0,0.0,0.0,0.0,0.0,0.0,0.0,0.0,0.0,0.0,0.0,0.0,0.0,0.0,0.0,0.0,0.0,0.0,0.0,0.0,0.0,0.0,0.0,0.0,0.0,1.2064,1.3343,1.4537,1.5664,1.5826,1.5839,1.5839,1.5415,1.4646,1.3421,1.207,0.0,0.0,0.0,0.0,0.0,0.0,0.0,0.0,0.0,0.0,0.0,0.0,0.0,0.0,0.0,0.0,0.0,0.0,0.0,0.0,0.0,0.0,0.0,0.0,0.0,0.0,0.0,0.0,0.0,0.0,0.0,0.0,0.0,0.0,0.0,0.0,0.0,0.0,0.0,0.0,0.0,0.0,0.0,0.0,0.0,0.0,0.0,0.0,0.0,0.0,0.0,0.0,0.0,1.3585,1.3768,1.4022,1.417,1.441,1.4628,1.4199,1.4232,1.4498,1.3315,0.0,0.0,0.0,0.0,0.0,0.0,0.0,0.0,0.0,0.0,0.0,0.0,0.0,0.0,0.0,0.0,0.0,0.0,0.0,0.0,0.0,0.0,1.3633,1.334,1.4087,1.4448,1.2933,0.0,0.0,0.0,0.0,0.0,0.0,0.0,0.0,0.0,0.0,0.0,1.2189,1.361,1.4881,1.578,1.5869,1.5869,1.5869,1.5453,1.4712,1.3551,1.2887,1.1731,0.0,0.0,0.0,0.0,0.0,0.0,0.0,0.0,0.0,0.0,0.0,0.0,0.0,0.0,0.0,0.0,0.0,0.0,0.0,0.0,0.0,0.0,0.0,0.0,0.0,0.0,0.0,0.0,0.0,0.0,0.0,0.0,0.8431,0.9844,0.0,0.0,0.0,0.0,0.0,0.0,0.0,0.0,0.0,0.0,0.0,0.0,0.0,1.3387,1.3346,1.4844,1.5313,1.4757,1.5743,1.5992,1.5609,1.562,1.6089,1.6856,1.6577,0.0,1.4452,1.37,0.0,0.0,0.0,0.0,0.0,0.0,0.0,0.0,0.0,0.0,0.0,0.0,0.0,0.0,0.0,0.0,0.0,0.0,0.0,0.0,0.0,0.0,1.6247,1.5356,1.5925,1.6356,1.5267,1.3831,1.2446,1.1433,1.0778,1.0332,0.0,0.0,0.0,0.0,0.0,0.0,1.222,1.3256,1.4194,1.4908,1.4965,1.4965,1.4965,1.5375,1.5304,1.4554,1.3626,1.2763,1.2017,1.0828,0.0,0.0,0.0,0.0,0.0,0.0,0.0,0.0,0.0,0.0,0.0,0.0,0.0,0.0,0.0,0.0,0.0,0.0,0.0,0.0,0.0,0.0,0.0,0.0,0.0,0.0,0.0,0.0,0.0,0.8529,0.9627,1.0128,1.0255,1.0129,0.0,0.0,0.0,0.0,0.0,0.0,0.0,0.0,0.0,1.2939,1.3716,1.4329,1.4737,1.5424,1.5763,1.5788,1.6214,1.6419,1.6402,1.6175,1.6465,1.711,1.6773,1.625,1.5601,1.5196,1.4691,1.414,0.0,0.0,0.0,0.0,1.4224,1.428,1.5423,1.5537,1.5163,1.5034,0.0,0.0,0.0,0.0,0.0,0.0,0.0,1.4452,1.4454,1.5596,1.6554,1.5935,1.6518,1.6959,1.599,1.5134,1.4261,1.3259,1.2775,1.2214,1.1271,0.0,0.0,0.0,0.0,1.266,1.3239,1.4223,1.5051,1.5479,1.5257,1.5073,1.5073,1.5463,1.5411,1.474,1.4458,1.4045,1.3446,1.2171,1.1257,0.0,0.0,0.0,0.0,0.0,0.0,0.0,0.0,0.0,0.0,0.0,0.0,0.0,0.0,0.0,0.0,0.0,0.0,0.0,0.0,0.0,0.0,0.0,0.0,0.0,0.0,0.0,0.0,0.9923,1.0463,1.0499,1.1009,1.1056,0.0,0.0,0.0,0.0,0.0,0.0,1.2,1.3032,1.3728,1.3922,1.4418,1.4974,1.559,1.5489,1.574,1.6306,1.621,1.6328,1.6637,1.634,1.6414,1.6774,1.6479,1.6371,1.6403,1.6172,1.564,1.4913,1.4412,1.4042,1.394,1.5344,1.5595,1.5492,1.7099,1.7287,1.6749,1.6375,1.604,1.5621,1.4783,0.0,0.0,0.0,0.0,1.5015,1.5479,1.6104,1.6518,1.6153,1.6679,1.706,1.6255,1.6158,1.586,1.4651,1.4325,1.3837,1.2476,0.0,0.0,0.0,0.0,1.3747,1.4195,1.5173,1.5876,1.6082,1.5736,1.5441,1.5285,1.5533,1.5419,1.4772,1.4856,1.4727,1.4215,1.3095,1.2412,1.2266,0.0,0.0,0.0,0.0,0.0,0.0,0.0,0.0,0.0,0.0,0.0,0.0,0.0,0.0,0.0,0.0,0.0,0.0,0.0,0.0,0.0,0.0,0.0,0.0,0.0,0.0,0.0,0.0,0.0,1.1536,1.2212,0.0,0.0,0.0,0.0,1.2309,1.2194,1.2452,1.3344,1.4306,1.4725,1.457,1.5134,1.5407,1.5309,1.5321,1.5546,1.601,1.601,1.6088,1.6244,1.6222,1.6222,1.6231,1.6222,1.6222,1.6194,1.5853,1.6034,1.643,1.5821,1.5931,1.6405,1.6313,1.6617,1.7066,1.6984,1.6935,1.6984,1.7514,1.6921,1.5937,1.5766,1.5534,0.0,0.0,1.5802,1.6554,1.6466,1.6669,1.6786,1.6382,1.6612,1.682,1.6373,1.66,1.6499,1.528,1.4857,1.4642,1.455,0.0,1.3634,1.3641,1.4187,1.4634,1.4669,1.551,1.6082,1.61,1.6073,1.5832,1.5251,1.5516,1.5431,1.4841,1.4443,1.4239,1.4196,1.322,1.2441,1.1935,1.0778,0.0,0.0,0.0,0.0,0.0,0.0,0.0,0.0,0.0,0.0,0.0,0.0,0.0,0.0,0.0,0.0,0.0,0.0,0.0,0.0,0.0,0.0,0.0,0.0,0.0,0.0,0.0,0.0,1.2972,1.3497,0.0,1.2631,1.2743,1.2836,1.2687,1.3115,1.3606,1.4122,1.4818,1.5334,1.5554,1.5776,1.5834,1.5747,1.5672,1.5708,1.588,1.5772,1.5783,1.5832,1.6229,1.6456,1.6515,1.6578,1.6832,1.7196,1.6732,1.6504,1.6454,1.6291,1.6351,1.6572,1.6784,1.701,1.7237,1.7416,1.7476,1.7503,1.772,1.7523,1.7151,1.706,1.6853,1.6602,1.6479,1.6632,1.6775,1.6459,1.6625,1.6748,1.6132,1.625,1.6423,1.6054,1.6088,1.6065,1.5629,1.5532,1.5408,1.5016,1.4636,1.4308,1.41,1.4751,1.5331,1.5518,1.5834,1.6042,1.6042,1.5874,1.554,1.4924,1.5387,1.5438,1.485,1.45,1.4325,1.4325,1.3193,1.2473,1.2284,1.1192,1.0197,0.0,0.0,0.0,0.0,0.0,0.0,0.0,0.0,0.0,0.0,0.0,0.0,0.0,0.0,0.0,0.0,0.0,0.0,0.0,0.0,0.0,0.0,0.0,0.0,0.0,0.0,1.3634,1.3967,1.4595,1.4626,1.363,1.3804,1.3761,1.323,1.3828,1.4281,1.4451,1.5096,1.5538,1.5684,1.595,1.6024,1.5913,1.6098,1.6224,1.635,1.6263,1.6213,1.6213,1.6614,1.6873,1.7009,1.7051,1.7312,1.7725,1.744,1.714,1.6886,1.6963,1.6917,1.6832,1.7157,1.7136,1.6997,1.7269,1.7359,1.7359,1.7338,1.7318,1.7297,1.7227,1.711,1.7013,1.6976,1.6842,1.665,1.6355,1.6423,1.6405,1.5925,1.5979,1.6076,1.5859,1.5792,1.5792,1.5792,1.5957,1.598,1.5567,1.5357,1.5164,1.4947,1.5432,1.5907,1.6085,1.6312,1.6475,1.6475,1.6415,1.6125,1.5522,1.5704,1.5577,1.4969,1.4392,1.4056,1.4056,1.295,1.2324,1.2324,1.1234,1.0278,0.9457,0.0,0.0,0.0,0.0,0.0,0.0,0.0,0.0,0.0,0.0,0.0,0.0,0.0,0.0,0.0,0.0,0.0,0.0,0.0,0.0,0.0,0.0,0.0,1.3205,1.3969,1.4503,1.4444,1.5461,1.5599,1.416,1.4315,1.4361,1.4022,1.4251,1.4414,1.4439,1.5177,1.5397,1.4987,1.5646,1.5953,1.5836,1.6519,1.7018,1.7338,1.7338,1.7338,1.7338,1.7387,1.7448,1.7581,1.7618,1.7618,1.7666,1.7918,1.7955,1.7883,1.7978,1.7772,1.7423,1.7423,1.7049,1.655,1.655,1.655,1.655,1.6476,1.6455,1.6421,1.6281,1.6377,1.6525,1.6504,1.6414,1.6269,1.6269,1.6032,1.5792,1.5792,1.5792,1.5792,1.5792,1.5792,1.5792,1.5792,1.6054,1.6269,1.6269,1.6269,1.6269,1.6269,1.6269,0.0,1.6269,1.69,1.7352,1.7352,1.7666,1.7618,1.7035,1.6439,1.5847,1.524,1.4056,1.3376,1.3403,1.2484,1.2,1.2012,1.0985,0.9933,0.8881,0.0,0.0,0.0,0.0,0.0,0.0,0.0,0.0,0.0,0.0,0.0,0.0,0.0,0.0,0.0,0.0,0.0,0.0,0.0,0.0,0.0,1.3041,1.4012,1.399,1.4707,1.5251,1.5271,1.5471,1.5283,1.444,1.4481,1.4453,1.416,1.4267,1.4661,1.5394,1.5615,1.6023,1.6625,1.64,1.6245,1.615,1.5939,1.5855,1.5967,1.5967,1.5967,1.5984,1.6863,1.7268,1.7326,1.7816,1.8307,1.8748,1.841,1.8597,1.9044,1.8409,1.808,1.7978,1.7978,1.7877,1.7739,1.7739,1.7739,1.7739,1.7716,1.7706,1.767,1.7438,1.7131,1.6811,1.663,1.6282,1.5935,1.5935,1.5869,1.5792,1.5792,1.5792,1.5792,1.5792,1.5792,1.5792,1.5792,1.5869,1.5935,1.5935,1.5935,1.5935,1.5935,1.5935,0.0,1.5935,1.611,1.6241,1.6241,1.6799,1.6928,1.6335,1.6163,1.5847,1.524,1.3662,1.2942,1.3376,1.2307,1.1794,1.2012,1.1854,1.1381,0.0,0.0,0.0,0.0,0.0,0.0,0.0,0.0,0.0,0.0,0.0,0.0,0.0,0.0,0.0,0.0,0.0,0.0,0.0,0.0,0.0,0.0,1.414,1.4949,1.5138,1.5582,1.5789,1.5511,1.5553,1.5314,1.454,1.4606,1.4679,1.4537,1.4523,1.4854,1.5722,1.569,1.5884,1.6476,1.6405,1.6339,1.6301,1.6187,1.6261,1.6456,1.6456,1.6456,1.6485,1.7166,1.7426,1.7302,1.7714,1.8225,1.8804,1.856,1.8829,1.9385,0.0,0.0,0.0,0.0,1.8204,1.8204,1.8204,1.8204,1.8204,1.8204,1.8204,1.818,1.8001,1.7707,1.7378,1.7167,1.6843,1.6484,1.6199,1.6151,1.609,1.584,1.5792,1.5792,1.5792,1.5792,1.5792,1.5792,1.5792,0.0,1.5792,1.5792,1.5792,1.5792,1.5792,1.5792,1.5792,1.5913,1.601,1.601,1.6659,1.6964,1.6619,1.6523,0.0,0.0,0.0,1.3186,1.3037,1.2346,0.0,0.0,0.0,0.0,0.0,0.0,0.0,0.0,1.1996,1.2424,0.0,0.0,0.0,0.0,0.0,0.0,0.0,0.0,0.0,0.0,0.0,0.0,0.0,0.0,0.0,0.0,1.4978,1.5712,1.6352,1.6433,1.6146,1.5404,1.559,1.5456,1.4574,1.4744,1.4944,1.5054,1.5011,1.5235,1.5831,0.0,0.0,0.0,0.0,1.6384,1.6384,1.6892,1.7356,1.7747,1.7781,1.7817,1.7806,1.7868,1.7792,1.7568,1.7662,1.8054,1.8616,1.8767,1.9039,1.9387,1.9537,1.9407,1.9033,1.8568,1.838,1.838,1.838,0.0,0.0,1.838,1.838,1.8392,1.8356,1.821,1.8028,1.792,1.7714,1.7436,1.6834,1.6691,1.6559,1.603,1.5876,1.5864,1.5804,1.5792,1.5792,1.5792,1.5792,1.5792,1.5792,1.5792,1.5792,1.5792,1.5792,1.5792,1.5792,1.6054,1.6238,1.6238,1.6858,0.0,1.7289,1.705,1.6674,1.6185,1.5111,1.4002,1.2861,1.2874,1.2874,1.2806,1.2904,1.302,1.315,1.446,1.4834,1.4297,1.3187,1.331,0.0,0.0,0.0,0.0,0.0,0.0,0.0,0.0,0.0,0.0,0.0,0.0,0.0,0.0,0.0,1.4695,1.5456,1.6146,1.6643,1.6681,1.6333,1.5478,1.5221,1.5079,1.5064,1.4908,1.5034,1.5542,1.5845,1.6262,1.6866,1.6869,1.7062,1.7562,1.7098,1.686,1.686,1.683,1.6846,1.6925,1.7091,0.0,1.7191,1.7784,1.8264,1.8645,1.9231,1.988,2.0487,2.0695,2.063,2.0357,1.9817,1.9619,1.9635,1.9535,1.9497,1.9497,1.9497,1.9497,1.9497,1.9497,1.9497,1.9472,1.9345,1.892,0.0,1.8313,1.7885,1.7412,1.7291,1.7243,1.7111,1.6571,1.6451,1.6331,1.5888,1.5792,1.5792,1.5792,1.5792,1.5792,1.5792,1.5792,1.5792,1.5792,1.5792,1.5792,1.5792,1.5859,1.5891,1.5891,1.6259,1.6505,1.6505,1.633,1.6251,1.6413,1.5999,1.544,1.471,1.5155,1.5165,1.4697,1.5416,1.5463,1.4766,1.5783,1.609,1.5716,1.6049,1.6003,0.0,0.0,0.0,0.0,0.0,0.0,0.0,0.0,0.0,0.0,0.0,1.3742,1.4301,0.0,1.5086,1.5775,1.6126,1.6416,1.6716,1.6621,1.6429,1.6083,1.5822,1.559,1.5468,1.5501,1.5672,1.598,1.6177,1.6415,1.6726,1.6702,1.6798,1.7076,1.7287,1.7387,1.7387,1.7615,1.7843,1.8061,1.8163,1.8199,1.8219,1.857,1.8794,1.8852,1.8954,1.9357,1.9984,2.0458,2.0736,2.0822,2.0548,2.0181,1.9798,1.9798,1.9798,1.9798,1.9798,1.9798,1.9798,1.9798,1.9798,1.9798,1.9734,1.9469,1.9181,1.9041,1.8755,1.841,1.808,1.7957,1.7763,1.7231,1.7039,1.6847,1.6331,1.6211,1.6126,1.584,1.5792,1.5792,1.5792,1.5792,1.5792,1.5792,1.5792,1.5792,1.5792,1.5792,1.5792,1.5792,1.6098,1.629,1.629,1.6276,1.6329,1.6494,1.6262,1.5951,1.5657,1.5942,1.5969,1.5657,1.6107,1.6121,1.5643,1.6423,1.6706,1.6566,1.7237,1.717,0.0,0.0,0.0,0.0,0.0,0.0,0.0,0.0,1.3376,1.3722,1.4469,1.5261,1.5928,1.591,1.6044,1.6722,1.6719,1.6688,1.68,1.6785,1.6758,1.678,1.6552,1.6228,1.5856,1.6122,1.6312,1.6312,1.6415,1.6513,1.6626,1.6651,1.6688,1.6809,1.7656,1.8123,1.8123,1.8752,1.9208,1.9538,1.9419,1.9438,1.9552,1.9463,1.9388,1.934,1.9073,1.9246,1.9735,2.0245,2.0757,2.1264,2.1319,2.0832,2.0112,2.0012,1.9962,1.9962,1.9849,1.9798,1.9798,1.9798,1.9798,1.9798,1.9798,1.9773,1.9734,1.963,1.9591,1.944,1.8905,1.8655,1.8445,1.7922,1.7654,1.7424,1.6895,1.669,1.6475,1.6032,1.5864,1.5792,1.5792,1.5792,1.5792,1.5792,1.5792,1.5792,1.5792,1.5792,1.5792,1.5792,1.6032,1.6194,1.6194,1.6365,1.6453,1.6453,1.6397,1.6351,1.6351,1.642,1.6457,1.6457,1.6457,1.6457,1.6457,1.6932,1.7163,1.719,1.7671,1.7644,1.2588,1.2565,1.283,1.3635,1.3236,1.3282,0.0,0.0,1.5037,1.629,1.6229,1.6091,1.6536,1.659,1.6573,1.6552,1.6917,1.7214,1.724,1.7611,1.7707,1.7214,1.6648,1.6285,1.6229,1.628,1.6312,1.6312,1.681,1.7303,1.7774,1.8293,1.8799,1.9274,1.9232,1.9236,1.9236,1.9725,1.9965,2.0019,1.9551,1.9625,2.0171,1.9697,2.0138,2.1337,2.2048,2.2461,2.2603,2.2205,2.2101,2.2113,2.1653,2.1418,2.1242,2.0779,2.0591,2.0515,1.9987,1.9798,1.9798,1.9798,1.9798,1.9798,1.9798,1.9734,1.9604,1.9617,1.9512,1.9408,1.9321,1.9204,1.9004,1.8583,1.8298,1.799,1.7569,1.7026,1.6583,1.6523,1.6139,1.5792,1.5792,1.5792,1.5792,1.5792,1.5792,1.5792,1.5792,1.5792,1.5792,1.5792,1.5836,1.5859,1.5859,1.6145,1.6332,1.6332,1.6912,1.7248,1.7248,1.7538,1.7712,1.7712,1.7712,1.7712,1.7712,1.778,1.7807,1.7807,1.7875,1.7861,1.4891,1.4306,0.0,0.0,1.5035,1.5318,1.6485,1.6295,1.62,1.7257,1.692,1.6697,1.7535,1.7328,1.7025,0.0,1.7394,1.7503,1.6814,1.7208,1.7269,1.642,1.6622,1.681,1.681,1.681,1.681,1.681,1.7689,1.8131,1.8016,1.8755,1.9287,1.951,2.0073,2.0394,2.0394,2.1,2.1305,2.1305,2.1097,2.1117,2.1396,2.1172,2.1223,2.1493,2.1873,2.2061,2.2126,2.207,2.2258,2.2519,2.2447,2.2447,2.2347,2.1496,2.1169,2.1131,2.0865,2.0577,2.0327,2.0327,2.0075,1.9798,1.9798,1.9759,1.9734,1.9734,1.9682,1.963,1.963,1.9539,1.9385,1.9228,1.9051,1.8775,1.8289,1.7885,1.7557,1.7254,1.6701,1.6271,1.6271,1.6018,1.5792,1.5792,1.5792,1.5792,1.5792,1.5792,1.5869,1.6076,1.6098,1.6185,1.6426,1.6744,1.6942,1.6942,1.7413,1.7686,1.7686,1.7842,1.7902,1.7902,1.7902,1.7902,1.7902,1.8023,1.8003,1.7902,1.8143,1.8123,1.6013,0.0,0.0,1.5652,1.6348,1.6895,1.6895,1.6866,1.7037,1.7763,1.7344,1.7136,1.793,1.7644,1.7223,1.7,1.7472,1.7479,1.6443,1.681,1.6877,1.5977,1.6663,1.7202,1.7202,1.7341,1.7451,1.7415,1.8351,1.8851,1.8699,1.9481,2.0003,2.0169,2.0971,2.1458,2.1629,2.2139,2.2486,2.263,2.2492,2.2523,2.2681,2.2631,2.2414,2.2037,2.1922,2.1879,2.1879,2.2117,2.2471,2.283,2.3017,2.3108,2.3007,2.2234,2.1845,2.1694,2.1543,2.1257,2.0918,2.0918,2.0528,2.0037,2.0037,1.9924,1.9798,1.9798,1.9798,1.9798,1.9798,1.9708,1.9617,1.9656,1.9512,1.931,1.8942,1.8657,1.8324,1.7959,1.7363,1.6892,1.6747,1.6396,1.6072,1.5871,1.5859,1.5836,1.5792,1.5792,1.5891,1.6129,1.6151,1.6315,1.6714,1.6955,1.7144,1.7261,1.7584,1.7767,1.7767,1.7862,1.7902,1.7902,1.7902,1.7902,1.7902,1.8043,1.8043,1.7902,1.8202,1.8183,0.0,0.0,1.6532,1.611,1.6699,1.7388,1.7388,1.7376,1.7532,1.8073,1.7697,1.7298,1.7347,1.7243,1.7027,1.6499,1.6869,1.7006,1.6386,1.681,1.6968,1.6337,1.6828,1.7202,1.7202,1.7727,1.804,1.7972,1.8544,1.9345,2.0358,2.1008,2.1572,2.2087,2.2154,2.2407,2.2943,2.2955,2.3252,2.3758,2.3223,2.3311,2.3952,2.3749,2.366,2.361,2.323,2.3053,2.3053,2.3053,2.3053,2.3078,2.3108,2.3108,2.3108,2.3058,2.2719,2.2209,2.1681,2.1481,2.1496,2.1496,2.1119,2.0666,2.0666,2.025,1.9798,1.9798,1.9798,1.9798,1.9798,1.9708,1.963,1.9759,1.9591,1.9434,1.954,1.9054,1.8584,1.8572,1.813,1.759,1.7074,1.6964,1.6745,1.6096,1.5988,1.5957,1.5814,1.5792,1.5792,1.5814,1.5814,1.5957,1.6303,1.6333,1.6497,1.6897,1.724,1.7427,1.7427,1.7727,1.7902,1.7902,1.7902,1.7902,1.7902,1.7902,1.7902,1.7902,1.7902,1.7902,0.0,0.0,1.635,1.6807,1.7436,1.7941,1.7941,1.7913,1.792,1.8153,1.7721,1.7321,1.7351,1.7093,1.6763,1.6459,1.6623,1.6678,1.6345,1.7134,1.7414,1.659,1.7233,0.0,1.7428,0.0,0.0,1.8578,1.9499,2.0345,2.1044,2.1637,2.2223,2.2836,2.2861,2.3191,2.3855,2.3867,2.3953,2.4136,2.3947,2.398,2.4189,2.4136,2.4082,2.4057,2.3566,2.3362,2.3337,2.3088,2.2969,2.3,2.3078,2.3108,2.3108,2.3108,2.2995,2.2794,2.2619,2.2347,2.2033,2.2033,2.1656,2.1169,2.0805,2.0553,2.0314,1.9911,1.9798,1.9798,1.9798,1.9773,1.9734,1.9798,1.9734,1.9682,1.9734,1.9493,1.9266,1.9266,1.8758,1.8265,1.8081,1.7773,1.732,1.6757,1.6209,1.5859,1.5814,1.5792,1.5991,1.647,1.6293,1.6475,1.7289,1.7165,1.7186,1.7543,1.7788,1.7868,1.7747,1.8089,1.8242,1.8103,1.8242,1.8301,1.8301,1.8431,1.8431,1.8288,1.8567,1.8548,1.673,1.6806,1.6641,1.7227,1.778,1.8107,1.7886,1.7699,1.7577,1.761,1.7338,1.7035,1.6881,1.6609,1.6325,1.6134,1.6197,1.6351,1.6543,1.7399,1.7845,1.7389,1.8072,1.8446,0.0,0.0,0.0,1.9542,2.043,2.133,2.2116,2.248,2.2967,2.3555,2.3611,2.39,2.4583,2.4583,2.4714,2.4978,2.4978,2.5012,2.5066,2.4855,2.4769,2.4731,2.4211,2.3864,2.3653,2.3387,2.3174,2.3,2.3078,2.3108,2.3108,2.3108,2.3108,2.3108,2.3108,2.2869,2.2581,2.2581,2.2234,2.1719,2.1395,2.1006,2.0616,2.0239,1.9962,1.9798,1.9798,1.9798,1.9798,1.9798,1.9798,1.9798,1.9798,1.9734,1.9656,1.9656,1.9331,1.8957,1.8784,1.8264,1.7759,1.7401,1.6872,1.6348,1.5929,1.5869,1.6022,1.647,1.638,1.6646,1.7461,1.7447,1.757,1.7983,1.8123,1.8163,1.8123,1.8361,1.8439,1.8321,1.8439,1.8498,1.8498,1.8639,1.8639,1.8517,1.8774,1.8755,1.6557,1.6979,1.742,1.7306,1.771,1.7972,1.7308,1.6901,1.6614,1.651,1.6559,1.6444,1.5856,0.0,1.5658,1.5542,1.5606,1.6012,1.6967,1.7672,1.8258,0.0,0.0,0.0,0.0,0.0,0.0,2.092,0.0,2.2201,2.3477,2.3526,2.3784,2.4325,2.4337,2.4595,2.5136,2.5182,2.5509,2.6201,2.6201,2.6339,2.6474,2.5921,2.5636,2.5611,2.5096,2.4537,2.4079,2.4054,2.3703,2.3145,2.3145,2.3133,2.3108,2.3108,2.3108,2.3108,2.3108,2.3108,2.3108,2.3108,2.2757,2.2347,2.2322,2.1581,2.0779,2.0742,2.0314,1.9849,1.9849,1.9823,1.9798,1.9798,1.9798,1.9798,1.9798,1.9798,1.9798,1.9798,1.9798,1.9648,1.9121,1.852,1.8098,1.8098,1.7978,1.744,1.6215,1.6059,1.6015,1.5859,1.6129,1.6497,1.6918,1.724,1.7652,1.8163,1.8222,1.8321,1.8478,1.8517,1.8537,1.8517,1.8537,1.8537,1.8537,1.8537,1.8537,1.8537,1.8537,1.8537,1.6904,1.7548,1.7855,1.7342,1.8001,1.8416,1.7062,1.7017,1.6857,1.5346,1.5297,1.5131,1.3896,0.0,0.0,1.4441,1.4868,0.0,1.6848,1.8339,0.0,1.9283,0.0,2.1,2.0746,2.1412,0.0,0.0,2.2249,2.2638,2.403,2.3863,2.4074,2.4878,2.4902,2.5228,2.5921,2.6093,2.6258,2.643,2.643,2.6465,2.6487,2.6336,2.6273,2.6248,2.5636,2.5322,2.5159,2.477,2.428,2.3778,2.3778,2.3484,2.3108,2.3108,2.3108,2.3108,2.3108,2.3108,2.3108,2.3108,2.3007,2.2819,2.2406,2.2121,2.1807,2.1393,2.0905,2.0478,2.0478,2.0151,1.9798,1.9798,1.9798,1.9798,1.9798,1.9798,1.9798,1.9798,1.9798,1.9761,1.9623,1.9454,1.9348,1.9348,1.9275,1.8623,1.6967,1.6745,1.6675,1.6495,1.6582,1.6921,1.7516,1.774,1.7942,1.8183,1.847,1.8528,1.8301,1.8716,1.8874,1.8741,1.8874,1.8965,1.8965,1.8965,1.8965,1.8965,1.8965,1.8965,1.7537,1.8104,1.8405,1.7752,1.7932,1.7883,1.6468,1.6088,1.5605,1.3991,1.3881,0.0,1.2667,1.2894,0.0,0.0,0.0,0.0,1.7294,1.8773,1.9824,0.0,2.1388,0.0,2.1612,2.2415,2.3257,0.0,2.3474,2.3599,2.4661,2.4632,2.4945,2.567,2.5729,2.5912,2.6339,2.643,2.6499,2.6499,2.6499,2.6499,2.6499,2.6499,2.6499,2.6474,2.6147,2.5824,2.5573,2.5285,2.4845,2.4356,2.4356,2.4017,2.3484,2.3484,2.3321,2.3108,2.3108,2.3108,2.3108,2.3108,2.3108,2.3045,2.2732,2.2498,2.2246,2.1933,2.1455,2.0993,2.0754,2.0453,2.0138,1.9861,1.9798,1.9798,1.9798,1.9798,1.9798,1.9798,1.9798,1.9875,2.0105,2.0137,2.0223,2.0476,2.0479,1.9978,1.8734,1.8071,1.7634,1.7458,1.7366,1.7482,1.7848,1.8082,1.8293,1.845,1.8683,1.8741,1.8586,1.8912,1.9045,1.8917,1.9045,1.9101,1.9101,1.9101,1.9101,1.9101,1.9101,1.9261,1.8163,1.8586,1.8854,1.8147,1.7687,1.7094,1.5804,1.4844,1.3878,1.2658,0.0,1.2325,1.1807,1.2232,1.2815,1.3237,0.0,1.5585,1.756,1.88,1.986,2.0765,2.2178,2.281,2.2263,2.3322,2.4405,2.5139,2.4813,2.4818,2.5443,2.5578,2.587,2.644,2.6465,2.6465,2.6499,2.6499,2.6499,2.6499,2.6499,2.6499,2.6499,2.6499,2.6499,2.6499,2.6499,2.621,2.5711,2.5711,2.5398,2.4888,2.4888,2.4544,2.4004,2.4004,2.364,2.3108,2.3108,2.3108,2.3108,2.3108,2.3108,2.3108,2.3108,2.2769,2.2422,2.2422,2.202,2.1493,2.1031,2.0805,2.0566,2.0037,1.9861,1.9798,1.9798,1.9798,1.9798,1.9798,1.9798,1.9978,2.051,2.066,2.0894,2.1431,2.1561,2.1444,2.0974,1.9704,1.8785,1.8591,1.8419,1.8274,1.8192,1.8517,1.8744,1.8798,1.8822,1.8898,1.9045,1.9082,1.9101,1.9101,1.9101,1.9145,1.9232,1.9232,1.9275,1.9348,1.9348,1.9667,1.8014,1.8558,1.8735,1.7617,1.7687,1.7525,1.5549,1.467,0.0,0.0,1.1446,1.1239,1.0819,1.1465,1.2216,1.2668,0.0,0.0,0.0,0.0,1.9,0.0,0.0,0.0,0.0,0.0,0.0,0.0,2.5827,2.5987,2.628,2.6005,2.5985,2.6236,2.6236,2.6339,2.6499,2.6499,2.6499,2.6499,2.6499,2.6499,2.6499,2.6499,2.6499,2.6499,2.6499,2.6436,2.6348,2.6348,2.6009,2.546,2.546,2.4858,2.4004,2.4004,2.364,2.3108,2.3108,2.3108,2.3108,2.3108,2.3108,2.3108,2.3108,2.3045,2.2957,2.2957,2.2556,2.2146,2.2046,2.1343,2.0666,2.0566,2.015,1.9798,1.9798,1.9798,1.9798,1.9798,1.9798,1.9978,2.051,2.0968,2.1455,2.1969,2.2379,2.2618,2.2503,2.118,2.0035,1.9541,1.9786,1.9768,1.9201,1.9564,1.9526,1.8831,1.8969,1.8988,1.886,1.9007,1.9101,1.9101,1.9101,1.9377,1.9928,1.9928,2.0175,2.0669,2.0669,2.0727,1.8416,1.8991,1.9215,1.8352,1.8186,1.772,1.5845,0.0,0.0,0.0,0.0,1.056,1.012,0.0,0.0,0.0,0.0,0.0,0.0,0.0,0.0,0.0,0.0,0.0,0.0,0.0,0.0,2.6062,2.6144,2.6236,2.6339,2.6258,2.6258,2.6339,2.6374,2.6396,2.6499,2.6499,2.6499,2.6499,2.6499,2.6499,2.6499,2.6499,2.6499,2.6499,2.6499,2.6499,2.6499,2.6499,2.6336,2.6084,2.6084,2.5548,2.4795,2.4531,2.4067,2.3509,2.3208,2.3108,2.3108,2.3108,2.3108,2.3108,2.3108,2.3108,2.3108,2.3108,2.2907,2.2644,2.2355,2.192,2.1443,2.1182,2.0691,2.0189,1.9874,1.9798,1.9798,1.9798,2.0029,2.0384,2.0919,2.1455,2.1992,2.2486,2.2752,2.2888,2.2888,2.2252,2.1578,2.0951,2.0784,2.0582,2.0268,2.0431,2.0382,1.9964,2.0049,2.0049,1.9955,2.0049,2.0088,2.0088,2.0088,2.0248,2.0567,2.0567,2.0712,2.1003,2.1003,2.1191,1.8674,1.9215,1.9543,1.9122,1.8506,1.7652,1.6128,1.4514,0.0,0.0,1.0582,1.0067,0.9821,0.0,0.0,0.0,0.0,0.0,0.0,0.0,0.0,0.0,0.0,0.0,0.0,0.0,0.0,2.6236,2.627,2.627,2.627,2.6396,2.6499,2.6499,2.6499,2.6499,2.6499,2.6499,2.6499,2.6499,2.6499,2.6499,2.6499,2.6499,2.6499,2.6499,2.6499,2.6499,2.6499,2.6499,2.6499,2.6499,2.6499,2.6135,2.5548,2.5146,2.4569,2.3929,2.3446,2.3208,2.3108,2.3108,2.3108,2.3108,2.3108,2.3108,2.3138,2.3275,2.3305,2.3217,2.2803,2.2588,2.236,2.183,2.1361,2.097,2.0604,2.0438,2.0348,2.0348,2.0588,2.0944,2.1479,2.1921,2.237,2.282,2.2888,2.2888,2.2888,2.2888,2.2722,2.2251,2.1728,2.1351,2.122,2.1206,2.1148,2.1003,2.1003,2.1003,2.1003,2.1003,2.1003,2.1003,2.1003,2.1061,2.1206,2.1206,2.1278,2.1409,2.1409,2.1699,1.8133,1.8662,1.9047,1.8999,1.8229,1.7171,1.6066,0.0,0.0,1.1327,1.0293,0.9728,1.0234,1.0341,0.0,0.0,0.0,1.3341,0.0,0.0,0.0,0.0,0.0,0.0,0.0,0.0,0.0,2.6465,2.6465,2.6465,2.6465,2.6499,2.6499,2.6499,2.6499,2.6499,2.6499,2.6499,2.6499,2.6499,2.6499,2.6499,2.6499,2.6499,2.6499,2.6499,2.6499,2.6499,2.6499,2.6499,2.6499,2.6499,2.6499,2.6135,2.5586,2.5536,2.4883,2.3991,2.3941,2.3547,2.3108,2.3108,2.3108,2.3108,2.3108,2.3108,2.3228,2.3839,2.4015,2.4002,2.3949,2.3532,2.2972,2.2452,2.2283,2.2378,2.2868,2.25,2.2069,2.2069,2.1661,2.1503,2.203,2.2184,2.237,2.282,2.2888,2.2888,2.2888,2.2888,2.2873,2.2815,2.2757,2.2504,2.1946,2.1902,2.1641,2.1032,2.1003,2.1003,2.1003,2.1003,2.1003,2.1003,2.1003,2.1293,2.1902,2.1902,2.2193,2.2736,2.2736,2.2765,1.7893,1.859,1.8941,1.8692,1.8256,1.7448,1.5806,0.0,1.2391,1.1315,1.0286,0.9638,0.9925,1.0189,1.0759,1.1998,1.2042,1.2586,1.4482,0.0,0.0,0.0,0.0,0.0,0.0,0.0,2.6396,2.6499,2.6499,2.6499,2.6499,2.6499,2.6499,2.6499,2.6499,2.6499,2.6499,2.6499,2.6499,2.6499,2.6499,2.6499,2.6499,2.6499,2.6499,2.6499,2.6499,2.6499,2.6499,2.6499,2.6499,2.6499,2.6499,2.6348,2.6109,2.5724,2.5322,2.487,2.4217,2.3853,2.3572,2.3221,2.3108,2.3108,2.3108,2.3108,2.3168,2.3424,2.378,2.4102,2.4102,2.4193,2.4143,2.3554,2.3406,2.3393,2.3307,2.3087,2.2775,2.2383,2.2372,2.239,2.224,2.2417,2.2684,2.2865,2.2888,2.2888,2.2888,2.2888,2.2888,2.2888,2.2888,2.2786,2.2562,2.2533,2.2432,2.2156,2.2142,2.2142,2.2142,2.2142,2.2142,2.2142,2.2142,2.2272,2.2533,2.2533,2.2678,2.2888,2.2888,2.2888,1.7436,1.8146,1.8471,1.8211,1.7968,1.7291,0.0,1.3817,1.2377,1.1157,1.0193,0.9631,0.9684,0.9963,1.0589,1.1824,1.1781,1.2348,1.4476,0.0,0.0,0.0,0.0,0.0,0.0,2.612,2.6499,2.6499,2.6499,2.6499,2.6499,2.6499,2.6499,2.6499,2.6499,2.6499,2.6499,2.6499,2.6499,2.6499,2.6499,2.6499,2.6499,2.6499,2.6499,2.6499,2.6499,2.6499,2.6499,2.6499,2.6499,2.6499,2.6499,2.6499,2.6449,2.6034,2.5737,2.5485,2.4732,2.4368,2.4155,2.3547,2.3358,2.3333,2.3158,2.3258,2.3424,2.3619,2.4147,2.4637,2.4637,2.4823,2.494,2.4696,2.4614,2.4585,2.437,2.4185,2.3895,2.3437,2.3336,2.3212,2.2772,2.2798,2.2888,2.2888,2.2888,2.2888,2.2888,2.2888,2.2888,2.2888,2.2888,2.2888,2.2888,2.2888,2.2888,2.2888,2.2888,2.2888,2.2888,2.2888,2.2888,2.2888,2.2888,2.2888,2.2888,2.2888,2.2888,2.2888,2.2888,2.2888,1.6579,1.711,1.746,1.7569,1.7216,1.6412,0.0,1.3625,1.2353,1.0733,0.9981,0.9631,0.9684,0.9709,1.012,1.1397,1.1882,1.2933,1.5339,0.0,0.0,0.0,0.0,0.0,0.0,2.5531,2.6499,2.6499,2.6499,0.0,2.6499,2.6499,2.6499,2.6499,2.6499,2.6499,2.6499,2.6499,2.6499,2.6499,2.6499,2.6499,2.6499,2.6499,2.6499,2.6499,2.6499,2.6499,2.6499,2.6499,2.6499,2.6499,2.6499,2.6499,2.6499,2.6487,2.6122,2.5598,2.5586,2.5247,2.4687,2.4167,2.3991,2.3891,2.3283,2.3573,2.4205,2.4823,2.5425,2.5866,2.5866,2.5453,2.5161,2.5743,2.5879,2.6042,2.6633,2.6242,2.5778,2.5763,2.4747,2.3891,2.3876,2.3331,2.2888,2.2888,2.2888,2.2888,2.2888,2.2888,2.2888,2.2888,2.2888,2.2888,2.2888,2.2888,2.2888,2.2888,2.2888,2.2888,2.2888,2.2888,2.2888,2.2888,2.2888,2.2888,2.2888,2.2888,2.2888,2.2888,2.2888,2.2888,1.457,1.5036,1.5341,1.5078,1.5106,1.4837,1.3341,1.2614,1.1903,1.0721,1.0037,0.9684,0.975,0.9763,1.0299,1.1899,1.2207,1.2925,0.0,0.0,0.0,0.0,0.0,0.0,0.0,0.0,2.6499,2.6499,2.6499,2.6499,2.6499,2.6499,2.6499,2.6499,2.6499,2.6499,2.6499,2.6499,2.6499,2.6499,2.6499,2.6499,2.6499,2.6499,2.6499,2.6499,2.6499,2.6499,2.6499,2.6499,2.6499,2.6499,2.6499,2.6499,2.6499,2.6499,2.6386,2.6227,2.6308,2.6259,2.609,2.6016,2.5661,2.5259,2.506,2.4272,2.3649,2.4696,2.5133,2.5481,2.6299,2.6353,2.6272,2.6474,2.6527,2.6568,2.6753,2.6646,2.6355,2.5905,2.5458,2.5052,2.4592,2.4346,2.4215,2.4268,2.3891,2.3586,2.3586,2.3186,2.2888,2.2888,2.2888,2.2888,2.2888,2.2888,2.2888,2.2888,2.2888,2.2888,2.2888,2.2888,2.2888,2.2888,2.2888,2.2888,2.2888,2.2888,2.2888,2.2888,2.2888,2.2888,0.0,1.3803,1.3945,1.3611,1.376,1.3637,1.2332,1.1929,1.1514,1.0449,0.997,0.9749,0.9789,0.9989,1.0578,1.1874,1.2405,0.0,0.0,0.0,0.0,0.0,0.0,0.0,0.0,2.6248,2.6499,2.6499,2.6499,2.6499,2.6499,2.6499,2.6499,2.6499,2.6499,2.6499,2.6499,2.6499,2.6499,2.6499,2.6499,2.6499,2.6499,2.6499,2.6499,2.6499,2.6499,2.6499,0.0,2.6499,2.6499,2.6499,2.6499,2.6499,2.6499,2.6499,2.6499,2.6539,2.6881,2.7013,2.7006,2.7161,2.6764,2.6233,2.5972,2.5079,2.4366,2.5384,2.5674,2.5838,2.6606,2.6806,2.6806,2.6806,2.6806,2.6806,2.6806,2.6806,2.6689,2.6268,2.5952,2.5662,2.5255,2.4969,2.4824,2.4878,2.453,2.4268,2.4254,2.3664,2.3273,2.3273,2.3055,2.2888,2.2888,2.2888,2.2888,2.2888,2.2888,2.2888,2.2888,2.2888,2.2888,2.2888,2.2888,2.2888,2.2888,2.2888,2.2888,2.2902,2.3171,2.3273,0.0,1.3115,1.3044,1.2922,1.2895,1.2664,1.1698,1.1455,0.0,1.0026,0.9802,0.9827,0.9914,1.0353,1.0946,1.1701,1.2663,0.0,0.0,0.0,0.0,0.0,0.0,0.0,2.4883,2.5862,2.6499,2.6499,2.6499,2.6499,2.6499,2.6499,2.6499,2.6499,2.6499,2.6499,2.6499,2.6499,2.6499,2.6499,2.6499,2.6499,2.6499,2.6499,2.6499,2.6499,2.6499,2.6499,2.6499,2.6499,2.6499,2.6499,2.6499,2.6499,2.6499,2.6499,2.6499,2.6589,2.7263,2.755,2.7611,2.7768,2.7502,2.6955,2.6296,2.5992,2.6031,2.6568,2.6727,2.6753,2.6779,2.6806,2.6806,2.6806,2.6806,2.6806,2.6806,2.6806,2.6806,2.6806,2.6312,2.5876,2.5876,2.5357,2.4955,2.5023,2.4979,2.4936,2.4882,2.4341,2.3949,2.3949,2.3403,2.3033,2.3033,2.2946,2.2888,2.2888,2.2888,2.2888,2.2888,2.2888,2.2888,2.2888,2.2888,2.2917,2.296,2.296,2.2989,2.307,2.3688,2.3963,1.0519,0.0,1.0876,1.0698,1.0955,1.1092,0.0,1.0578,1.0622,0.0,0.0,1.0076,1.1007,1.0921,1.1447,1.3752,0.0,0.0,0.0,0.0,0.0,0.0,0.0,2.5971,2.6097,2.6336,2.6499,2.6499,2.6499,2.6499,2.6499,2.6499,2.6499,2.6499,2.6499,2.6499,2.6499,2.6499,2.6499,2.6499,2.6499,2.6499,2.6499,2.6499,2.6499,2.6499,2.6499,2.6499,2.6499,2.6499,2.6499,2.6499,2.6499,2.6499,2.6499,2.6499,2.6499,2.6589,2.7263,2.7835,2.8365,2.8967,2.9055,2.8856,2.8226,2.7031,2.592,2.6075,2.6111,2.6233,2.6674,2.6806,2.6806,2.6806,2.6806,2.6806,2.6806,2.6806,2.6806,2.6806,2.6663,2.6547,2.6547,2.6416,2.6329,2.6344,2.5934,2.5575,2.556,2.4984,2.4592,2.4592,2.4476,2.4413,2.4375,2.3453,2.2888,2.2888,2.2888,2.2888,2.2888,2.2888,2.2888,2.2888,2.2888,2.3157,2.3659,2.3659,2.3934,2.4428,2.4534,2.4631,0.9405,1.0333,1.104,1.111,1.1263,1.1307,1.1011,0.0,0.0,0.0,0.0,0.0,1.1425,0.0,0.0,0.0,0.0,0.0,0.0,0.0,0.0,0.0,0.0,2.6499,0.0,2.6499,2.6499,2.6499,2.6499,2.6499,2.6499,2.6499,2.6499,2.6499,2.6499,2.6499,2.6499,2.6499,2.6499,2.6499,2.6499,2.6499,2.6499,2.6499,2.6499,2.6499,2.6499,2.6499,2.6499,2.6499,2.6499,2.6521,2.685,2.6973,2.7007,2.7284,2.7417,2.7517,2.8228,2.8889,2.9538,2.9923,3.006,2.9943,2.9305,2.8412,2.7468,2.6901,2.6527,2.6394,2.6727,2.6806,2.6806,2.6806,2.6806,2.6806,2.6806,2.6806,2.6806,2.6806,2.6806,2.6806,2.6806,2.6806,2.6806,2.6806,2.65,2.6268,2.6268,2.5676,2.5245,2.5245,2.5038,2.4878,2.4839,2.4186,2.3757,2.3757,2.3757,2.3757,2.3757,2.3795,2.3795,2.3757,2.3757,2.3954,2.4326,2.4341,2.453,2.4853,2.5139,2.5284,0.9194,1.0852,1.2251,1.2348,1.2298,1.2214,1.2137,0.0,0.0,0.0,0.0,0.0,0.0,0.0,0.0,0.0,0.0,0.0,0.0,0.0,0.0,0.0,2.6135,0.0,2.6499,2.6499,2.6499,2.6499,2.6499,2.6499,2.6499,2.6499,2.6499,2.6499,2.6499,2.6499,2.6499,2.6499,2.6499,2.6499,2.6499,2.6499,2.6499,2.6499,2.6499,2.6499,2.6624,2.6658,2.6658,2.6748,2.6816,2.685,2.7417,2.7637,2.7736,2.8298,2.8492,2.862,2.9345,2.9962,3.0447,3.0568,3.0598,3.051,2.9929,2.9668,2.9363,2.829,2.749,2.691,2.6835,2.6806,2.6806,2.6806,2.6806,2.6806,2.6806,2.6806,2.6806,2.6806,2.6806,2.6806,2.6806,2.6806,2.6806,2.6806,2.6806,2.6806,2.6806,2.6312,2.5937,2.5937,2.5513,2.5183,2.5183,2.5154,2.5125,2.5174,2.495,2.4824,2.4824,2.4863,2.4863,2.481,2.481,2.4853,2.4955,2.5058,2.515,2.5213,2.5791,2.6039,1.0506,1.2142,1.2884,1.1643,1.1848,1.2247,1.1794,0.0,0.0,0.0,0.0,0.0,0.0,0.0,0.0,0.0,0.0,0.0,0.0,0.0,0.0,2.5511,0.0,2.6499,2.6499,2.6499,2.6499,2.6499,2.6499,2.6499,2.6499,2.6499,2.6499,2.6499,2.6499,2.6499,2.6499,2.6499,2.6499,2.6499,2.6499,2.6499,2.6499,2.6499,2.6499,2.6521,2.7095,2.7351,2.7384,2.7953,2.8182,2.8214,2.8298,2.833,2.8363,2.846,2.8492,2.862,2.9345,2.9685,2.9839,3.0417,3.0598,3.0583,3.0481,3.0045,2.9552,2.9363,2.8464,2.7434,2.6924,2.6806,2.6806,2.6806,2.6806,2.6806,2.6806,2.6806,2.6806,2.6806,2.6806,2.6806,2.6806,2.6806,2.6806,2.6806,2.6806,2.6806,2.6806,2.6718,2.666,2.666,2.6547,2.6515,2.6515,2.6489,2.6645,2.6988,2.5672,2.4878,2.4878,2.4839,2.481,2.481,2.481,2.5071,2.5647,2.5982,2.6466,2.6988,2.7117,2.7136,0.9947,1.1474,1.2492,1.2286,1.3346,1.4322,1.3826,0.0,0.0,0.0,0.0,0.0,0.0,0.0,0.0,0.0,0.0,0.0,2.3747,2.4462,2.5134,0.0,0.0,2.6499,2.6499,2.6499,2.6499,2.6499,2.6499,2.6499,2.6499,2.6499,2.6499,2.6499,2.6499,2.6499,2.6499,2.6499,2.6499,2.6499,2.6499,2.6499,2.6499,2.6871,2.704,2.7061,2.7769,2.8051,2.8051,2.8363,2.8492,2.8524,2.8921,2.9093,2.9125,2.9501,2.9625,2.9701,3.0023,3.0129,3.019,3.0507,3.0598,3.0598,3.0598,3.0364,3.006,2.9697,2.8681,2.765,2.7467,2.7132,2.6925,2.6925,2.6925,2.6899,2.6806,2.6806,2.6806,2.6899,2.6925,2.6925,2.6925,2.6925,2.6873,2.6806,2.6806,2.6806,2.6806,2.6806,2.6832,2.6899,2.6925,2.6951,2.7015,2.7255,2.7408,2.7401,2.6857,2.6525,2.6525,2.6332,2.6292,2.647,2.6092,2.6141,2.6648,2.6851,2.7089,2.7401,2.7585,2.7745,0.9589,1.0866,1.2066,1.3421,0.0,1.5784,1.5591,0.0,0.0,0.0,0.0,0.0,0.0,0.0,0.0,0.0,0.0,2.2711,2.4525,2.5046,2.5523,2.6399,2.6499,2.6499,2.6499,2.6499,2.6499,2.6499,2.6499,2.6499,2.6499,2.6499,2.6499,2.6499,2.6499,2.6499,2.6499,2.6499,2.6499,2.6499,2.6499,2.6499,2.6521,2.704,2.7351,2.7537,2.8214,2.8588,2.8762,2.8921,2.8985,2.9048,2.9608,2.9839,2.9901,3.0417,3.0598,3.0598,3.0598,3.0598,3.0598,3.0642,3.0642,3.0598,3.0642,3.0612,3.0496,2.9987,2.9044,2.8184,2.8146,2.7703,2.7275,2.7275,2.7158,2.7029,2.6873,2.6846,2.6873,2.6977,2.7003,2.7003,2.7055,2.7055,2.7003,2.6873,2.6846,2.6846,2.6806,2.6832,2.6899,2.6977,2.7029,2.7093,2.7181,2.7705,2.7929,2.7675,2.8002,2.8167,2.8094,2.7845,2.7795,2.7972,2.7342,2.7192,2.7524,2.7524,2.7564,2.765,2.7929,2.8183,1.0689,1.1437,1.2144,1.4774,1.5056,0.0,1.5544,1.56,0.0,1.6882,0.0,0.0,0.0,0.0,0.0,0.0,2.2774,2.4054,2.47,0.0,2.6411,2.6487,2.6499,2.6499,2.6499,2.6499,2.6499,2.6499,2.6499,2.6499,2.6499,2.6499,2.6499,2.6499,2.6499,2.6499,2.6499,2.6499,2.6499,2.6499,2.6499,2.6499,2.6499,2.6555,2.6905,2.7537,2.8214,2.8889,2.9577,3.019,3.0447,3.0447,3.0507,3.0538,3.0538,3.0568,3.0598,3.0598,3.0598,3.0598,3.0612,3.0762,3.0702,3.0612,3.0762,3.0702,3.0598,3.0539,3.0134,2.9592,2.8991,2.8471,2.8092,2.8092,2.765,2.7144,2.7029,2.6977,2.6977,2.7003,2.7003,2.7055,2.7155,2.7181,2.713,2.7003,2.6977,2.6951,2.6806,2.6925,2.6977,2.7003,2.7119,2.7181,2.7207,2.7968,2.8439,2.8415,2.885,2.8966,2.8662,2.8614,2.8496,2.828,2.7834,2.77,2.7864,2.7864,2.8061,2.8415,2.8439,2.8606,0.9821,1.1173,1.2528,1.4495,1.5457,0.0,0.0,1.7089,1.7766,1.8289,1.8556,0.0,0.0,0.0,0.0,2.182,2.3414,2.4695,2.5222,2.5996,2.6499,2.6499,2.6499,2.6499,2.6499,2.6499,2.6499,2.6499,2.6499,2.6499,2.6499,2.6499,2.6499,2.6499,2.6499,2.6499,2.6499,2.6499,2.6714,2.7129,2.7129,2.7129,2.7129,2.7537,2.813,2.8807,2.9062,2.9577,3.0251,3.0507,3.0598,3.0598,3.0598,3.0598,3.0598,3.0598,3.0598,3.0598,3.0598,3.0642,3.0732,3.0791,3.0851,3.0925,3.0984,3.0955,3.0925,3.0925,3.0822,3.06,2.9837,2.93,2.8949,2.8949,2.8444,2.7917,2.7774,2.736,2.7055,2.7237,2.717,2.717,2.7284,2.731,2.7299,2.713,2.7104,2.7119,2.7052,2.7078,2.717,2.7248,2.7361,2.771,2.8319,2.8677,2.912,2.9705,2.9639,2.9528,2.9377,2.915,2.9081,2.9241,2.8631,2.8456,2.8717,2.8717,2.8787,2.8943,2.9196,2.9438,0.958,1.1118,1.2798,1.4422,0.0,0.0,1.7586,1.8422,1.921,1.9686,1.9785,0.0,0.0,0.0,0.0,0.0,2.381,2.5008,2.5523,2.6135,2.6499,2.6499,2.6499,2.6499,2.6499,2.6499,2.6499,2.6499,2.6499,2.6499,2.6499,2.6679,2.6816,2.6816,2.704,2.7129,2.7129,2.7129,2.7351,2.7835,2.8065,2.8032,2.7835,2.8298,2.8889,2.9591,2.9591,2.9976,3.0598,3.0598,3.0598,3.0598,3.0598,3.0598,3.0598,3.0598,3.0598,3.0598,3.0598,3.0702,3.0791,3.0866,3.0984,3.1117,3.1161,3.1132,3.1117,3.1117,3.119,3.1188,3.0614,3.0106,2.9754,2.9754,2.9262,2.8732,2.8625,2.7989,2.7506,2.7687,2.7484,2.731,2.7437,2.7463,2.7412,2.7284,2.7258,2.7258,2.7207,2.7233,2.731,2.7437,2.7549,2.7944,2.8795,2.9005,2.9438,3.0236,3.0113,3.0027,3.0027,2.9772,2.9705,2.9919,2.9309,2.9111,2.94,2.9264,2.9264,2.94,2.9683,2.9941,1.0339,1.1444,1.2878,0.0,0.0,0.0,1.9003,1.9519,2.0073,2.1251,0.0,2.1493,2.1493,0.0,0.0,2.292,2.4048,2.5008,2.5523,2.6122,2.6499,2.6499,2.6499,2.6499,2.6499,2.6499,2.6499,2.6499,2.6499,2.6499,2.6521,2.7129,2.7517,2.7517,2.8149,2.8492,2.8492,2.8492,2.8492,2.8524,2.9251,2.9219,2.8524,2.8524,2.8921,2.9623,2.9591,2.9976,3.0598,3.0598,3.0598,3.0598,3.0598,3.0598,3.0598,3.0598,3.0598,3.0598,3.0598,3.0702,3.0821,3.1043,3.1117,3.1132,3.1263,3.122,3.1117,3.1117,3.122,3.1307,3.1307,3.0902,3.0507,3.0507,3.0043,2.9552,2.9444,2.8869,2.8408,2.8393,2.7847,2.7452,2.7575,2.76,2.7549,2.7427,2.7401,2.735,2.7233,2.731,2.7437,2.76,2.76,2.7795,2.828,2.8779,2.9303,2.9772,3.0241,3.0506,3.0506,3.0506,3.0401,3.021,2.9799,2.9673,2.981,2.94,2.9422,2.981,2.981,2.9941,1.0465,1.2081,0.0,0.0,0.0,0.0,0.0,2.1135,0.0,0.0,2.2359,2.1945,2.1556,0.0,0.0,2.2498,2.3797,2.4838,2.4988,2.5862,2.6499,2.6499,2.6499,2.6499,2.6499,2.6499,2.6679,2.7162,2.6782,2.6905,2.7855,2.7637,2.7736,2.8182,2.8395,2.8492,2.8492,2.8492,2.8762,2.9282,2.9498,2.9484,2.9251,2.9251,2.9639,3.0282,2.9808,2.9976,3.0598,3.0598,3.0598,3.0598,3.0598,3.0598,3.0598,3.0598,3.0598,3.0598,3.0598,3.0791,3.1014,3.1087,3.122,3.1395,3.1424,3.1409,3.1395,3.1395,3.1424,3.1438,3.1438,3.1317,3.1197,3.1197,3.0717,3.0223,3.0167,2.9605,2.8997,2.8603,2.8297,2.8014,2.7649,2.76,2.76,2.7549,2.7524,2.7524,2.7499,2.7524,2.7549,2.76,2.76,2.7944,2.8779,2.9005,2.9438,3.0241,3.0426,3.0506,3.0506,3.0506,3.0485,3.0422,3.0284,3.0241,3.03,3.0177,3.0177,3.03,3.03,3.0342,1.1815,0.0,0.0,0.0,0.0,0.0,0.0,0.0,0.0,0.0,0.0,2.2284,2.2171,2.2234,0.0,2.2912,2.3828,2.4569,2.4763,2.5573,2.6147,2.6147,2.6348,2.6499,2.6499,2.6748,2.6939,2.7095,2.6973,2.7129,2.767,2.7835,2.8084,2.8492,2.9048,2.9331,2.9331,2.9331,2.9563,3.0007,3.0007,3.0007,3.0007,3.0007,3.0221,3.0568,3.016,3.0221,3.0598,3.0598,3.0598,3.0598,3.0598,3.0598,3.0598,3.0598,3.0642,3.0672,3.0672,3.091,3.119,3.119,3.1336,3.1511,3.1511,3.1511,3.1511,3.1511,3.1511,3.1511,3.1511,3.1511,3.1511,3.1511,3.1182,3.0883,3.0883,3.0347,2.9737,2.943,2.8883,2.8379,2.8053,2.7779,2.76,2.76,2.776,2.7968,2.8165,2.8189,2.8189,2.8189,2.8189,2.8511,2.9303,2.9371,2.9705,3.0447,3.0506,3.0506,3.0506,3.0506,3.0506,3.0506,3.0506,3.0506,3.0506,3.0506,3.0506,3.0506,3.0506,3.0506,1.3745,0.0,0.0,0.0,0.0,0.0,0.0,0.0,0.0,2.3085,0.0,2.2506,2.3007,2.2694,2.2723,2.3753,2.3966,2.4167,2.4669,2.5197,2.5548,2.5586,2.6152,2.6539,2.6589,2.7196,2.7351,2.6714,2.7196,2.7284,2.6816,2.7855,2.8556,2.8684,2.9917,3.0598,3.0598,3.0598,3.0598,3.0598,3.0598,3.0598,3.0598,3.0598,3.0598,3.0598,3.0598,3.0598,3.0598,3.0598,3.0598,3.0598,3.0598,3.0612,3.0612,3.0642,3.0732,3.0821,3.0821,3.1029,3.1307,3.1307,3.138,3.1511,3.1511,3.1511,3.1511,3.1511,3.1511,3.1511,3.1511,3.1511,3.1511,3.1511,3.1511,3.1511,3.1511,3.1017,3.0582,3.0507,2.9619,2.8805,2.8685,2.8196,2.7811,2.775,2.81,2.8543,2.9028,2.9097,2.9097,2.9097,2.9097,2.928,2.975,2.9858,3.0071,3.0485,3.0555,3.0572,3.0506,3.0506,3.0506,3.0506,3.0506,3.0506,3.0506,3.0506,3.0506,3.0506,3.0506,3.0506,0.0,1.524,0.0,0.0,0.0,0.0,0.0,0.0,0.0,2.3859,2.3365,2.2957,2.3083,2.3007,2.3007,2.3246,2.3703,2.4042,2.4155,2.4644,2.5146,2.5548,2.6217,2.6836,2.7245,2.7887,2.8247,2.8084,2.7736,2.7934,2.8871,2.8666,2.9016,3.0115,3.0447,3.0598,3.0598,3.0598,3.0598,3.0598,3.0598,3.0598,3.0598,3.0598,3.0598,3.0598,3.0598,3.0598,3.0598,3.0598,3.0598,3.0598,3.0732,3.0762,3.0791,3.0925,3.1014,3.1043,3.1043,3.1146,3.1307,3.1307,3.138,3.1511,3.1511,3.1511,3.1511,3.1511,3.1511,3.1511,3.1511,3.1511,3.1511,3.1511,3.1511,3.1511,3.1511,3.1391,3.1122,3.0612,3.0667,3.0444,2.9348,2.9425,2.9445,2.885,2.8865,2.8982,2.909,2.9097,2.9097,2.9097,2.9097,2.928,2.975,3.0328,3.0609,3.0518,3.1035,3.1101,3.0522,3.0506,3.0506,3.0506,3.0506,3.0506,3.0506,3.0506,3.0506,3.0506,3.0506,3.0506,0.0,0.0,0.0,0.0,0.0,0.0,0.0,0.0,0.0,2.3627,2.3603,2.3484,2.3168,2.3108,2.3108,2.3108,2.3358,2.359,2.359,2.4067,2.4614,2.5186,2.5825,2.6566,2.7468,2.8148,2.8524,2.851,2.8505,2.868,2.9062,2.903,2.9345,3.0099,3.0447,3.0598,3.0598,3.0598,3.0598,3.0598,3.0598,3.0598,3.0598,3.0598,3.0598,3.0598,3.0598,3.0598,3.0598,3.0598,3.0642,3.0702,3.0762,3.0866,3.0955,3.1043,3.1132,3.119,3.119,3.1263,3.1409,3.1409,3.1438,3.1511,3.1511,3.1511,3.1511,3.1511,3.1511,3.1511,3.1511,3.1511,3.1511,3.1511,3.1511,3.1511,3.1511,3.1511,3.1406,3.1032,3.1204,3.1166,3.0417,3.0257,3.0148,2.9991,2.9662,2.9634,3.0218,3.0289,3.0419,3.0804,3.0836,3.0926,3.1166,3.1532,3.1709,3.1548,3.1918,3.1951,3.157,3.1201,3.0853,3.0506,3.0506,3.0506,3.0506,3.0506,3.0506,3.0506,3.0506,3.0506,0.0,0.0,0.0,0.0,0.0,0.0,0.0,0.0,2.3258,2.3005,2.3479,2.375,2.3198,2.3108,2.3108,2.3108,2.3108,2.3125,2.3258,2.3692,2.4267,2.497,2.5542,2.6334,2.7495,2.8305,2.8691,2.8538,2.9195,2.9314,2.873,2.9251,2.9654,2.9777,3.0312,3.0598,3.0598,3.0598,3.0598,3.0598,3.0598,3.0598,3.0642,3.0598,3.0598,3.0598,3.0598,3.0598,3.0598,3.0612,3.0702,3.0791,3.0851,3.0969,3.1146,3.1161,3.1249,3.1322,3.1322,3.1409,3.1511,3.1511,3.1511,3.1511,3.1511,3.1511,3.1511,3.1511,3.1511,3.1511,3.1511,3.1511,3.1511,3.1511,3.1511,3.1511,3.1511,3.1511,3.1511,3.1511,3.1515,3.1579,3.1789,3.1169,3.0724,3.105,3.0575,3.0544,3.1538,3.1813,3.2111,3.2652,3.2702,3.2702,3.2702,3.2818,3.2851,3.2718,3.2834,3.2834,3.2718,3.2116,3.1432,3.0704,3.0555,3.0506,3.0506,3.0506,3.0506,3.0506,3.0506,3.0506,0.0,0.0,0.0,0.0,0.0,0.0,0.0,0.0,2.3601,0.0,2.2858,2.3215,2.3108,2.3108,2.3108,2.3108,2.3108,2.3305,2.3884,2.405,2.4478,2.5544,2.6263,2.6886,2.7542,2.8738,2.9228,2.8624,2.922,2.956,2.9453,2.956,2.987,3.0447,3.0538,3.0598,3.0598,3.0598,3.0598,3.0598,3.0598,3.0672,3.0762,3.0642,3.0598,3.0598,3.0598,3.0598,3.0598,3.0732,3.0791,3.0821,3.1117,3.1248,3.1292,3.1409,3.1453,3.1467,3.1467,3.1511,3.1511,3.1511,3.1511,3.1511,3.1511,3.1511,3.1511,3.1511,3.1511,3.1511,3.1511,3.1511,3.1511,3.1511,3.1511,3.1511,3.1511,3.1511,3.1511,3.1511,3.1786,3.2333,3.3312,3.285,3.2242,3.1891,3.1764,3.177,3.1912,3.2663,3.3044,3.2713,3.2702,3.2702,3.2702,3.3299,3.3398,3.2752,3.3315,3.3381,3.2735,3.2619,3.2216,3.1466,3.0837,3.0506,3.0506,3.0506,3.0506,3.0506,3.0506,3.0506,0.0,0.0,0.0,0.0,0.0,0.0,0.0,0.0,2.251,2.233,2.276,2.3147,2.3105,2.3108,2.3108,2.3108,2.3424,2.3767,2.4073,2.4408,2.4931,2.5756,2.6106,2.6651,2.7569,2.818,2.8554,2.8641,2.8927,2.9228,2.9585,2.96,2.9922,3.0598,3.0598,3.0598,3.0598,3.0598,3.0598,3.0598,3.0672,3.0732,3.0791,3.0866,3.0821,3.0702,3.0642,3.0598,3.0598,3.0672,3.0791,3.0984,3.1132,3.1263,3.1409,3.1467,3.1511,3.1511,3.1511,3.1511,3.1511,3.1511,3.1511,3.1511,3.1511,3.1511,3.1511,3.1511,3.1511,3.1511,3.1511,3.1511,3.1511,3.1511,3.1511,3.1611,3.2079,3.1824,3.1582,3.1938,3.2377,3.2972,3.3836,3.3604,3.3265,3.3027,3.2646,3.2531,3.2945,3.3375,3.3707,3.3905,3.3922,3.3922,3.3922,3.422,3.427,3.3938,3.4237,3.427,3.3938,3.3547,3.316,3.2845,3.1697,3.0903,3.0506,3.0506,3.0506,3.0506,3.0919,3.1118,0.0,0.0,0.0,0.0,0.0,0.0,0.0,0.0,2.1691,0.0,2.2652,2.2966,2.2899,2.3145,2.3305,2.3138,2.3662,2.4147,2.4321,2.4851,2.5453,2.6056,2.6111,2.6485,2.7378,2.7608,2.7898,2.8405,2.8607,2.8884,2.9363,2.9508,2.9842,3.0321,3.0525,3.0598,3.0598,3.0598,3.0598,3.0598,3.0702,3.0791,3.0895,3.0984,3.0984,3.091,3.0791,3.0732,3.0732,3.0747,3.094,3.1161,3.119,3.1336,3.1511,3.1511,3.1511,3.1511,3.1511,3.1511,3.1511,3.1511,3.1511,3.1511,3.1511,3.1511,3.1524,3.1697,3.1726,3.1726,3.1726,3.1824,3.1894,3.1768,3.1824,3.2064,3.252,3.2244,3.2104,3.2711,3.3177,3.3604,3.4184,3.4175,3.4071,3.4071,3.3607,3.3464,3.4005,3.4071,3.4286,3.4833,3.4899,3.4899,3.4899,3.4899,3.4899,3.4899,3.4899,3.4899,3.4899,3.4369,3.3988,3.3789,3.2729,3.1797,3.1073,3.1073,3.1073,3.1068,3.1615,3.1879,0.0,0.0,0.0,0.0,0.0,0.0,0.0,0.0,0.0,2.2183,2.2273,2.2332,2.2343,2.3284,2.3826,2.3198,2.3662,2.4292,2.4879,2.5481,2.6084,2.6674,2.6753,2.6767,2.6837,2.7374,2.771,2.7753,2.8332,2.8723,2.8767,2.9305,2.961,2.9639,3.0263,3.0598,3.0598,3.0598,3.0598,3.0598,3.0598,3.0791,3.1087,3.0895,3.0969,3.1263,3.1132,3.1087,3.1073,3.1205,3.1278,3.1307,3.1424,3.1482,3.1511,3.1511,3.1511,3.1511,3.1511,3.1511,3.1511,3.1511,3.1511,3.1511,3.1511,3.1511,3.1611,3.2176,3.2342,3.2342,3.2342,3.2749,3.2986,3.2465,3.2734,3.2986,3.252,3.2788,3.3293,3.3908,3.4025,3.4209,3.478,3.4842,3.4833,3.4833,3.48,3.48,3.4833,3.4833,3.4849,3.4899,3.4899,3.4899,3.4899,3.4899,3.4899,3.4899,3.4899,3.4899,3.4899,3.4866,3.4502,3.3806,3.3723,3.3309,3.2602,3.2602,3.2602,3.2602,3.2613,3.2652,0.0,0.0,0.0,0.0,0.0,0.0,0.0,1.988,2.1033,2.1472,2.1648,2.1916,2.2626,2.2871,2.2981,2.3147,2.3992,2.4833,2.5481,2.6111,2.6568,2.6779,2.6806,2.6806,2.6806,2.6997,2.7128,2.7128,2.7331,2.7636,2.8057,2.8261,2.8565,2.9,2.9624,3.0161,3.0598,3.0598,3.0642,3.0732,3.0866,3.1043,3.1234,3.1234,3.1322,3.1424,3.1395,3.1249,3.1102,3.1161,3.1205,3.1307,3.1351,3.1409,3.1511,3.1511,3.1511,3.1511,3.1511,3.1511,3.1511,3.1511,3.1511,3.1511,3.1511,3.1511,3.1568,3.1768,3.2092,3.2398,3.2398,3.2788,3.3145,3.296,3.363,3.4127,3.361,3.3345,3.3277,3.3475,3.3841,3.4126,3.4184,3.4594,3.4899,3.4899,3.4899,3.4899,3.4899,3.4899,3.4899,3.4899,3.4899,3.4899,3.4899,3.4899,3.4899,3.4899,3.4899,3.4899,3.4899,3.4899,3.4767,3.4502,3.4502,3.3905,3.2702,3.2702,3.2702,3.2718,3.3199,3.3415,0.9974,0.0,0.0,0.0,0.0,0.0,1.7945,0.0,1.9897,2.0926,2.1239,2.1549,2.2263,2.2308,2.2458,2.3027,2.393,2.4799,2.5472,2.6091,2.6559,2.6765,2.6806,2.6806,2.6806,2.6806,2.6806,2.6806,2.6806,2.6968,2.7389,2.7579,2.8,2.868,2.9305,2.9827,3.0248,3.0526,3.0702,3.0791,3.0984,3.1161,3.1307,3.138,3.1467,3.1511,3.1511,3.1395,3.122,3.122,3.1307,3.138,3.138,3.1409,3.1511,3.1511,3.1511,3.1511,3.1511,3.1511,3.1511,3.1511,3.1511,3.1511,3.1511,3.1511,3.1524,3.1754,3.2092,3.2398,3.2398,3.2788,3.3303,3.3665,3.4341,3.4804,3.4448,3.4052,3.3783,3.3783,3.4093,3.4325,3.4184,3.457,3.4899,3.4899,3.4899,3.4899,3.4899,3.4899,3.4899,3.4899,3.4899,3.4899,3.4899,3.4899,3.4899,3.4899,3.4899,3.4899,3.4899,3.4899,3.4899,3.4899,3.4899,3.4419,3.3448,3.3448,3.3448,3.3442,3.3938,3.4154,0.0,0.0,0.0,0.0,0.0,0.0,1.8898,0.0,1.8651,2.0524,2.1012,2.1094,2.1173,2.1715,2.2317,2.2875,2.3506,2.414,2.4812,2.5403,2.6021,2.6649,2.6762,2.6777,2.6777,2.6806,2.6806,2.6806,2.6806,2.6806,2.6806,2.736,2.7998,2.8651,2.9247,2.9581,2.9624,3.0396,3.0807,3.0821,3.1014,3.119,3.1307,3.1307,3.138,3.1511,3.1511,3.1511,3.1511,3.1511,3.1511,3.1511,3.1511,3.1511,3.1511,3.1511,3.1511,3.1511,3.1511,3.1511,3.1511,3.1511,3.1511,3.1511,3.1511,3.1511,3.1611,3.2203,3.2398,3.2425,3.2437,3.2841,3.3511,3.4626,3.4899,3.4899,3.4899,3.4899,3.4899,3.4899,3.4899,3.4899,3.4899,3.4899,3.4899,3.4899,3.4899,3.4899,3.4899,3.4899,3.4899,3.4899,3.4899,3.4899,3.4899,3.4899,3.4899,3.4899,3.4899,3.4899,3.4899,3.4899,3.4899,3.4899,3.4899,3.4899,3.4899,3.4899,3.4899,3.4899,3.4899,3.4899,0.9456,0.0,0.0,0.0,0.0,0.0,0.0,0.0,1.6646,1.8579,1.8707,1.8967,2.0739,2.0919,2.1125,2.2119,2.3202,2.4139,2.4815,2.5026,2.5197,2.5332,2.5778,2.6094,2.6094,2.653,2.6806,2.6806,2.6806,2.6846,2.6951,2.7176,2.7609,2.8255,2.8418,2.8961,2.9957,3.0176,3.0587,3.1176,3.1234,3.1322,3.1438,3.1438,3.1467,3.1511,3.1511,3.1511,3.1511,3.1511,3.1511,3.1511,3.1511,3.1511,3.1511,3.1511,3.1511,3.1511,3.1511,3.1511,3.1511,3.1511,3.1511,3.1511,3.1511,3.1511,3.1524,3.1697,3.2064,3.2574,3.3419,3.3739,3.4018,3.4739,3.4899,3.4899,3.4899,3.4899,3.4899,3.4899,3.4899,3.4899,3.4899,3.4899,3.4899,3.4899,3.4899,3.4899,3.4899,3.4899,3.4899,3.4899,3.4899,3.4899,3.4899,3.4899,3.4899,3.4899,3.4899,3.4899,3.4899,3.4899,3.4899,3.4899,3.4899,3.4899,3.4899,3.4899,3.4899,3.4899,3.4899,3.4899,0.0,0.0,0.0,0.0,0.0,0.0,1.46,1.4979,1.5459,0.0,1.7971,1.8532,1.9962,2.0415,2.0819,2.1468,2.2439,2.3426,2.4341,2.4471,2.4573,2.4795,2.5143,2.5487,2.5763,2.6141,2.6515,2.6791,2.6806,2.6873,2.6977,2.7144,2.7343,2.7727,2.7965,2.8481,2.9261,2.9891,3.0435,3.0877,3.1217,3.1409,3.1511,3.1511,3.1511,3.1511,3.1511,3.1511,3.1511,3.1511,3.1511,3.1511,3.1511,3.1511,3.1511,3.1511,3.1511,3.1511,3.1511,3.1511,3.1511,3.1511,3.1511,3.1511,3.1511,3.1511,3.1511,3.1511,3.1739,3.2287,3.3439,3.3723,3.3901,3.4715,3.4899,3.4899,3.4899,3.4899,3.4899,3.4899,3.4899,3.4899,3.4899,3.4899,3.4899,3.4899,3.4899,3.4899,3.4899,3.4899,3.4899,3.4899,3.4899,3.4899,3.4899,3.4899,3.4899,3.4899,3.4899,3.4899,3.4899,3.4899,3.4899,3.4899,3.4899,3.4899,3.4899,3.4899,3.4899,3.4899,3.4899,3.4899,0.0,1.3132,0.0,0.0,1.3493,0.0,1.6137,1.5579,1.4877,0.0,1.7696,1.8553,1.8757,1.973,2.0564,2.0674,2.1256,2.2171,2.3484,2.3746,2.4007,2.4602,2.4679,2.4926,2.5542,2.5658,2.5952,2.6646,2.6803,2.6884,2.7029,2.7155,2.7244,2.7244,2.7753,2.8092,2.8166,2.9455,3.0164,3.034,3.105,3.1436,3.1511,3.1511,3.1511,3.1511,3.1511,3.1511,3.1511,3.1511,3.1511,3.1511,3.1511,3.1511,3.1511,3.1511,3.1511,3.1511,3.1511,3.1511,3.1511,3.1511,3.1511,3.1511,3.1511,3.1511,3.1511,3.1511,3.1511,3.1768,3.2906,3.3182,3.3485,3.4626,3.4899,3.4899,3.4899,3.4899,3.4899,3.4899,3.4899,3.4899,3.4899,3.4899,3.4899,3.4899,3.4899,3.4899,3.4899,3.4899,3.4899,3.4899,3.4899,3.4899,3.4899,3.4899,3.4899,3.4899,3.4899,3.4899,3.4899,3.4899,3.4899,3.4899,3.4899,3.4899,3.4899,3.4899,3.4899,3.4899,3.4899,3.4899,1.5538,1.5973,1.6662,1.5653,0.0,0.0,1.4258,1.4249,1.4519,0.0,1.4507,1.5154,1.6724,1.7208,1.7722,1.8731,1.9393,2.0366,2.2106,2.278,2.3142,2.3287,2.3775,2.4123,2.4254,2.4718,2.5259,2.5948,2.6707,2.713,2.7155,2.7372,2.7524,2.7524,2.7643,2.7961,2.8513,2.8793,2.9436,3.0451,3.0614,3.0972,3.1511,3.1511,3.1511,3.1511,3.1511,3.1511,3.1511,3.1511,3.1511,3.1511,3.1511,3.1511,3.1511,3.1511,3.1511,3.1511,3.1511,3.1511,3.1511,3.1511,3.1511,3.1511,3.1511,3.1511,3.1511,3.1511,3.1511,3.1768,3.2906,3.3182,3.3485,3.4626,3.4899,3.4899,3.4899,3.4899,3.4899,3.4899,3.4899,3.4899,3.4899,3.4899,3.4899,3.4899,3.4899,3.4899,3.4899,3.4899,3.4899,3.4899,3.4899,3.4899,3.4899,3.4899,3.4899,3.4899,3.4899,3.4899,3.4899,3.4899,3.4899,3.4899,3.4899,3.4899,3.4899,3.4899,3.4899,3.4899,3.4899,3.4899,1.7935,1.8001,1.829,1.7406,0.0,0.0,0.0,1.5209,1.4975,1.5447,1.5006,1.505,1.6701,1.698,1.7272,1.8229,1.9196,2.0006,2.0625,2.1407,2.1953,2.1953,2.2251,2.2701,2.3331,2.3725,2.4378,2.5414,2.6251,2.672,2.6811,2.7294,2.76,2.76,2.76,2.7764,2.8109,2.8427,2.8921,2.9564,3.0193,3.0687,3.1002,3.1346,3.1511,3.1511,3.1511,3.1511,3.1511,3.1511,3.1511,3.1511,3.1511,3.1511,3.1511,3.1511,3.1511,3.1511,3.1511,3.1511,3.1511,3.1511,3.1511,3.1511,3.1511,3.1511,3.1511,3.1511,3.1511,3.1682,3.2586,3.2986,3.3433,3.4284,3.4707,3.4899,3.4899,3.4899,3.4899,3.4899,3.4899,3.4899,3.4899,3.4899,3.4899,3.4899,3.4899,3.4899,3.4899,3.4899,3.4899,3.4899,3.4899,3.4899,3.4899,3.4899,3.4899,3.4899,3.4899,3.4899,3.4899,3.4899,3.4899,3.4899,3.4899,3.4899,3.4899,3.4899,3.4899,3.4899,3.4899,3.4899,0.0,0.0,0.0,0.0,0.0,1.7811,0.0,0.0,0.0,1.7055,1.6351,0.0,0.0,0.0,0.0,1.7813,0.0,0.0,0.0,1.9616,0.0,2.0791,2.095,2.1409,2.2446,2.2636,2.331,2.4732,2.5353,2.5884,2.6382,2.7036,2.7465,2.76,2.76,2.76,2.76,2.8154,2.8472,2.8607,2.9639,3.0268,3.0522,3.1047,3.1376,3.1511,3.1511,3.1511,3.1511,3.1511,3.1511,3.1511,3.1511,3.1511,3.1496,3.164,3.1668,3.1697,3.1796,3.1824,3.1824,3.1824,3.1824,3.1824,3.1824,3.1824,3.1824,3.1824,3.1824,3.1951,3.2574,3.3044,3.3527,3.4109,3.457,3.4899,3.4899,3.4899,3.4899,3.4899,3.4899,3.4899,3.4899,3.4899,3.4899,3.4899,3.4899,3.4899,3.4899,3.4899,3.4899,3.4899,3.4899,3.4899,3.4899,3.4899,3.4899,3.4899,3.4899,3.4899,3.4899,3.4899,3.4899,3.4899,3.4899,3.4899,3.4899,3.4899,3.4899,3.4899,3.4899,3.4899,0.0,0.0,0.0,0.0,2.0603,0.0,0.0,0.0,1.7577,1.6622,0.0,0.0,0.0,0.0,0.0,0.0,0.0,0.0,1.6217,1.7053,1.8423,2.0094,2.0715,2.1061,2.1206,2.1283,2.1942,2.3407,2.3629,2.4496,2.6307,2.6603,2.7001,2.757,2.76,2.76,2.76,2.7675,2.8019,2.8607,2.8742,2.9415,3.0507,3.0582,3.0956,3.1511,3.1511,3.1511,3.1511,3.1511,3.1511,3.1511,3.1511,3.1511,3.1553,3.2092,3.2287,3.2355,3.2826,3.3013,3.3013,3.3013,3.3013,3.3013,3.3013,3.3013,3.3013,3.3013,3.3013,3.3145,3.3739,3.3958,3.4134,3.4667,3.4851,3.4899,3.4899,3.4899,3.4899,3.4899,3.4899,3.4899,3.4899,3.4899,3.4899,3.4899,3.4899,3.4899,3.4899,3.4899,3.4899,3.4899,3.4899,3.4899,3.4899,3.4899,3.4899,3.4899,3.4899,3.4899,3.4899,3.4899,3.4899,3.4899,3.4899,3.4899,3.4899,3.4899,3.4899,3.4899,3.4899,3.4899,0.0,0.0,0.0,0.0,0.0,0.0,1.922,0.0,1.8296,0.0,0.0,0.0,0.0,0.0,0.0,0.0,1.6608,0.0,0.0,0.0,1.6907,1.8397,0.0,1.8859,2.0082,2.0147,2.0749,2.2263,2.1975,2.2619,2.4671,2.5576,2.6318,2.7001,2.7405,2.76,2.76,2.76,2.775,2.8034,2.8692,2.9498,3.0464,3.114,3.1828,3.2489,3.2489,3.2312,3.2007,3.2007,3.1824,3.1511,3.1511,3.1511,3.1524,3.1768,3.1881,3.1966,3.2532,3.2749,3.2788,3.3093,3.3182,3.3182,3.3182,3.3182,3.3182,3.3182,3.3182,3.3251,3.3501,3.3841,3.4151,3.4374,3.4667,3.4899,3.4899,3.4899,3.4899,3.4899,3.4899,3.4899,3.4899,3.4899,3.4899,3.4899,3.4899,3.4899,3.4899,3.4899,3.4899,3.4899,3.4899,3.4899,3.4899,3.4899,3.4899,3.4899,3.4899,3.4899,3.4899,3.4899,3.4899,3.4899,3.4899,3.4899,3.4899,3.4899,3.4899,3.4899,3.4899,3.4899,2.2329,0.0,0.0,0.0,0.0,0.0,0.0,0.0,0.0,0.0,0.0,0.0,0.0,0.0,0.0,0.0,0.0,1.5904,0.0,1.5012,0.0,0.0,0.0,0.0,1.8906,1.8643,1.9135,2.1021,2.0269,2.0846,2.346,2.4702,2.5719,2.6557,2.7255,2.76,2.76,2.76,2.766,2.781,2.8629,2.9579,3.0617,3.1448,3.2335,3.3182,3.3182,3.2986,3.2614,3.2614,3.2355,3.1979,3.1979,3.1979,3.1951,3.1796,3.1754,3.1824,3.241,3.2738,3.2953,3.3501,3.3665,3.3665,3.3665,3.3665,3.3665,3.3665,3.3665,3.3665,3.3665,3.3977,3.4325,3.4325,3.4618,3.4899,3.4899,3.4899,3.4899,3.4899,3.4899,3.4899,3.4899,3.4899,3.4899,3.4899,3.4899,3.4899,3.4899,3.4899,3.4899,3.4899,3.4899,3.4899,3.4899,3.4899,3.4899,3.4899,3.4899,3.4899,3.4899,3.4899,3.4899,3.4899,3.4899,3.4899,3.4899,3.4899,3.4899,3.4899,3.4899,3.4899,0.0,0.0,0.0,2.0261,0.0,0.0,0.0,0.0,2.0356,0.0,0.0,0.0,0.0,0.0,0.0,0.0,0.0,0.0,0.0,0.0,0.0,0.0,0.0,0.0,0.0,1.6499,1.6857,1.9555,1.8536,1.9492,2.3385,2.4261,2.5232,2.6557,2.7255,2.76,2.76,2.76,2.782,2.828,2.8319,2.9297,3.1072,3.1128,3.1887,3.3182,3.3182,3.3182,3.3156,3.3156,3.3156,3.3145,3.3145,3.3145,3.3093,3.2559,3.237,3.2437,3.2986,3.3569,3.4109,3.4667,3.4851,3.4851,3.4851,3.4851,3.4851,3.4851,3.4851,3.4851,3.4851,3.4875,3.4875,3.4875,3.4899,3.4899,3.4899,3.4899,3.4899,3.4899,3.4899,3.4899,3.4899,3.4899,3.4899,3.4899,3.4899,3.4899,3.4899,3.4899,3.4899,3.4899,3.4899,3.4899,3.4899,3.4899,3.4899,3.4899,3.4899,3.4899,3.4899,3.4899,3.4899,3.4899,3.4899,3.4899,3.4899,3.4899,3.4899,3.4899,3.4899,3.4899,2.3736,2.3866,2.3629,2.1576,2.1044,2.0908,0.0,0.0,0.0,0.0,0.0,0.0,0.0,0.0,0.0,0.0,0.0,0.0,0.0,0.0,0.0,0.0,0.0,0.0,0.0,0.0,1.6458,1.8237,1.7548,1.8401,2.1495,2.2742,2.3939,2.5232,2.6363,2.7151,2.76,2.76,2.7845,2.8288,2.8662,2.9848,3.1718,3.2008,3.2954,3.4341,3.4341,3.4102,3.379,3.379,3.3553,3.3182,3.3182,3.3182,3.3198,3.3002,3.2922,3.3002,3.3594,3.4143,3.4667,3.4851,3.4899,3.4899,3.4899,3.4899,3.4899,3.4899,3.4899,3.4899,3.4899,3.4899,3.4899,3.4899,3.4899,3.4899,3.4899,3.4899,3.4899,3.4899,3.4899,3.4899,3.4899,3.4899,3.4899,3.4899,3.4899,3.4899,3.4899,3.4899,3.4899,3.4899,3.4899,3.4899,3.4899,3.4899,3.4899,3.4899,3.4899,3.4899,3.4899,3.4899,3.4899,3.4899,3.4899,3.4899,3.4899,3.4899,3.4899,3.4899,3.4899,3.4899,2.4161,2.4197,2.3924,2.2534,2.1995,2.1675,2.1191,2.1298,2.1569,0.0,0.0,0.0,0.0,0.0,0.0,0.0,0.0,0.0,0.0,1.35,0.0,0.0,0.0,0.0,0.0,0.0,1.5201,1.7189,1.6517,1.7295,2.0198,2.1849,2.3266,2.456,2.5899,2.6926,2.7585,2.76,2.7944,2.8591,2.8935,3.0085,3.1867,3.243,3.3365,3.4518,3.4783,3.4691,3.4374,3.4374,3.4168,3.3793,3.3793,3.3793,3.3758,3.3355,3.3182,3.3303,3.3908,3.4325,3.4643,3.4851,3.4899,3.4899,3.4899,3.4899,3.4899,3.4899,3.4899,3.4899,3.4899,3.4899,3.4899,3.4899,3.4899,3.4899,3.4899,3.4899,3.4899,3.4899,3.4899,3.4899,3.4899,3.4899,3.4899,3.4899,3.4899,3.4899,3.4899,3.4899,3.4899,3.4899,3.4899,3.4899,3.4899,3.4899,3.4899,3.4899,3.4899,3.4899,3.4899,3.4899,3.4899,3.4899,3.4899,3.4899,3.4899,3.4899,3.4899,3.4899,3.4899,3.4899]}]]